GFSGL_sfc_thetae_000.txt.gz
Theta_e
308 308 307 308 309 309 308 309 309 309 309 309 308 308 309 310 311 313 316 319 321 323 323 323 323 325 323 322 321 319 317 317 312 315 318 316 306 303 304 302 303 303 306
307 307 307 308 308 307 307 308 309 309 310 310 310 310 310 309 310 310 311 314 315 316 319 321 321 322 322 322 321 319 318 318 315 313 316 315 304 301 302 299 300 301 302
307 307 307 306 306 306 307 308 309 308 308 309 309 309 310 310 310 310 310 311 312 314 316 317 318 319 320 320 321 320 319 318 317 315 314 316 305 300 298 299 298 299 299
306 305 304 305 304 304 305 305 306 306 306 306 307 308 308 309 310 310 310 309 310 312 314 315 317 317 318 319 319 319 319 317 316 315 314 313 300 298 299 297 294 296 295
301 302 302 303 303 302 302 302 303 304 304 304 304 305 305 307 308 308 308 308 308 308 310 312 313 313 310 314 318 318 318 317 316 314 312 308 298 294 295 297 297 295 295
298 299 301 300 300 300 300 300 301 301 302 302 302 303 303 305 306 307 307 307 306 306 307 309 311 309 312 312 313 312 315 316 314 313 312 309 305 303 299 298 296 291 288
296 297 297 296 295 296 297 297 297 297 297 298 300 301 301 302 305 307 307 305 305 305 306 307 308 311 310 313 313 313 312 312 312 315 313 311 309 306 301 296 296 293 288
293 292 293 293 292 293 293 293 293 294 294 295 296 298 299 301 304 305 304 302 301 302 303 304 307 308 310 311 311 311 313 314 314 313 314 314 313 310 303 300 296 287 284
289 289 290 290 290 290 290 290 290 291 292 292 294 295 297 298 301 302 300 297 299 299 302 303 303 304 305 307 307 308 309 311 302 304 308 309 309 306 301 292 287 286 281
286 286 287 288 288 287 288 288 288 290 290 291 291 293 296 294 298 300 299 297 294 297 298 298 301 302 303 304 304 304 304 307 295 293 295 298 300 299 298 295 288 286 283
285 285 285 286 286 286 286 287 287 287 288 288 289 290 291 292 292 298 298 295 294 293 291 293 297 300 301 301 301 301 301 306 297 292 289 287 287 287 287 287 288 287 283
284 284 284 284 285 285 284 285 285 285 285 286 287 287 290 289 294 294 296 297 297 291 290 292 294 297 298 299 300 301 302 303 291 287 286 285 284 284 285 285 285 284 285
283 282 283 283 283 284 283 283 283 284 284 284 285 285 285 286 289 293 295 296 295 292 291 293 296 297 298 298 299 300 301 293 288 286 285 285 284 284 284 283 283 283 283
281 281 282 282 283 283 283 283 283 282 283 283 283 283 284 286 287 288 290 291 293 291 292 293 296 298 299 299 298 297 290 289 288 287 286 285 284 283 281 282 280 280 279
281 281 281 282 281 281 282 282 282 284 286 285 284 285 284 284 286 292 292 290 289 290 293 293 293 292 293 293 290 286 286 288 285 284 283 282 282 281 280 281 280 280 280
280 280 281 281 281 281 281 281 286 288 289 290 290 289 287 291 291 293 292 292 292 294 290 289 289 288 288 289 286 285 285 284 283 283 282 282 281 280 280 281 280 280 279
280 280 280 281 280 280 280 280 280 283 287 287 289 290 290 290 291 291 291 291 291 291 286 287 287 286 286 287 285 284 283 283 282 282 281 281 281 280 280 280 280 279 277
280 283 280 280 280 280 280 280 281 280 280 281 286 287 287 289 289 289 289 288 285 286 285 285 286 286 285 285 285 284 282 281 281 281 281 281 280 280 279 279 279 276 276
280 279 280 280 280 281 281 280 280 281 281 280 282 284 285 286 287 287 287 283 283 283 283 284 286 286 285 285 284 282 282 281 281 281 281 280 280 280 279 279 278 279 277
279 282 282 280 280 280 280 280 280 280 280 281 280 280 282 283 280 280 281 281 282 282 283 284 285 286 285 285 283 282 281 282 281 281 280 280 280 280 279 278 277 275 275
279 279 282 280 279 279 279 279 279 279 279 279 279 281 285 281 279 279 280 281 280 281 282 283 285 286 285 285 283 282 281 281 281 280 280 280 280 279 278 278 276 276 274
279 279 279 279 279 279 279 279 280 279 279 279 280 281 284 280 279 279 279 280 281 282 283 284 285 285 285 284 283 282 281 280 280 280 280 280 279 278 277 276 276 273 271
279 278 278 278 278 280 279 279 279 279 279 279 279 280 280 279 279 278 279 280 281 282 284 284 284 285 285 285 284 283 281 280 281 281 280 279 278 277 276 276 273 271 271
278 278 278 278 278 279 278 277 278 279 279 279 279 280 279 279 279 279 279 279 280 282 282 281 283 285 284 284 283 283 283 282 282 281 281 279 278 278 276 272 271 269 269
279 278 278 278 277 277 277 277 277 278 278 278 279 279 279 279 278 278 278 279 279 281 279 279 283 284 284 283 283 282 282 283 282 281 280 279 277 275 272 271 271 269 269
279 278 278 278 277 277 277 276 275 275 275 277 278 278 278 278 278 276 277 278 280 279 278 279 282 284 283 283 282 283 285 284 283 283 280 278 276 274 272 271 269 270 268

GFSGL_sfc_thetae_003.txt.gz
Theta_e
307 306 306 306 307 307 307 307 308 308 308 308 308 308 308 308 308 308 308 309 309 310 312 314 316 319 319 320 321 321 319 318 313 315 317 317 310 313 309 309 310 309 310
305 305 305 306 305 305 305 305 305 305 306 306 306 307 307 307 308 307 307 308 308 308 310 312 313 316 315 317 318 317 318 319 316 313 315 316 311 307 309 305 305 306 306
302 302 302 303 302 301 302 302 302 302 303 303 304 304 304 304 304 305 306 307 307 309 309 310 311 313 312 313 314 315 316 317 317 315 314 317 316 302 299 300 300 301 303
299 299 298 300 299 299 299 300 300 301 301 302 302 302 302 303 304 303 304 303 303 306 307 308 309 310 310 311 312 313 314 313 314 313 314 314 315 303 303 303 296 298 298
296 296 296 296 295 295 295 297 297 298 299 299 298 298 301 301 303 302 302 302 304 304 305 306 307 307 306 308 310 310 311 310 311 310 310 312 312 298 298 300 301 300 297
292 292 293 292 292 292 293 293 294 294 295 295 295 298 297 300 303 304 304 303 304 300 298 301 303 304 306 309 311 310 310 309 308 308 309 308 309 310 307 303 301 293 291
289 290 289 289 289 290 290 290 290 290 291 291 293 293 294 296 300 304 303 301 296 296 298 298 300 303 302 305 305 307 307 309 309 309 308 309 310 311 310 306 302 300 298
287 285 286 286 286 287 287 287 287 288 288 289 290 290 291 292 298 301 303 294 293 295 296 296 298 295 298 301 302 302 302 304 306 309 309 310 312 313 313 310 305 294 286
283 283 284 284 284 285 284 284 285 286 286 286 287 289 288 290 296 299 296 293 291 292 295 295 293 292 297 300 298 297 298 299 302 303 304 303 305 307 310 296 289 288 284
282 283 283 284 283 283 283 283 284 284 285 286 285 286 290 289 294 294 293 291 289 290 293 292 294 294 297 297 295 295 294 294 297 299 301 303 299 302 306 303 299 292 285
283 283 283 283 282 283 283 283 283 283 283 283 283 285 286 288 287 292 293 290 289 290 291 291 291 294 296 296 298 296 296 298 298 298 299 290 287 287 288 289 291 293 286
282 282 282 282 283 283 282 282 282 282 281 281 282 284 285 285 289 290 291 292 293 290 290 290 290 293 294 297 298 300 300 299 297 296 290 286 285 285 285 285 285 285 285
280 280 281 281 282 282 281 281 281 281 281 281 282 282 283 285 285 290 291 292 293 290 290 291 293 293 295 294 295 296 295 291 292 288 285 284 284 285 284 282 283 284 283
279 280 280 280 281 281 282 282 281 280 280 281 282 282 283 284 285 286 287 288 290 289 289 289 292 292 293 292 291 291 288 288 287 286 285 284 284 283 282 282 280 281 280
279 280 280 280 280 280 281 280 280 282 283 282 283 283 282 283 285 289 288 287 287 288 289 289 287 286 287 287 287 287 288 287 285 284 283 283 282 281 280 281 280 280 278
279 280 280 280 280 280 279 279 284 286 287 287 287 286 285 288 289 289 288 290 289 289 287 284 283 283 284 285 285 285 286 287 284 283 282 282 281 280 279 280 280 280 279
278 279 279 280 279 278 278 279 278 282 286 286 286 287 287 287 287 287 288 288 287 287 283 282 282 282 283 285 285 285 284 286 283 282 282 281 280 280 280 279 279 279 278
279 283 280 279 279 279 279 279 280 279 279 280 284 285 286 286 286 287 287 285 281 283 281 281 281 282 283 284 285 284 284 283 282 281 281 280 280 280 279 279 279 278 276
279 279 279 279 280 281 280 280 279 279 279 279 280 282 284 285 286 286 285 280 279 280 280 280 281 282 283 284 285 285 283 282 281 280 280 280 280 280 279 279 279 278 276
278 282 282 280 279 279 279 279 279 278 278 278 279 279 280 281 280 279 279 279 278 280 280 280 281 281 283 283 284 284 283 282 280 280 280 280 280 280 279 278 276 274 271
279 279 282 279 278 279 279 278 278 278 278 279 279 280 284 281 279 279 278 278 278 280 280 280 281 281 281 282 284 283 282 281 280 280 280 280 280 279 278 276 275 274 272
279 279 279 278 279 278 278 279 278 278 278 278 278 280 283 280 280 279 278 278 278 280 280 280 281 279 280 281 283 282 282 280 280 280 280 279 279 278 276 275 274 271 270
279 278 278 278 278 280 278 278 278 278 277 278 278 278 278 278 279 279 278 278 279 279 279 281 279 278 280 282 284 283 282 280 280 281 279 279 278 276 275 272 271 270 269
278 278 278 279 278 278 278 277 277 278 278 278 277 277 277 278 279 278 278 278 278 278 279 279 278 278 280 281 283 283 282 281 282 281 280 278 276 275 273 271 270 267 268
279 278 278 278 277 277 277 277 277 277 277 276 276 277 277 278 277 277 277 277 277 277 278 278 277 278 279 280 282 282 282 283 281 281 280 275 273 271 270 268 268 267 267
278 278 278 278 277 277 277 276 275 274 274 275 276 275 276 276 277 276 275 275 277 278 276 277 277 278 278 282 282 282 284 284 283 282 278 275 273 271 270 269 268 269 267

GFSGL_sfc_thetae_006.txt.gz
Theta_e
302 302 301 302 302 301 300 301 300 300 301 301 302 302 303 304 303 303 303 304 304 305 306 306 308 310 311 312 314 314 313 313 309 311 316 319 318 315 314 313 314 314 314
299 299 299 300 299 297 297 297 298 297 298 298 300 300 300 299 300 301 301 302 302 300 301 303 305 308 308 309 310 309 310 311 310 307 311 313 314 317 316 315 312 312 313
297 296 296 296 294 293 293 294 295 295 295 296 296 296 296 297 299 299 300 300 299 300 301 303 304 305 304 305 306 306 307 309 310 308 308 311 312 314 311 310 312 310 310
294 293 293 291 291 291 291 291 292 292 292 292 293 292 294 296 295 297 299 296 299 300 303 304 303 300 300 302 303 303 305 306 307 306 307 307 309 310 308 309 305 301 304
290 290 290 290 289 289 289 289 289 290 290 290 290 290 291 294 293 297 294 294 297 300 299 296 297 298 301 303 300 298 302 301 301 302 303 306 307 306 303 303 303 307 301
288 288 287 286 286 286 286 286 287 287 287 288 287 288 290 289 295 298 296 293 297 295 292 293 296 297 300 298 299 300 300 299 299 299 299 300 302 305 307 308 307 303 301
286 284 284 284 284 284 285 285 284 284 285 285 285 286 285 287 294 296 297 292 291 292 291 290 291 295 294 291 294 298 296 299 301 298 297 297 299 302 306 305 305 305 304
283 282 283 283 283 283 283 283 283 283 283 283 284 284 285 285 292 294 296 288 286 287 289 289 291 292 291 293 292 292 292 294 296 297 297 297 299 301 303 302 303 302 290
281 281 282 282 282 282 281 281 282 282 282 282 283 283 283 284 291 294 291 286 286 287 288 289 292 291 294 295 291 290 291 293 298 300 300 300 301 302 303 301 298 293 289
280 281 282 282 281 281 281 281 282 282 282 283 282 283 285 283 288 290 289 286 285 286 287 289 293 292 293 293 290 290 290 292 294 295 296 298 300 300 299 296 297 295 291
281 281 281 281 281 281 281 281 281 281 281 281 281 282 282 284 285 290 290 287 286 286 287 288 288 291 292 292 293 292 292 293 293 291 292 295 296 289 288 288 288 292 289
280 280 280 280 281 282 280 280 280 280 280 280 280 281 283 284 288 288 290 290 290 286 286 286 287 291 292 294 293 294 294 292 289 288 288 288 288 287 286 285 285 286 286
279 279 279 280 280 280 279 279 279 280 279 279 280 281 282 284 284 288 290 290 290 287 286 288 289 290 290 289 290 291 291 287 286 285 286 286 287 285 283 283 283 283 282
278 278 279 279 280 280 280 280 279 278 279 279 280 280 281 282 283 285 286 285 287 287 287 285 287 287 287 287 287 287 286 286 286 286 285 286 285 283 281 282 281 281 279
277 278 278 279 279 279 280 279 279 280 282 281 281 282 281 281 283 287 286 285 286 285 285 283 283 281 281 282 283 284 285 286 285 285 285 284 283 281 280 281 281 280 278
278 278 278 279 279 279 278 278 283 284 286 286 286 284 283 286 287 287 287 288 287 286 281 280 279 279 279 280 281 282 284 285 284 284 283 283 281 280 279 280 280 279 277
277 278 278 279 278 278 278 277 277 281 284 284 285 285 285 285 285 285 286 287 285 284 278 279 278 278 279 280 280 282 282 284 285 283 282 281 281 279 280 279 280 279 278
277 282 279 278 278 278 278 279 279 278 277 278 282 283 284 285 284 285 286 284 279 280 278 279 277 278 279 280 280 280 281 283 283 282 281 280 280 280 279 279 279 278 276
278 278 278 278 279 280 279 279 278 278 278 277 278 281 282 284 284 285 284 279 277 277 278 277 278 278 279 280 278 280 281 282 283 281 280 280 279 279 279 279 279 279 276
277 281 281 279 278 278 278 278 278 277 277 277 278 278 279 280 279 278 279 279 278 278 278 277 277 278 280 278 278 279 280 282 282 280 280 279 280 280 279 278 278 276 274
278 278 281 278 277 278 278 278 277 277 277 277 277 279 283 279 277 277 278 278 278 277 277 277 277 278 279 278 278 279 280 281 281 280 279 279 279 278 277 277 276 274 272
278 278 278 277 278 278 278 279 278 277 277 277 277 278 282 277 276 276 279 278 277 278 278 277 277 279 278 277 277 279 279 281 280 280 279 279 278 277 276 274 273 271 270
278 277 277 277 278 279 278 278 278 277 277 277 278 277 276 276 276 276 277 277 277 277 278 277 278 278 278 278 279 279 280 281 281 280 279 278 277 276 275 272 270 270 270
278 278 278 278 278 278 278 277 277 278 278 277 276 276 276 276 276 276 277 277 277 277 277 277 278 277 277 278 279 279 282 282 281 281 280 277 277 275 272 270 269 267 267
278 277 277 277 277 277 276 276 276 277 276 276 276 276 276 276 276 276 276 276 275 275 276 277 277 277 277 277 278 280 282 284 281 280 278 276 273 270 269 268 267 268 267
277 277 276 275 275 275 275 274 274 274 274 274 275 275 275 275 275 275 275 275 275 275 274 276 277 276 277 278 280 283 285 284 282 281 277 274 272 270 270 268 268 269 268

GFSGL_sfc_thetae_009.txt.gz
Theta_e
297 297 296 296 295 294 293 293 293 294 294 294 294 295 294 294 295 297 296 297 298 298 297 299 299 302 304 305 305 305 304 305 302 304 307 309 310 311 313 315 314 315 315
295 294 294 292 291 290 290 291 291 290 291 291 291 291 290 291 293 293 292 296 294 293 296 297 299 303 302 301 300 300 302 302 300 298 302 304 306 310 311 312 313 315 314
292 292 290 289 288 288 288 289 288 288 288 288 288 288 288 289 291 290 291 293 291 291 294 296 300 298 297 295 296 299 299 297 298 298 300 303 304 307 308 310 311 313 314
290 289 287 286 286 286 286 286 286 287 286 286 287 286 287 288 288 288 290 290 290 292 295 298 294 293 294 294 296 292 292 293 294 294 295 298 300 302 304 304 305 308 306
287 286 285 285 285 284 284 284 285 285 285 285 285 285 285 286 287 288 289 289 290 288 288 290 290 292 294 297 295 292 291 291 292 290 292 294 294 296 297 301 301 304 306
285 283 284 283 283 283 283 283 283 283 283 283 283 283 283 285 290 291 291 290 288 285 284 286 288 290 291 296 296 296 294 291 289 289 290 290 292 294 296 297 297 296 296
282 282 282 282 282 282 282 282 281 281 282 281 282 282 282 283 289 291 292 288 285 285 285 286 287 289 290 291 293 295 294 294 294 291 290 291 292 294 295 294 294 295 297
281 281 281 281 281 281 281 280 280 281 281 281 281 282 282 283 288 290 290 286 285 285 286 286 286 287 289 290 290 289 289 289 290 292 293 294 295 296 297 297 296 296 298
280 280 280 280 280 280 280 279 280 280 280 280 281 281 281 281 287 289 288 285 285 285 286 287 287 287 290 291 288 287 286 287 292 296 296 296 297 296 296 296 294 293 293
279 279 280 280 280 279 279 279 280 280 280 281 281 281 283 281 286 288 288 286 284 285 287 287 289 288 290 291 287 286 286 288 291 291 290 291 292 292 295 294 292 288 289
279 279 280 280 279 279 279 279 280 279 280 279 279 280 281 283 284 288 289 286 285 286 285 284 285 289 290 289 290 287 287 289 289 288 287 287 288 289 289 290 289 287 285
279 279 279 278 279 281 278 278 279 278 278 278 278 279 282 283 286 287 288 289 289 284 284 285 285 288 288 288 287 288 288 289 287 285 284 285 286 286 287 287 285 285 285
277 277 277 278 278 278 277 278 278 278 278 277 278 279 280 282 282 287 288 289 288 285 285 286 286 286 286 284 285 287 287 284 284 283 284 284 285 286 286 283 284 283 281
276 276 277 277 279 279 278 278 278 277 277 278 279 280 280 281 281 282 284 284 286 285 286 282 283 284 284 283 282 283 283 283 283 283 283 285 285 284 283 282 281 281 279
276 277 277 277 277 277 278 278 278 279 280 280 280 280 280 279 281 285 285 283 283 286 284 280 278 279 278 278 279 281 281 282 282 282 283 283 282 282 281 281 281 280 278
277 277 277 278 277 278 278 277 282 283 285 285 285 283 282 284 286 286 286 286 287 285 280 277 276 277 277 277 278 278 280 280 280 281 283 282 281 281 281 280 280 279 277
276 277 277 278 277 277 277 277 276 280 283 284 284 284 284 284 285 284 285 285 285 283 278 276 276 276 277 277 277 278 278 278 280 280 282 282 281 280 280 279 280 279 277
276 281 278 277 277 277 277 278 278 277 277 277 281 282 283 284 283 284 284 283 278 279 278 276 276 276 277 276 277 278 277 278 279 280 282 280 280 279 279 279 279 277 276
277 277 277 278 278 279 278 278 278 277 277 277 278 280 281 283 283 283 282 276 276 277 277 276 277 277 277 276 277 277 277 277 279 280 281 280 279 279 279 279 279 279 277
277 280 280 278 278 278 277 277 277 277 277 277 277 277 278 279 278 276 276 276 277 277 276 276 277 277 276 276 277 277 276 277 278 280 280 279 279 279 279 278 278 276 275
277 277 280 278 277 277 277 277 277 277 277 277 276 278 282 279 276 275 275 276 276 276 276 277 277 276 276 277 277 276 276 276 278 280 279 279 279 277 277 277 275 275 273
277 277 277 277 277 277 277 278 278 277 277 276 276 278 281 277 275 275 276 276 276 277 277 277 276 276 277 277 276 276 276 276 278 280 279 278 277 277 276 274 273 271 270
277 276 276 277 278 279 278 278 277 277 277 277 277 277 276 276 276 276 276 276 276 276 276 276 276 276 277 277 277 277 276 277 280 280 279 277 276 275 274 272 270 268 268
277 277 277 277 277 277 276 276 276 276 276 276 276 276 276 276 276 275 275 276 276 276 275 276 276 276 276 277 277 278 279 281 281 280 279 277 275 273 271 268 268 266 268
277 276 276 276 275 274 274 274 274 275 275 275 275 275 276 276 275 275 275 275 275 274 275 275 276 276 276 276 277 278 280 284 281 279 277 274 271 268 267 268 268 267 268
276 275 274 274 273 273 273 273 273 273 273 274 275 275 275 275 275 275 275 275 274 274 273 275 276 276 276 277 278 280 286 284 281 280 275 272 270 269 270 268 269 274 274

GFSGL_sfc_thetae_012.txt.gz
Theta_e
293 292 290 289 289 288 288 288 287 288 288 288 287 288 287 287 288 288 290 289 291 291 290 290 292 295 298 298 299 296 294 296 295 296 296 297 297 300 305 308 309 310 312
292 290 288 287 286 285 285 286 286 285 286 286 286 286 286 286 286 287 286 287 289 287 289 290 292 296 292 294 294 291 293 297 290 288 291 293 295 296 299 302 304 307 309
289 286 285 284 283 283 283 284 285 284 284 284 284 284 284 285 285 285 285 287 287 288 289 288 286 289 288 288 288 289 294 293 290 289 289 293 292 293 297 298 299 300 304
286 284 283 283 282 282 283 283 283 283 282 283 283 283 283 284 284 285 286 286 287 289 287 285 285 285 286 287 287 288 293 290 289 289 289 289 289 292 293 292 292 296 297
283 282 282 283 282 282 282 282 282 282 282 282 282 282 282 283 284 285 286 286 286 286 285 285 286 288 291 290 289 288 289 289 289 289 287 287 287 287 287 291 291 294 296
282 282 282 282 282 281 281 281 281 281 281 281 281 281 281 283 288 290 289 286 286 284 284 285 286 288 288 292 292 292 291 288 287 286 286 284 285 286 289 291 292 291 289
282 281 281 281 281 281 281 280 280 280 280 280 280 280 280 281 287 289 290 286 285 284 284 284 285 287 288 287 290 291 290 291 291 287 285 285 285 288 291 289 289 290 290
280 279 280 280 280 280 279 279 278 279 279 279 279 280 280 281 287 288 289 285 284 285 285 285 285 286 287 287 286 286 287 286 286 288 288 288 290 292 291 291 290 290 291
281 279 279 279 279 279 278 278 278 278 279 279 280 280 279 280 286 287 287 284 284 284 285 286 287 285 288 290 286 285 284 285 289 290 292 292 293 293 292 289 286 286 286
280 278 279 279 278 278 277 278 278 278 279 280 279 279 281 280 284 287 286 284 283 283 285 286 287 286 289 289 284 283 282 281 283 285 286 288 288 288 290 289 287 284 284
278 278 278 278 277 277 277 277 278 278 278 278 278 279 279 281 282 287 287 284 283 284 283 282 283 288 288 287 287 283 282 285 285 283 283 284 285 286 287 287 287 285 283
278 277 277 277 278 279 277 277 277 277 277 277 277 278 280 281 285 285 287 287 287 284 282 282 284 287 285 285 285 285 286 285 281 281 281 282 283 284 285 286 286 286 285
276 276 276 277 277 277 276 277 277 277 277 276 277 278 279 281 281 285 286 287 287 284 283 286 285 284 284 282 283 284 283 280 280 279 279 281 282 284 285 284 285 284 282
275 275 276 275 278 277 278 278 276 276 276 277 278 279 279 280 280 281 283 283 285 284 285 283 282 282 282 281 280 279 278 279 279 280 279 280 281 282 282 283 282 280 278
275 276 276 277 275 276 277 276 277 278 279 279 279 280 279 279 280 284 284 282 283 284 283 280 278 277 276 277 277 277 277 278 279 278 278 278 279 281 281 282 281 280 278
275 277 277 277 276 277 276 276 281 283 284 284 284 283 282 284 285 285 285 285 285 284 279 277 276 276 275 276 276 276 276 277 278 277 277 278 278 280 279 281 280 279 277
275 276 276 277 276 275 276 276 276 279 282 283 283 283 284 284 284 284 284 284 283 281 276 277 275 275 275 275 276 275 274 277 278 277 277 278 279 280 279 279 279 279 276
275 280 277 276 276 277 277 277 277 276 276 277 281 282 283 283 283 283 284 281 276 277 276 276 275 275 275 275 275 275 275 277 277 277 277 277 280 279 278 278 278 277 276
276 276 276 277 277 279 278 277 277 277 277 276 277 280 281 282 283 283 281 276 274 274 275 275 276 275 276 275 275 275 276 276 277 276 277 279 279 279 278 279 279 279 277
276 279 280 278 277 277 277 276 276 276 276 277 277 276 277 279 278 275 276 275 275 275 275 275 276 276 275 275 275 276 276 276 276 276 277 279 278 278 278 277 277 275 275
276 276 279 277 276 277 277 276 277 277 277 276 276 278 282 278 275 275 275 275 275 275 275 275 275 275 275 275 275 275 275 275 276 276 278 278 277 276 276 276 275 274 273
276 276 276 276 277 277 277 278 277 276 276 276 276 277 280 276 275 275 276 275 276 276 276 276 275 275 275 275 275 275 275 275 276 277 279 278 276 276 275 274 273 272 272
276 276 276 276 277 278 276 276 276 275 275 275 275 275 275 275 275 275 275 275 275 276 276 276 275 275 276 276 277 276 275 275 277 279 278 276 276 274 272 271 270 271 272
276 276 276 276 276 276 275 274 274 275 275 275 274 275 275 275 275 275 275 275 275 275 275 275 275 274 275 276 276 277 277 278 281 279 275 272 270 270 270 271 271 271 271
276 275 275 274 274 273 273 273 273 274 273 274 274 274 275 275 275 275 275 275 275 274 274 274 274 275 275 275 276 277 278 285 280 276 272 269 270 272 272 272 271 267 267
275 275 274 273 272 272 272 272 272 272 272 273 274 274 274 274 274 275 275 275 274 274 273 274 274 275 275 276 277 280 285 284 279 279 273 272 273 275 272 268 271 275 274

GFSGL_sfc_thetae_015.txt.gz
Theta_e
291 290 289 288 288 288 288 288 288 288 288 287 287 287 287 287 287 287 288 288 288 289 290 291 292 292 291 292 295 294 293 291 288 292 297 298 296 296 298 299 300 300 305
289 288 287 287 287 286 286 286 287 286 287 286 286 286 286 286 286 286 286 287 287 288 289 291 289 288 287 289 290 289 290 291 290 289 294 293 293 295 297 296 297 301 301
287 286 286 285 285 285 285 286 286 285 285 285 285 285 285 285 285 286 286 287 288 288 289 288 287 287 286 288 288 289 290 290 291 289 289 292 293 295 293 294 295 296 299
286 285 285 285 285 285 285 285 285 285 284 284 284 284 284 284 285 286 287 287 288 288 288 287 287 287 286 288 288 289 289 289 290 288 288 289 290 292 291 288 290 293 294
285 284 284 285 285 284 284 284 284 284 284 284 283 283 284 284 284 286 287 287 287 287 287 287 287 288 290 290 289 288 289 288 287 287 286 287 287 287 287 289 287 290 293
284 283 284 284 284 284 284 283 283 283 283 283 282 282 282 283 286 288 288 287 287 286 286 286 287 288 289 291 290 290 290 287 286 286 285 284 285 287 288 288 288 286 286
283 282 283 283 283 283 283 282 282 282 282 282 282 282 282 283 286 288 289 287 286 285 285 286 286 287 289 288 289 290 290 289 288 286 284 284 285 286 287 287 286 287 287
282 282 282 282 282 282 281 281 281 282 281 281 281 282 282 282 286 287 288 286 286 285 285 286 286 287 287 287 287 287 286 286 287 287 286 286 287 288 288 288 288 288 289
281 281 281 281 281 281 280 280 281 281 281 281 281 281 281 281 285 286 287 285 285 285 286 286 287 286 287 289 287 284 283 284 287 287 288 289 289 289 289 287 285 284 283
280 280 281 281 280 280 280 280 281 281 281 281 280 281 282 281 284 286 286 285 284 284 285 286 287 286 288 289 285 283 281 282 284 284 285 285 286 286 288 287 286 283 283
280 280 280 280 280 280 280 280 280 280 280 280 279 280 281 282 283 286 287 284 284 284 284 284 284 287 289 287 286 282 282 284 283 282 282 282 283 284 286 286 287 284 283
279 279 279 280 280 280 279 280 280 279 279 278 279 279 281 282 284 285 286 286 286 284 283 284 284 288 286 285 283 284 285 284 280 279 280 280 281 282 283 284 284 285 286
278 278 278 279 279 280 279 279 279 279 278 278 279 279 280 282 283 285 286 286 286 284 284 286 286 284 284 283 282 283 283 280 278 278 278 279 281 281 282 283 284 285 285
277 278 279 278 280 280 279 279 278 278 278 279 279 280 280 281 282 283 283 284 285 284 285 282 282 282 283 281 280 280 279 279 278 278 278 280 281 280 280 282 282 283 283
278 278 278 279 278 278 279 279 279 280 281 280 280 280 280 280 281 284 284 282 283 284 282 280 279 279 278 278 278 278 279 279 278 278 278 278 279 279 279 282 283 282 281
277 278 278 279 278 278 278 278 281 282 283 283 284 283 282 283 285 285 284 285 285 283 279 277 276 277 276 276 276 276 277 278 277 277 278 278 278 278 279 282 282 281 279
277 277 278 279 277 277 277 277 277 280 282 282 282 283 283 284 284 283 284 284 283 281 277 276 276 276 276 276 276 276 275 277 277 277 277 278 278 278 280 280 281 279 278
277 280 278 277 278 278 278 278 278 277 276 277 281 282 283 283 282 283 283 281 277 278 276 276 275 276 276 276 276 276 276 276 276 277 277 277 277 279 279 280 279 278 277
277 277 278 278 278 279 279 278 278 277 277 277 278 280 281 282 283 283 281 277 276 276 276 276 276 276 276 276 276 276 276 276 277 276 276 277 279 279 279 279 279 280 278
277 279 280 278 278 278 277 277 277 277 277 277 277 277 278 279 278 277 277 277 276 276 276 276 276 276 276 275 275 275 275 275 275 276 276 277 279 279 278 278 277 276 276
277 277 279 277 277 277 277 277 277 277 276 276 276 277 280 278 276 276 276 276 276 276 276 276 276 276 275 275 275 275 275 275 275 276 277 279 279 278 277 277 276 276 276
277 277 277 277 277 277 277 278 277 276 276 275 276 276 279 276 276 276 276 276 276 277 277 276 276 276 275 275 275 275 275 275 276 277 278 279 278 277 276 275 275 276 277
277 276 277 277 277 278 276 277 276 275 275 275 275 275 275 275 275 275 276 276 276 276 277 276 276 275 276 276 276 276 275 275 277 279 278 277 276 276 275 274 274 275 276
277 277 276 276 276 276 275 274 275 275 275 274 274 274 275 275 275 275 275 276 276 276 276 276 275 275 275 275 276 277 277 279 282 278 275 275 275 276 276 276 276 274 275
277 276 276 275 275 274 273 273 274 274 273 273 274 274 275 275 274 275 275 276 276 275 275 275 275 275 275 275 276 277 280 284 281 277 276 275 276 276 276 276 276 277 276
276 275 274 274 273 273 273 272 272 273 273 273 274 274 274 273 274 275 275 275 274 274 274 275 275 275 275 276 278 282 283 282 280 280 278 278 278 278 278 278 279 280 281

GFSGL_sfc_thetae_018.txt.gz
Theta_e
295 294 293 292 291 291 291 291 291 291 290 290 290 290 290 289 290 289 289 290 289 290 291 291 291 293 291 290 290 290 289 290 288 290 292 294 293 295 296 296 298 297 299
293 292 291 291 291 290 290 290 290 289 290 289 289 289 289 289 289 288 288 289 289 289 289 290 289 290 289 289 289 288 289 290 289 287 290 291 291 292 294 294 295 295 295
291 291 290 290 290 289 289 289 289 289 289 289 288 288 287 288 287 288 288 288 289 289 289 289 289 288 287 288 288 289 290 290 290 289 288 291 291 292 291 292 292 292 294
290 290 289 289 289 289 289 288 288 288 288 288 288 287 287 287 287 287 288 288 289 289 289 289 288 288 287 287 288 288 289 288 289 288 288 288 289 291 291 289 289 292 292
289 289 288 288 288 288 288 288 288 288 287 287 287 287 287 287 286 287 287 288 288 288 288 288 288 288 289 289 288 288 288 287 287 287 286 286 286 286 286 288 287 289 290
288 287 287 287 287 287 287 287 287 287 287 287 286 286 286 286 287 288 288 287 287 287 286 287 287 288 288 290 290 290 289 287 286 286 285 283 284 286 287 286 286 285 283
287 286 286 286 286 286 286 286 286 286 286 286 286 285 285 285 287 287 288 287 287 286 286 286 286 287 288 288 289 289 289 290 289 286 284 284 284 286 286 285 286 285 285
286 285 285 285 285 285 285 285 286 286 285 285 285 285 284 284 286 287 287 287 286 286 286 286 286 286 287 287 287 287 288 287 287 286 286 286 287 288 287 286 286 286 288
285 285 285 285 284 284 284 285 285 285 285 284 284 284 283 284 286 286 286 286 285 285 286 286 286 286 287 288 286 286 285 285 286 287 287 288 287 287 287 285 284 282 283
284 284 285 285 284 284 284 284 285 285 284 284 283 284 284 283 285 286 286 285 284 284 285 286 287 286 287 288 286 284 282 282 283 284 285 285 285 285 286 285 285 281 282
284 284 284 284 284 284 284 284 284 284 283 283 283 283 284 284 285 286 286 285 284 284 285 285 286 287 287 286 286 283 283 283 283 283 282 282 283 284 284 285 285 282 280
284 284 284 284 284 284 284 284 283 283 282 282 282 282 284 284 285 286 286 286 286 284 284 285 285 286 285 284 284 285 284 284 282 280 280 280 281 281 282 283 283 283 284
283 283 283 284 284 284 283 282 282 282 281 281 281 281 282 283 284 286 286 286 286 284 285 286 286 284 283 283 283 283 283 281 280 279 279 279 280 281 282 282 283 284 284
282 283 283 283 283 283 283 282 281 281 281 281 281 281 282 282 283 284 284 285 285 285 285 284 283 283 282 282 281 281 281 280 279 279 279 280 280 280 280 282 281 282 282
282 283 282 282 282 282 282 282 281 282 282 281 281 282 281 281 282 284 284 283 284 284 283 282 280 279 279 279 279 280 280 280 279 279 278 278 279 279 280 281 281 282 282
281 282 282 282 282 281 281 281 283 283 284 284 284 283 282 284 284 285 284 284 285 284 280 278 278 278 278 278 278 278 279 279 278 278 278 278 278 278 278 280 282 282 279
281 281 281 281 280 280 280 280 279 282 283 283 283 283 283 283 284 283 284 284 283 282 278 278 277 277 277 277 277 277 276 277 278 277 277 277 277 278 279 281 280 280 279
281 281 281 280 281 280 280 280 280 279 278 279 282 283 283 283 282 283 283 282 278 279 278 277 277 277 277 277 277 276 276 276 276 277 277 277 277 278 279 279 280 280 279
281 280 280 281 281 281 280 280 279 279 279 279 280 281 282 282 282 282 282 278 277 277 277 277 277 277 277 277 277 276 276 276 277 276 276 277 278 279 279 279 279 279 278
281 280 280 280 280 280 279 279 279 279 278 278 278 278 279 280 279 278 278 278 277 277 277 277 277 277 277 276 276 276 276 276 275 276 277 278 280 280 279 278 277 277 278
280 280 280 280 279 279 279 278 279 279 278 278 277 278 280 278 277 277 277 277 277 277 277 277 277 277 277 276 276 275 275 275 276 277 278 279 280 279 278 278 277 279 279
280 279 279 279 279 279 279 279 278 278 277 277 277 278 279 277 277 277 277 277 278 278 278 278 277 277 276 276 276 275 275 276 277 278 279 280 279 279 279 278 278 279 280
280 279 279 279 279 279 278 278 277 277 277 277 277 276 276 276 276 277 276 277 277 278 278 278 277 276 277 277 277 277 277 277 279 280 280 277 278 279 279 279 279 279 279
280 279 279 278 278 278 277 277 277 276 276 276 275 275 275 276 276 275 276 277 277 277 277 277 277 276 277 277 278 279 280 281 283 282 279 278 279 280 280 280 280 279 279
279 278 277 277 276 276 276 276 276 275 275 275 274 275 275 275 275 276 276 277 276 276 276 276 277 277 277 277 277 279 281 283 282 281 281 280 280 281 281 281 281 282 281
278 277 276 276 276 276 275 275 275 275 274 275 275 275 275 275 276 276 276 275 275 275 275 276 276 277 277 278 279 281 283 283 284 284 282 282 282 282 283 283 283 283 283

GFSGL_sfc_thetae_021.txt.gz
Theta_e
298 297 296 294 294 294 293 292 291 291 291 290 290 290 290 290 290 289 289 289 289 289 290 290 290 291 290 290 290 290 289 288 284 287 290 292 291 290 291 293 293 293 294
297 295 294 294 293 292 291 291 291 290 290 290 290 289 289 289 289 288 288 288 288 288 289 289 289 290 289 289 289 288 288 288 286 284 287 288 288 290 290 290 291 292 292
295 294 293 292 292 291 290 290 290 289 289 289 289 288 288 288 288 288 287 287 287 288 288 288 288 288 287 288 287 287 287 288 288 286 285 287 288 289 288 288 287 289 291
293 292 291 291 290 290 290 289 289 289 289 289 288 288 288 288 288 287 287 287 287 288 288 288 288 288 287 286 286 286 287 287 286 285 285 285 286 288 287 284 284 287 287
291 290 290 290 289 289 289 289 289 288 288 289 288 288 288 288 287 287 287 286 286 286 287 288 288 289 290 289 287 287 286 286 285 284 284 284 285 283 282 284 283 284 285
290 289 289 288 288 288 288 288 288 288 288 288 288 287 287 287 289 289 288 286 286 286 286 287 287 289 288 289 290 290 289 285 283 283 283 283 282 282 282 282 282 281 280
289 288 287 287 287 287 287 287 287 287 287 287 287 287 286 286 289 289 288 286 285 286 285 285 286 287 287 287 288 289 289 289 289 284 282 282 280 282 283 282 283 282 280
287 287 287 286 286 286 286 286 287 287 286 286 286 286 285 285 288 288 287 286 285 286 285 285 285 285 286 286 286 285 286 286 285 285 284 283 283 284 284 284 282 282 283
286 286 286 286 285 285 285 285 286 286 285 285 285 285 284 284 287 287 287 285 285 284 285 285 285 285 287 288 285 284 282 282 286 287 287 287 287 287 286 283 280 279 278
286 285 286 286 285 285 285 285 286 285 285 285 284 285 285 284 287 287 287 285 284 284 285 285 287 286 288 288 284 282 279 280 282 282 282 283 283 283 285 283 282 278 278
285 285 285 286 285 285 285 285 285 285 284 284 283 284 284 285 285 287 287 285 284 283 283 283 284 287 288 287 286 281 281 283 282 280 280 280 281 281 282 282 282 280 278
285 285 285 285 285 285 285 285 284 284 283 282 282 282 284 285 286 286 287 287 286 283 282 283 284 287 286 285 284 284 285 284 280 279 279 278 279 279 280 280 281 281 282
284 284 284 285 285 285 284 283 283 283 282 281 281 281 282 284 284 286 286 286 286 283 283 284 287 284 284 282 283 283 283 279 278 278 277 277 278 279 280 280 281 281 282
284 284 284 284 284 284 284 284 282 281 281 281 281 281 281 282 282 283 283 284 285 284 285 284 283 282 282 281 280 280 279 279 278 278 277 278 278 278 278 280 279 279 279
283 283 284 284 283 283 283 282 282 282 283 281 281 281 280 280 281 284 284 282 282 284 283 281 279 278 277 277 278 278 278 278 278 277 277 276 277 277 278 279 279 280 280
282 283 283 283 283 282 282 281 285 285 285 285 285 283 283 284 285 285 284 284 285 284 280 277 276 276 276 276 276 276 277 278 277 277 276 276 276 276 276 278 281 280 279
281 282 282 282 281 281 281 280 279 282 284 284 284 284 284 284 284 284 284 284 283 282 277 276 276 276 276 276 276 276 275 276 277 276 276 276 276 277 277 279 278 279 279
282 283 282 281 281 281 281 280 280 279 278 279 283 283 284 283 283 283 283 282 277 278 277 276 276 276 276 276 276 276 276 276 276 276 276 276 276 277 277 278 277 277 277
281 281 281 281 281 281 281 280 280 279 279 279 280 281 282 282 282 282 281 277 276 276 276 276 276 276 276 276 276 276 276 275 276 275 275 276 277 277 278 277 277 279 280
282 282 282 281 280 280 280 279 279 279 279 278 278 278 279 279 278 277 277 277 276 276 276 276 276 276 276 276 276 276 275 275 275 275 276 277 278 279 278 277 277 276 278
281 281 282 280 280 280 279 279 279 279 278 278 277 279 281 278 276 276 276 276 276 276 276 276 276 276 276 276 276 275 275 275 276 276 277 278 279 277 278 279 278 278 279
280 280 280 280 280 279 279 279 278 278 278 277 277 278 280 277 276 276 276 276 276 277 277 277 276 276 276 276 276 276 275 275 276 277 278 279 277 277 279 279 279 279 279
280 280 280 280 279 279 278 278 278 277 277 277 277 276 276 276 276 276 275 276 276 276 277 277 276 276 276 277 277 277 276 277 279 281 279 278 277 278 280 279 279 278 278
280 280 279 278 278 278 277 277 277 277 277 276 276 276 275 275 275 275 275 276 276 276 276 276 276 276 276 276 277 278 278 280 282 282 281 279 279 280 280 280 280 279 278
280 279 278 277 276 276 276 276 276 276 276 275 275 275 275 275 275 275 276 276 275 275 275 275 276 276 276 276 276 278 280 285 284 284 283 281 281 281 282 281 281 279 277
278 277 276 276 276 276 276 275 275 275 275 275 275 275 275 275 275 275 275 275 274 274 274 275 275 275 275 277 278 280 284 286 285 286 284 283 282 282 282 282 282 282 282

GFSGL_sfc_thetae_024.txt.gz
Theta_e
293 291 289 289 289 288 287 286 286 286 286 286 286 286 285 285 285 284 284 285 284 284 285 286 286 287 287 287 287 287 285 285 282 284 285 287 287 286 287 288 290 289 290
291 290 289 289 288 287 286 286 286 285 286 285 285 285 285 285 285 284 284 284 283 283 284 285 285 287 285 286 286 285 284 285 283 281 284 285 285 286 286 286 289 290 289
291 289 288 287 286 285 285 286 286 285 285 285 285 285 285 285 285 284 284 283 284 284 284 284 285 285 284 285 284 284 284 285 285 284 282 285 285 286 285 287 287 286 287
289 288 287 286 285 285 285 285 285 285 284 284 285 285 285 285 285 285 284 284 283 284 285 285 285 285 284 284 284 284 285 285 284 283 283 283 283 285 285 283 282 283 282
288 287 286 286 286 285 285 285 285 285 285 285 285 284 284 285 286 285 285 284 283 283 284 284 285 287 290 288 286 285 284 283 283 283 282 282 282 281 281 281 279 280 281
287 286 286 286 285 285 285 284 284 284 283 284 283 283 283 285 289 290 288 284 283 283 282 284 284 286 286 289 289 289 288 285 283 282 281 280 279 280 281 280 279 278 277
286 285 286 285 285 284 284 283 282 282 282 282 282 282 281 281 288 289 289 284 283 283 283 283 283 285 285 284 287 289 288 289 288 283 279 279 279 281 281 280 280 280 279
285 286 286 284 283 283 282 281 281 281 281 280 281 281 281 282 288 288 288 284 283 283 283 283 283 283 284 285 285 284 284 284 283 283 281 282 283 283 283 282 281 280 280
285 284 284 283 282 282 281 280 280 280 280 280 281 281 280 281 287 288 287 283 283 282 283 283 284 284 286 288 284 283 282 281 284 286 287 287 286 286 285 281 278 277 276
283 283 282 282 281 280 280 280 280 280 281 282 281 280 283 280 286 288 287 284 282 282 283 283 286 285 287 288 284 281 279 278 280 282 280 280 281 281 284 281 280 276 276
283 283 282 282 281 280 280 280 280 279 280 279 279 279 279 281 282 287 287 283 282 282 282 282 282 286 288 287 286 280 280 282 281 278 277 278 279 280 280 280 280 278 276
282 282 281 280 282 283 279 279 279 278 278 277 277 279 280 281 285 285 287 286 286 282 281 281 282 286 285 285 283 284 284 283 278 277 277 277 277 277 278 279 279 279 280
280 280 280 281 281 280 279 278 278 278 277 277 278 278 279 281 281 285 286 286 286 283 282 284 286 284 283 281 282 283 282 277 277 276 276 276 277 277 278 278 279 280 280
279 279 280 279 280 279 280 279 277 276 277 278 278 278 279 279 280 281 282 282 284 282 284 283 282 281 281 280 279 278 277 277 277 277 276 277 277 277 277 278 277 278 279
278 278 279 279 278 278 278 277 277 278 280 280 279 279 278 278 280 285 284 282 282 283 282 278 277 276 275 276 276 276 277 277 277 277 276 275 276 276 276 278 278 279 277
277 278 278 278 278 278 277 278 283 284 285 285 285 283 282 284 285 285 285 284 285 284 278 275 275 275 274 275 275 275 276 277 276 276 275 275 275 275 275 278 278 277 276
277 277 277 278 277 276 277 277 276 280 284 284 284 284 284 284 284 284 284 284 282 281 275 275 275 275 275 275 275 275 275 276 276 275 275 275 275 275 276 276 278 277 276
277 282 278 277 277 277 277 277 277 276 276 277 281 283 283 283 283 283 283 281 276 277 275 275 274 275 275 275 275 275 275 275 275 275 275 275 275 276 276 277 277 276 277
277 277 277 277 277 279 278 277 277 277 276 276 277 279 281 282 283 282 281 276 275 275 275 275 275 275 275 275 275 275 275 274 276 274 275 275 276 276 277 277 277 279 279
277 282 281 277 277 276 276 277 277 276 276 276 276 276 277 278 276 275 276 276 275 275 275 274 275 275 275 275 275 275 274 274 274 275 275 276 277 278 276 276 278 277 277
276 276 281 277 276 276 277 276 276 276 276 276 275 277 281 277 274 274 275 275 274 274 274 275 275 275 275 275 275 274 274 274 275 275 276 277 278 276 276 277 278 279 279
276 276 276 276 276 276 276 277 276 276 275 275 275 276 280 275 275 275 275 274 275 275 276 276 275 275 275 275 275 274 274 274 275 276 277 279 278 278 277 278 278 278 277
276 276 276 276 276 278 275 275 275 275 275 275 275 275 275 275 275 274 274 274 275 275 276 275 275 274 275 275 276 275 274 275 276 277 278 280 279 278 279 279 279 278 278
276 276 275 274 274 275 274 274 275 276 275 275 274 274 274 275 274 274 274 275 275 275 275 275 274 274 274 275 275 276 277 278 279 282 283 281 279 279 280 280 279 276 278
276 275 274 273 273 273 273 273 274 274 274 274 274 274 274 274 274 274 274 274 274 274 273 274 274 274 274 274 275 276 278 283 285 284 284 281 279 278 280 279 278 279 277
274 274 273 272 272 272 273 272 272 273 273 274 274 274 274 273 273 274 273 273 273 272 272 273 273 274 274 275 276 279 284 287 287 287 284 282 281 280 280 279 280 279 278

GFSGL_sfc_thetae_027.txt.gz
Theta_e
289 288 287 287 287 286 285 285 284 284 284 284 284 284 284 284 284 283 283 283 282 282 282 283 283 284 284 285 285 285 284 283 280 282 284 285 285 285 286 287 288 287 288
289 288 287 287 285 284 284 284 285 284 284 284 284 284 284 285 284 283 282 282 281 281 282 282 283 285 283 284 284 283 283 283 282 280 283 284 284 285 285 285 286 287 288
288 287 286 285 284 284 284 284 285 284 284 284 284 284 284 285 284 283 282 281 282 282 282 282 283 283 282 283 283 283 283 284 284 283 282 284 284 286 284 285 285 285 287
287 286 285 284 284 284 284 284 284 284 284 284 284 284 284 284 283 283 282 282 282 282 283 283 283 283 282 283 283 283 285 283 283 282 281 283 283 284 284 280 280 282 281
286 285 285 285 284 284 284 284 284 284 284 284 283 283 283 283 285 285 284 283 281 281 282 283 283 285 288 287 285 283 283 282 283 283 281 282 281 279 278 279 278 280 281
285 285 285 285 284 284 283 283 283 283 282 282 281 281 281 284 288 289 288 284 282 281 281 282 283 285 285 288 288 288 287 284 282 282 281 278 278 278 279 279 279 279 277
284 284 285 286 284 283 283 282 281 281 280 280 280 280 279 280 288 289 289 284 282 281 281 282 282 284 285 283 286 288 287 289 288 283 280 279 278 279 280 280 279 278 278
284 285 285 284 283 282 281 280 279 279 279 279 279 279 279 281 287 288 288 283 281 281 281 282 282 282 283 284 283 283 284 284 283 283 281 281 282 283 282 280 279 279 279
283 283 283 282 281 281 279 278 279 279 278 278 279 279 278 278 286 287 286 282 282 281 282 282 283 283 285 287 283 283 281 280 283 285 286 286 285 285 284 280 278 276 275
282 282 282 282 280 279 278 278 279 278 279 280 279 278 281 278 284 287 286 282 281 281 282 282 285 284 286 288 283 281 277 277 280 281 278 279 281 280 284 281 278 275 274
282 282 282 281 279 279 279 278 278 278 278 277 276 276 277 279 280 286 286 283 281 282 281 281 281 285 288 286 285 279 279 282 280 277 277 277 278 279 279 279 279 277 275
282 281 280 279 280 281 278 278 277 277 276 275 275 276 277 278 284 285 286 286 286 282 281 280 281 286 284 283 282 283 284 282 277 276 276 277 276 276 277 278 279 279 279
280 279 279 280 279 279 277 277 276 276 275 276 276 277 278 280 279 284 286 286 286 282 282 284 284 283 282 280 281 282 282 277 276 276 276 275 276 277 278 278 279 279 279
278 278 278 278 280 278 278 277 275 275 275 278 278 278 278 279 279 280 282 281 284 283 283 280 280 280 280 280 278 278 277 277 277 276 276 276 277 277 276 277 276 277 278
277 277 277 278 277 277 277 276 276 277 279 279 279 279 278 278 280 284 283 281 282 282 281 277 276 276 275 275 276 276 277 277 276 276 276 275 275 276 276 277 276 277 276
277 277 277 277 276 276 275 276 282 283 284 284 284 282 281 284 285 284 284 284 284 283 277 275 274 274 274 274 275 275 276 276 276 276 275 275 275 275 275 277 277 276 276
276 276 276 277 275 274 275 276 275 278 283 283 283 283 283 283 283 283 284 283 281 280 275 274 274 274 274 274 275 275 274 275 276 275 274 275 275 275 276 275 276 277 276
276 281 277 276 276 275 275 276 276 276 275 276 280 281 282 282 282 283 282 280 275 276 275 274 273 274 274 274 275 274 274 274 274 275 275 274 275 275 275 276 276 276 278
277 276 276 276 276 278 277 276 276 276 276 275 276 278 280 281 282 281 280 274 274 274 274 273 274 274 275 275 275 274 274 274 275 274 274 274 275 275 275 276 275 279 280
276 280 280 277 276 276 276 276 276 276 275 275 275 275 276 278 275 274 275 275 274 274 274 274 274 275 274 274 274 274 273 273 273 273 274 275 275 277 277 276 276 276 277
275 276 281 275 275 276 276 276 275 275 274 274 274 276 281 276 273 274 274 274 273 274 274 274 274 274 274 274 273 273 273 273 273 274 274 275 276 278 278 278 277 278 277
276 275 276 275 276 276 275 276 275 274 274 274 274 276 279 275 274 274 274 274 274 275 275 275 274 274 274 273 273 273 273 273 274 274 274 275 276 279 279 278 278 278 278
276 275 275 275 275 277 274 274 274 274 274 274 274 274 274 274 274 273 273 274 274 274 275 274 274 273 274 274 275 274 273 274 275 275 275 276 279 279 279 278 278 278 277
275 274 274 273 273 274 273 273 273 275 274 274 274 274 274 274 273 273 274 274 274 274 274 274 273 273 273 274 275 275 276 276 277 279 282 282 280 279 279 278 277 278 278
274 273 273 272 272 272 272 272 273 273 273 274 274 274 273 273 273 273 273 273 273 273 272 273 273 273 274 274 274 275 277 282 284 285 285 282 281 280 278 277 276 278 277
273 272 272 271 271 271 272 271 271 272 273 273 273 272 273 273 273 272 272 272 272 271 271 272 273 273 273 274 275 278 283 286 287 287 284 283 282 281 280 278 279 276 277

GFSGL_sfc_thetae_030.txt.gz
Theta_e
287 286 286 285 285 284 284 283 283 283 283 283 283 283 283 283 283 282 282 282 281 281 281 281 282 282 282 283 283 283 282 282 279 281 283 284 284 284 286 286 287 286 287
287 286 285 285 284 283 283 283 284 283 283 283 283 283 283 283 283 282 281 281 280 280 281 281 281 284 281 282 282 282 282 282 281 279 282 283 283 284 284 284 286 288 286
287 286 285 284 283 283 283 283 284 283 282 283 283 283 283 283 283 282 281 281 281 281 281 281 281 281 281 281 281 281 282 283 283 281 280 282 283 284 284 284 283 282 284
286 285 284 283 283 283 283 283 283 283 282 282 282 283 283 282 282 282 282 281 281 281 282 282 281 281 281 281 282 282 283 281 281 281 281 282 282 283 283 279 279 280 280
285 285 284 283 283 283 283 283 283 283 282 282 282 281 281 282 283 284 284 282 281 280 281 281 282 284 287 286 284 283 282 282 282 282 280 280 281 279 278 279 278 279 280
285 284 284 284 284 284 283 282 282 281 281 281 280 280 279 282 287 289 287 283 281 280 280 281 282 285 284 288 287 288 286 283 281 280 281 278 278 278 279 278 278 278 275
284 284 284 285 284 282 282 281 280 279 279 279 279 278 278 278 287 288 289 284 281 280 280 281 281 283 284 282 285 287 286 288 287 282 278 278 278 278 280 279 278 277 277
283 283 285 284 282 281 280 279 279 279 278 278 278 278 277 279 286 287 288 282 281 280 280 280 280 281 282 283 282 282 284 281 281 281 280 280 282 282 280 280 279 279 279
283 283 283 282 280 280 279 278 278 278 277 277 278 277 276 277 285 286 286 281 281 280 281 281 282 281 285 287 284 281 280 279 282 284 286 285 284 284 283 280 277 275 274
283 282 281 281 280 279 278 278 278 277 277 278 277 276 280 277 283 286 285 282 280 280 281 282 285 283 286 287 282 279 276 277 280 280 278 279 280 280 283 280 278 274 274
281 281 281 280 279 278 278 277 277 277 277 275 275 275 275 277 279 286 286 283 281 282 281 280 280 285 286 285 284 278 278 282 280 276 276 277 278 279 279 279 279 277 274
281 280 279 278 280 280 277 277 276 276 275 274 274 275 277 277 283 284 286 286 286 281 280 280 282 285 284 283 281 283 284 282 277 276 276 276 276 276 277 278 279 279 279
279 278 278 278 278 277 276 276 275 275 274 274 276 277 278 279 277 284 285 286 285 282 281 283 284 283 282 280 281 282 281 276 276 276 275 275 276 277 277 277 278 279 279
277 277 277 277 278 276 277 276 274 274 274 277 278 277 277 278 278 280 281 281 283 282 283 279 280 280 280 279 278 278 277 277 277 276 275 276 277 276 276 277 276 276 276
277 277 276 277 276 276 276 275 275 276 278 278 278 278 277 277 279 283 283 281 281 282 281 277 275 275 274 275 275 276 276 276 276 275 275 275 275 275 275 276 276 277 275
277 277 277 277 275 276 274 274 280 282 283 283 283 282 280 283 284 284 284 284 283 282 277 274 273 273 273 274 274 275 275 276 275 275 274 274 274 274 274 276 276 276 275
275 276 276 276 274 274 274 274 274 278 282 282 282 282 283 282 283 283 283 282 281 280 274 273 273 273 273 274 274 274 273 274 274 274 273 274 274 274 275 274 275 276 275
276 281 277 275 275 275 275 275 275 275 274 275 279 280 281 282 282 283 281 279 274 275 274 273 272 273 273 273 273 273 273 273 273 273 274 273 274 274 274 274 276 275 277
276 276 276 276 276 278 276 275 275 275 275 274 275 277 279 280 282 280 279 274 273 273 273 273 273 274 274 274 273 273 273 273 274 273 273 273 274 274 274 275 277 279 279
276 280 280 276 275 275 275 275 275 274 274 274 274 274 275 278 274 273 274 274 273 273 273 273 273 274 273 273 273 273 272 272 272 273 273 273 274 275 274 276 278 276 277
275 275 280 275 275 275 275 274 274 274 273 273 274 275 280 276 273 273 273 273 273 273 273 273 273 273 273 273 273 272 272 272 273 273 273 274 274 274 275 279 278 278 278
276 275 276 275 275 275 274 274 273 273 273 273 274 275 278 274 273 273 273 273 274 274 274 274 273 273 273 273 273 272 272 272 273 273 274 274 275 275 277 278 278 278 278
275 275 274 274 274 275 273 273 273 273 273 273 273 273 274 273 273 272 273 273 273 273 274 273 273 273 273 274 274 274 273 273 274 275 274 275 276 279 279 278 277 278 277
274 273 273 272 272 273 272 272 272 274 274 273 273 273 273 273 272 272 273 273 273 273 273 272 273 273 273 273 274 275 275 275 276 278 280 283 281 281 279 278 277 278 275
273 272 271 271 271 271 271 271 272 272 272 273 272 273 272 272 272 272 272 272 272 271 271 272 272 273 273 273 273 274 276 282 285 284 284 283 282 282 281 279 274 275 276
272 271 271 271 270 270 270 270 270 271 271 271 272 271 271 272 272 271 271 271 270 270 271 272 272 273 273 274 275 277 283 286 286 287 283 281 282 281 282 275 276 277 276

GFSGL_sfc_thetae_033.txt.gz
Theta_e
287 286 285 284 284 283 283 283 283 283 282 282 282 282 282 282 282 281 281 281 280 280 280 280 281 281 281 281 281 281 281 280 278 280 282 284 284 283 284 285 286 285 286
286 285 284 284 283 283 282 283 283 282 282 282 282 282 282 282 281 280 280 280 280 279 280 280 280 283 280 280 280 280 280 281 279 278 281 282 281 283 283 283 285 287 288
286 284 283 283 282 282 282 283 283 282 281 282 282 281 281 282 281 280 280 280 280 280 280 280 280 280 279 280 280 280 281 283 282 281 279 282 282 283 283 284 283 283 283
285 284 283 282 282 282 282 282 282 282 281 281 281 281 281 281 281 281 281 281 280 281 281 281 280 280 280 280 282 282 283 281 281 280 280 281 282 283 283 279 278 280 280
284 284 283 283 283 282 283 282 282 281 281 281 280 280 280 280 282 283 283 281 280 279 280 280 281 283 286 286 284 282 282 281 281 280 279 280 278 278 276 278 278 279 280
284 283 283 283 283 284 283 281 280 280 280 279 279 278 278 281 286 288 287 282 280 279 279 280 280 283 283 287 287 287 286 282 281 281 278 277 276 277 278 278 278 277 274
283 283 283 284 284 283 282 280 280 278 278 278 278 278 277 277 286 288 288 282 280 279 279 280 280 282 283 281 284 286 286 287 285 281 277 276 276 278 280 279 277 277 276
282 283 284 284 283 281 279 278 278 277 277 277 277 277 276 278 286 287 287 281 279 279 279 279 279 280 281 283 282 284 280 280 280 280 279 280 282 282 280 280 279 279 279
282 282 283 283 280 279 278 277 277 277 277 276 277 276 275 276 284 286 285 281 280 279 280 280 282 282 284 287 283 279 279 278 282 284 286 285 284 284 283 280 277 275 274
281 283 282 280 279 278 277 277 277 276 277 277 276 276 278 276 282 286 285 281 280 280 281 281 284 283 286 287 281 279 276 276 279 280 278 278 280 280 283 280 278 274 274
281 280 279 278 278 278 277 277 276 275 276 274 275 275 275 277 278 285 286 282 281 281 279 280 281 285 286 285 284 278 278 282 280 276 276 277 278 278 279 279 279 277 274
280 279 278 277 279 279 276 275 275 275 274 274 274 275 277 277 282 284 286 286 286 280 280 280 281 285 284 283 281 283 284 282 276 276 276 276 275 276 277 277 278 278 279
278 277 277 278 277 277 275 275 274 274 274 274 276 276 277 279 277 283 285 286 285 282 281 283 284 283 282 279 280 282 281 276 275 275 275 274 275 276 277 277 278 278 278
276 276 276 276 277 275 277 276 274 274 274 277 277 277 276 277 277 279 280 280 283 282 282 279 280 280 280 279 277 277 276 276 276 275 274 275 275 275 275 276 275 275 276
276 276 276 277 275 275 275 274 274 275 278 278 277 277 276 276 278 283 282 281 281 282 281 276 275 274 274 274 275 275 275 276 275 274 274 273 274 274 274 275 275 275 274
276 277 277 276 274 275 274 274 280 282 283 283 283 281 280 282 284 284 284 284 283 282 277 273 273 273 273 273 273 274 274 275 274 274 273 273 272 273 273 275 275 275 275
275 276 276 275 274 273 273 275 274 277 281 282 282 282 282 282 282 283 283 282 281 279 273 273 272 272 272 273 273 273 272 273 274 273 272 272 273 272 273 273 274 275 276
276 281 276 274 274 274 275 275 274 274 274 274 278 280 281 281 282 282 281 279 273 274 273 272 272 272 273 273 273 273 272 273 272 272 273 272 272 272 272 273 274 274 277
276 276 276 276 275 277 275 275 274 274 274 273 274 276 278 280 282 280 279 273 273 272 273 272 273 273 273 273 273 273 272 272 274 273 272 272 272 273 272 273 274 279 280
276 280 279 276 275 275 275 274 274 273 272 272 273 273 274 277 274 273 274 273 273 272 273 272 273 273 273 273 272 272 272 272 272 272 272 272 273 273 273 274 274 276 277
275 275 279 275 274 275 274 274 273 273 273 273 273 275 279 276 272 272 273 272 272 272 272 272 272 272 272 272 272 272 272 272 272 272 272 273 274 273 274 275 276 278 278
275 275 275 274 274 273 273 273 272 273 272 272 273 274 278 274 273 273 272 272 273 273 273 273 272 272 273 272 272 272 272 271 272 273 273 274 274 275 276 276 278 278 278
274 273 273 273 273 274 272 272 272 272 272 273 272 273 273 273 273 272 272 272 273 272 273 273 272 272 273 273 274 273 272 272 274 274 274 274 275 276 279 279 278 277 276
273 272 271 271 271 272 271 272 272 273 273 272 272 272 272 272 271 271 272 272 272 272 272 272 272 272 272 273 274 274 274 275 276 278 281 283 281 281 281 280 279 276 275
272 271 270 270 270 270 270 270 271 271 271 271 271 272 272 271 271 271 272 271 271 270 271 271 272 272 273 273 273 274 276 282 285 285 284 282 282 281 281 279 279 275 274
271 270 270 270 269 269 269 269 269 269 269 270 271 270 270 270 271 271 270 270 270 270 270 271 272 272 273 273 274 277 283 286 287 287 282 281 282 282 282 277 275 275 272

GFSGL_sfc_thetae_036.txt.gz
Theta_e
286 285 285 283 283 283 282 282 282 282 282 282 282 282 281 281 281 280 279 280 280 280 280 279 280 280 280 280 280 280 280 279 277 279 282 283 282 282 283 284 285 284 285
285 284 283 283 282 282 282 282 282 281 282 282 282 281 281 281 280 279 279 279 279 279 279 279 279 282 279 280 280 279 279 280 279 277 280 281 281 282 283 283 285 287 286
285 284 283 282 282 281 281 282 282 281 281 281 281 280 280 280 280 279 279 279 280 279 279 279 279 279 278 279 279 279 280 282 282 280 279 281 282 283 283 282 281 281 282
284 283 282 281 281 281 281 281 281 281 281 280 280 280 280 279 280 280 281 280 280 280 280 280 279 279 279 279 280 280 282 280 280 280 280 280 282 281 280 277 277 279 279
284 283 282 282 282 281 281 281 281 281 280 280 279 279 278 279 282 282 282 281 280 279 279 280 280 282 286 286 283 282 281 281 280 280 280 278 277 277 276 277 277 278 280
284 282 282 282 282 282 281 281 281 280 279 278 278 278 277 280 285 288 287 281 280 279 279 280 279 283 282 287 287 287 286 283 282 278 277 276 276 276 277 277 278 276 275
283 282 282 282 282 281 282 281 279 278 277 277 277 277 276 276 285 288 288 282 280 279 279 279 280 282 283 280 284 286 286 287 285 280 277 276 276 278 279 278 277 277 276
282 282 283 282 281 281 281 279 277 277 276 276 276 276 275 277 286 287 287 281 279 278 279 279 278 279 280 283 282 283 280 280 280 280 279 280 282 282 280 280 279 279 279
281 281 281 281 281 280 278 277 276 276 276 275 276 275 275 275 284 286 285 280 279 279 280 279 279 281 284 287 284 280 279 279 282 284 286 285 284 284 283 280 277 275 274
281 281 281 281 280 278 277 276 276 275 277 277 276 275 278 275 282 285 285 281 279 280 280 280 284 283 286 287 282 279 276 276 279 280 277 278 279 279 283 279 277 274 273
281 280 281 280 277 277 276 276 275 275 275 274 275 275 275 277 278 285 286 282 280 281 279 280 281 285 286 285 284 278 278 282 280 276 275 276 277 277 277 277 278 276 274
279 280 279 277 279 278 275 275 274 274 273 273 274 275 277 276 282 283 285 286 285 280 280 280 280 285 284 283 281 282 284 282 276 275 275 275 275 275 276 276 277 277 278
278 277 277 277 276 276 275 274 273 274 273 273 275 276 276 279 276 283 285 285 285 282 281 283 284 283 282 279 280 282 281 275 275 274 274 274 274 275 275 275 276 277 277
276 276 276 277 275 275 277 276 273 273 273 276 276 276 276 277 277 278 279 280 283 282 282 280 280 279 279 278 277 276 275 275 276 275 274 274 275 274 273 275 274 274 275
276 276 276 276 274 274 275 274 274 275 277 277 277 277 276 276 278 283 282 281 281 282 281 276 274 274 273 273 274 274 275 275 274 274 273 273 273 273 273 274 274 274 273
276 277 277 275 273 275 273 273 280 282 283 283 283 281 279 282 283 283 284 284 283 282 276 273 272 272 272 272 273 273 274 274 274 273 273 273 272 272 272 274 273 273 273
275 276 275 275 273 272 273 274 273 277 281 281 281 281 282 282 282 283 283 282 281 279 273 272 272 272 272 272 272 272 272 273 274 273 272 271 273 272 272 271 272 273 274
277 281 275 274 274 274 274 274 274 273 273 273 278 279 280 281 281 282 282 279 273 274 273 272 271 272 272 272 272 272 272 272 272 272 273 273 272 271 271 271 272 272 275
276 276 275 275 275 277 275 274 274 273 273 272 273 275 277 279 281 281 279 273 272 272 272 272 272 272 272 272 273 272 272 272 273 273 271 272 272 272 271 272 272 277 278
275 280 279 275 274 274 274 273 273 272 271 272 272 273 274 276 274 273 273 273 272 272 272 272 272 272 272 272 272 272 272 272 272 272 272 272 272 273 272 273 274 274 275
274 275 279 274 273 273 273 273 272 272 272 272 272 274 279 276 272 272 272 272 272 272 272 272 272 272 272 272 272 272 271 272 272 272 272 272 273 273 274 275 275 276 278
274 274 274 273 273 272 273 272 272 272 272 272 272 273 277 273 272 272 272 271 272 272 273 272 272 272 272 272 272 272 271 271 272 272 273 273 274 274 275 275 276 278 277
273 272 272 271 271 274 271 272 272 272 272 272 271 272 272 272 272 271 271 271 272 272 272 272 272 271 272 273 273 273 272 272 273 274 273 274 275 276 278 279 279 277 275
272 271 270 270 270 271 270 271 271 272 272 271 271 271 271 271 270 270 271 271 271 271 271 272 272 271 272 272 273 274 274 275 275 277 279 282 280 281 280 279 279 277 274
271 270 270 269 269 269 269 269 270 270 270 270 270 271 270 270 270 270 271 270 270 270 271 271 271 271 272 272 273 274 275 282 285 285 284 282 281 281 281 279 276 272 270
270 270 269 269 268 268 268 268 268 268 268 269 270 269 269 269 270 270 270 270 269 270 270 271 271 272 272 272 274 277 283 285 287 288 284 281 281 282 282 278 274 272 270

GFSGL_sfc_thetae_039.txt.gz
Theta_e
291 290 289 288 287 287 287 287 287 287 287 287 287 286 286 286 285 285 285 285 284 285 286 285 285 285 285 285 285 285 284 283 281 283 285 286 285 285 286 287 288 287 288
289 288 287 287 286 286 286 286 287 286 286 286 286 285 285 285 284 284 284 284 284 284 285 284 284 285 284 284 284 283 283 284 282 280 283 284 284 285 286 286 286 286 286
288 287 286 286 286 285 285 286 286 286 285 285 285 284 284 284 283 284 284 285 285 285 284 284 284 283 282 283 283 283 284 284 284 283 282 284 285 286 285 284 283 284 284
287 286 286 285 285 285 285 285 285 285 285 284 284 283 283 283 283 284 285 286 285 285 284 284 284 283 283 283 284 284 284 284 283 283 282 283 283 284 284 282 281 283 283
286 286 285 285 285 285 284 284 284 284 284 284 283 282 282 283 283 286 287 286 285 285 284 284 284 285 287 287 285 284 284 283 283 283 282 282 281 281 280 281 280 282 283
286 284 285 284 284 284 284 284 284 283 283 282 282 281 281 282 285 288 288 286 285 284 283 284 284 284 284 287 287 287 286 284 283 282 281 280 279 280 281 281 280 279 277
285 284 284 284 284 283 283 283 283 282 282 281 281 281 280 281 285 288 288 286 284 284 283 283 283 283 285 284 285 287 287 288 286 284 280 279 279 281 282 281 280 280 278
284 284 284 284 283 283 283 282 281 281 281 281 280 280 280 281 285 287 287 285 284 284 283 283 283 283 284 284 284 285 284 283 283 282 282 282 283 284 283 282 281 281 281
284 283 283 283 282 282 281 281 281 280 280 280 280 279 279 281 284 286 286 284 283 283 283 283 283 283 285 287 285 283 281 281 283 285 286 286 285 285 284 281 279 277 276
283 283 283 283 282 281 280 280 280 280 280 280 279 280 280 280 283 285 285 284 282 282 283 283 284 284 286 287 283 282 279 279 281 283 280 280 281 281 283 281 279 276 276
282 282 282 282 281 280 280 279 279 279 279 278 279 280 280 281 282 285 285 284 283 283 282 282 283 285 286 286 285 281 279 283 282 278 278 279 279 280 280 280 279 278 275
282 281 281 281 281 279 279 278 278 278 278 278 278 280 281 281 282 283 285 285 285 282 282 283 283 285 284 283 282 282 284 283 278 277 277 277 278 278 278 279 279 279 279
281 280 279 279 279 279 278 278 278 278 277 278 279 279 279 281 280 283 284 285 285 283 283 284 284 283 282 280 280 282 281 277 276 276 276 277 277 278 278 278 278 279 279
279 279 279 279 278 278 279 278 278 278 278 279 279 279 279 279 280 281 282 283 284 283 283 282 281 280 279 279 278 278 277 277 277 276 276 277 277 277 276 278 276 277 276
278 279 279 278 278 277 278 278 279 279 280 280 280 279 278 278 280 283 283 282 283 283 282 279 276 275 275 275 276 276 276 277 276 276 276 275 275 276 275 277 276 276 274
278 279 278 278 277 278 277 277 280 282 282 282 282 281 281 282 283 283 284 284 284 282 278 274 274 274 274 274 274 274 275 276 275 275 275 275 274 274 274 276 276 275 274
277 278 279 277 276 276 276 277 275 278 280 280 281 281 282 282 282 282 283 282 281 279 274 274 273 273 273 274 274 274 274 275 275 275 274 274 275 275 274 274 274 275 275
279 280 277 277 277 277 277 276 276 275 274 275 278 279 280 281 281 282 281 279 274 275 274 273 273 273 273 273 274 274 274 274 274 274 275 275 274 274 274 274 274 274 275
278 278 277 277 277 278 276 275 275 275 274 273 274 276 278 279 281 280 279 274 273 273 273 273 273 273 273 274 274 274 274 273 275 274 273 274 274 274 274 274 275 277 278
278 281 279 276 276 275 275 274 274 273 273 273 273 274 275 277 276 274 274 274 273 273 273 273 273 274 273 273 273 273 273 273 273 274 274 274 275 275 274 275 276 276 277
276 276 278 275 274 274 274 274 273 273 273 273 273 274 279 276 273 273 273 273 273 272 273 273 273 273 273 273 273 273 273 273 273 274 274 274 275 275 276 277 277 278 279
275 275 274 273 273 273 274 273 273 273 273 272 273 273 276 273 273 273 273 273 273 273 274 273 273 273 273 273 273 273 273 272 273 274 275 275 276 277 278 278 279 280 280
274 273 272 272 272 274 272 273 272 272 272 272 272 272 272 272 272 272 272 272 273 273 273 273 273 272 273 274 274 274 273 273 274 275 275 276 277 278 280 282 282 280 280
273 272 272 271 271 272 271 272 272 272 272 271 271 271 271 272 271 271 272 272 272 272 272 273 273 272 273 273 274 275 275 275 276 278 280 282 283 283 283 283 281 279 278
272 271 271 270 270 270 270 270 270 270 270 270 270 271 271 271 271 271 271 272 272 271 272 272 273 273 273 273 273 274 275 281 285 285 286 284 283 282 283 283 280 279 277
271 271 270 270 270 269 269 269 269 269 269 269 270 270 270 270 271 271 271 272 271 271 271 272 273 273 273 274 275 278 283 285 287 288 286 284 282 283 284 281 279 279 278

GFSGL_sfc_thetae_042.txt.gz
Theta_e
303 299 296 292 292 292 293 294 293 293 293 292 292 291 291 290 290 290 289 289 288 289 289 289 288 288 288 288 288 287 286 285 283 285 287 288 287 288 288 290 289 289 290
297 295 291 292 292 293 293 293 292 292 292 291 291 290 289 289 289 288 288 288 288 288 288 288 287 287 287 287 286 286 285 286 285 283 285 286 286 288 288 287 288 287 287
294 291 290 292 293 292 292 291 291 291 291 290 290 289 288 288 287 287 287 288 288 288 288 287 287 286 285 286 286 286 286 286 286 285 284 287 288 288 287 287 286 286 287
290 290 291 293 292 291 291 291 290 290 290 289 289 287 287 287 287 287 288 289 289 289 288 288 287 286 285 285 286 286 286 285 285 285 285 286 287 287 287 285 283 285 285
289 290 291 291 291 290 289 290 290 290 289 288 287 287 287 287 286 288 289 289 288 288 288 287 287 287 287 287 286 285 285 284 284 285 284 285 284 284 282 284 283 284 285
289 288 290 289 289 289 289 289 289 288 287 287 286 286 285 285 285 288 289 288 288 287 286 286 286 287 286 287 288 287 286 284 284 285 283 282 281 282 283 283 282 282 279
289 289 289 289 288 288 288 288 287 287 287 286 285 285 285 285 285 287 288 288 287 286 286 285 285 286 286 285 286 287 288 288 288 285 282 281 281 282 283 283 282 281 281
289 289 289 288 287 287 287 287 286 286 286 285 285 285 284 285 285 286 287 287 286 286 286 286 285 285 285 285 285 286 286 286 285 285 283 283 284 285 285 283 283 282 283
288 287 287 287 286 287 286 285 285 285 285 285 285 284 284 284 284 286 286 286 285 285 286 286 286 285 286 287 285 285 283 283 285 286 286 287 287 286 285 283 281 279 278
287 286 287 287 286 286 284 285 285 285 285 285 284 284 283 284 284 285 286 285 284 284 285 286 286 285 287 287 285 283 282 281 282 284 284 284 284 283 285 283 282 278 278
286 285 285 285 284 285 285 285 285 284 284 284 283 284 284 284 284 285 285 285 284 284 284 283 285 286 286 286 285 282 281 283 283 282 281 281 282 282 283 283 282 280 278
284 283 283 283 284 285 285 284 284 284 283 283 283 283 284 284 284 284 285 285 286 283 283 284 285 286 285 284 283 283 284 284 281 279 279 279 280 281 282 282 281 281 281
283 283 283 284 284 284 284 284 284 283 282 282 282 282 282 283 283 284 285 285 286 284 284 285 285 284 283 282 282 282 282 280 279 278 278 279 280 281 281 280 281 282 281
283 284 284 284 283 284 284 284 283 283 282 281 281 281 281 282 282 283 283 284 285 284 285 284 283 282 281 281 280 280 280 280 279 278 278 279 280 280 279 280 279 278 278
284 284 284 284 283 283 283 283 283 283 283 281 281 281 280 280 281 284 284 283 284 284 283 281 279 278 278 278 278 279 279 279 278 278 278 278 278 278 278 280 279 279 277
283 283 283 283 283 282 282 282 281 281 282 282 282 281 281 283 283 283 284 284 284 283 279 277 277 277 277 277 276 277 277 278 278 278 277 277 277 277 277 279 279 278 276
284 283 282 282 282 281 281 280 279 281 280 280 280 281 282 281 282 282 283 282 282 280 277 276 276 276 276 276 276 277 277 278 278 277 277 277 277 278 277 277 278 278 278
283 282 282 282 281 281 280 279 279 278 277 278 280 280 280 281 281 282 281 280 277 277 277 276 276 276 276 276 276 277 277 277 277 277 277 277 277 277 277 277 278 277 278
282 282 282 281 281 280 279 278 278 277 277 277 278 279 279 280 281 281 280 276 275 275 276 276 276 276 276 276 277 277 276 276 277 277 276 277 277 277 277 277 278 279 280
283 281 280 280 279 278 278 278 277 277 277 277 277 277 277 278 277 276 276 276 276 275 275 275 276 276 276 276 276 276 276 276 276 276 277 277 278 278 277 278 279 279 280
280 280 278 278 277 277 277 277 276 276 276 276 276 277 279 277 275 275 275 276 275 275 275 275 276 276 276 276 276 276 276 276 276 276 277 277 278 278 279 280 281 281 281
279 278 277 277 276 277 277 276 276 276 275 275 276 276 277 275 275 275 275 276 276 276 276 276 276 276 276 276 276 275 275 275 276 276 277 277 278 279 280 281 282 283 281
278 277 276 276 276 276 276 276 276 275 275 275 275 274 275 274 275 275 275 275 276 276 276 276 276 275 276 277 277 276 275 275 276 277 276 277 278 279 281 283 284 282 281
277 276 276 275 275 275 275 275 275 274 274 274 274 274 274 274 274 274 275 275 276 276 276 276 276 275 276 276 277 277 278 278 278 278 279 282 284 285 284 284 283 282 281
276 276 275 275 274 274 274 274 274 273 273 273 273 273 274 274 274 275 275 276 275 275 276 276 276 276 276 276 276 277 278 281 284 285 286 285 284 284 284 284 282 282 281
275 274 274 274 274 274 273 273 273 273 273 273 273 274 273 273 274 275 275 276 275 275 275 276 277 276 276 277 278 279 283 286 288 287 286 285 284 284 284 283 282 282 281

GFSGL_sfc_thetae_045.txt.gz
Theta_e
313 307 302 297 294 293 293 293 292 294 293 294 293 293 292 291 291 290 290 289 289 289 290 289 289 289 289 288 288 287 286 286 282 284 287 288 287 287 288 289 290 289 288
306 301 297 295 294 293 293 293 294 293 294 293 292 292 291 290 290 289 288 289 289 288 289 289 288 288 288 287 287 286 286 286 284 282 285 285 286 287 287 287 288 289 287
301 297 294 293 293 292 292 294 293 293 292 292 291 290 289 289 288 288 288 288 289 289 289 288 288 287 286 286 286 285 286 286 286 284 283 285 286 287 287 287 286 286 287
297 295 293 293 292 292 292 293 292 292 291 291 290 289 288 288 287 287 289 289 289 289 289 289 288 287 286 285 285 285 285 284 285 283 283 283 284 287 286 283 283 284 284
295 293 291 292 292 293 292 292 291 291 290 290 288 288 288 288 287 287 288 289 288 288 288 288 288 288 288 288 286 285 285 284 283 282 282 283 283 282 281 282 281 282 283
292 291 291 291 292 291 291 290 290 289 289 288 287 287 287 286 286 287 288 287 287 287 286 286 287 288 287 288 289 289 287 284 283 283 282 281 281 281 282 281 280 279 279
290 289 290 291 290 290 290 289 288 288 288 287 287 286 286 286 285 287 288 287 286 286 286 286 285 286 287 286 287 288 287 288 288 285 282 281 281 281 281 280 281 280 279
289 289 289 290 289 289 289 288 287 287 287 287 286 286 285 286 285 286 287 286 286 286 286 286 285 285 286 286 285 284 285 286 285 285 283 283 283 284 284 284 282 281 281
288 289 290 289 288 288 287 286 286 286 286 286 285 285 285 285 285 285 286 285 285 285 286 286 286 285 287 288 285 283 284 283 286 287 286 287 288 288 286 283 279 279 277
289 289 289 289 288 286 286 286 286 286 285 285 285 285 285 283 285 285 285 284 283 284 285 285 287 286 288 288 285 283 280 281 281 282 283 284 284 283 286 283 281 278 277
289 288 287 287 286 286 286 286 286 285 285 285 284 285 285 285 284 285 285 284 283 283 283 283 284 287 287 287 287 282 281 283 283 281 281 280 281 281 282 283 282 280 277
285 285 284 285 286 286 285 285 284 284 284 284 284 284 285 285 285 285 285 285 286 283 282 283 284 286 287 286 284 284 284 284 280 279 279 278 279 280 281 281 281 281 280
283 283 284 285 285 286 285 284 284 284 283 282 282 282 282 283 283 285 285 286 286 284 284 285 286 285 285 283 283 283 283 280 279 278 278 278 279 280 280 280 281 281 281
283 284 285 284 284 284 284 284 284 283 282 281 281 281 281 281 282 283 283 283 284 284 284 283 283 283 283 282 280 280 280 279 279 278 278 278 279 278 278 279 278 278 277
284 284 284 284 284 283 283 283 283 283 282 281 281 280 279 279 281 284 283 282 283 284 283 281 279 278 278 278 278 278 279 279 278 278 278 277 277 277 277 278 278 278 276
283 284 284 284 283 283 283 283 283 282 282 282 282 281 281 283 283 283 284 284 284 284 279 277 277 277 276 276 276 276 277 278 278 278 277 276 276 276 276 277 278 277 276
284 283 283 283 283 282 281 280 279 282 283 282 281 281 282 282 282 282 283 283 282 281 276 276 276 276 276 276 276 276 276 277 278 277 276 276 276 276 276 276 276 276 276
283 284 283 282 282 281 280 279 279 278 277 278 281 281 282 281 282 283 282 280 277 278 277 276 275 276 276 276 276 276 276 276 276 276 276 276 276 276 275 275 276 276 276
283 283 282 281 281 280 279 279 278 278 277 277 278 280 280 281 282 282 281 276 275 275 276 276 276 276 276 276 276 276 276 276 277 277 275 276 276 276 275 276 277 279 280
282 281 281 280 279 278 278 278 277 277 277 277 277 277 278 278 277 276 277 276 276 276 276 275 276 276 276 276 276 276 275 275 275 275 276 276 277 277 276 277 277 278 278
281 280 279 279 278 277 277 277 277 277 276 276 276 278 280 277 275 275 276 276 276 276 276 276 276 276 276 276 276 275 275 275 275 275 276 276 277 276 277 278 279 280 280
280 279 278 277 277 277 277 277 276 276 276 276 276 277 279 276 275 275 276 276 276 276 277 276 276 276 276 276 276 275 275 275 275 276 276 276 277 277 278 278 279 281 281
278 277 277 277 276 277 277 276 276 276 275 275 275 275 275 275 275 275 275 276 276 276 277 277 276 276 276 277 277 276 275 275 276 277 276 276 277 278 278 280 282 281 280
277 277 276 276 276 276 276 275 275 276 275 274 274 274 274 274 274 275 275 276 276 276 277 277 276 276 276 276 277 277 278 278 279 279 281 280 283 283 283 282 281 280 280
277 276 276 275 275 275 275 275 274 274 274 274 274 274 274 274 274 275 276 276 276 276 276 276 276 276 277 277 277 278 279 283 285 285 285 284 283 283 283 282 281 281 280
276 275 275 275 274 274 274 274 274 274 274 274 274 274 274 274 274 275 275 275 276 275 275 276 277 277 277 278 279 281 284 286 288 287 284 282 282 283 283 282 282 281 280

GFSGL_sfc_thetae_048.txt.gz
Theta_e
313 304 297 294 294 295 294 294 294 294 293 293 292 291 290 288 287 287 286 286 285 285 285 285 285 285 284 283 283 283 282 281 279 282 283 284 282 283 285 286 287 286 287
300 295 292 292 292 292 292 292 293 292 293 291 291 289 288 287 286 285 284 285 284 284 285 285 284 287 283 283 282 281 281 281 281 279 282 283 282 283 284 284 286 289 287
295 292 291 291 292 292 292 293 293 293 291 291 289 288 286 287 286 285 285 284 285 285 285 284 284 283 282 282 281 281 281 284 282 281 280 283 283 283 284 285 285 284 286
291 291 291 292 292 292 292 292 291 290 289 289 287 286 286 286 286 285 286 285 285 285 286 285 284 283 282 281 282 281 282 281 281 281 280 281 282 284 283 281 280 282 282
291 292 291 291 291 291 290 290 289 290 288 287 285 286 285 286 286 286 286 286 284 284 284 284 284 286 289 288 285 281 281 281 280 280 281 281 281 281 280 281 279 280 281
292 292 291 290 290 290 289 289 288 286 286 286 285 285 284 286 287 288 288 285 284 283 282 283 283 287 285 289 289 289 287 283 281 280 281 280 280 280 280 279 279 277 277
291 290 290 289 289 289 288 287 286 285 285 285 284 283 284 285 287 287 288 284 283 282 282 282 282 285 285 282 286 288 287 288 288 284 281 280 279 280 279 278 279 280 280
290 289 289 289 288 287 287 286 285 285 284 283 284 284 284 285 286 286 287 283 282 281 282 281 281 281 282 284 283 280 281 282 283 284 282 282 281 282 284 284 282 280 280
288 288 288 288 287 286 285 284 283 282 284 284 284 283 281 281 285 285 285 282 281 280 282 282 283 282 286 288 284 280 281 281 285 286 286 287 287 288 286 282 279 277 276
288 288 288 288 286 284 282 283 285 284 283 283 282 281 284 280 285 286 285 282 279 279 280 282 286 285 287 288 284 283 279 279 279 280 281 281 282 280 285 280 279 277 276
289 288 286 285 284 284 285 284 284 282 281 280 280 280 280 281 281 286 286 281 280 280 279 280 280 286 287 288 287 281 280 282 282 279 278 278 279 279 279 280 281 279 276
284 284 284 285 286 285 283 281 281 280 279 279 279 279 280 280 285 285 286 286 286 281 280 280 281 286 287 286 284 285 285 284 278 277 277 277 277 278 278 279 279 279 279
283 283 284 284 283 282 281 280 280 280 279 278 278 277 277 279 278 285 286 286 285 282 281 284 286 285 285 282 283 284 283 277 277 276 276 277 277 278 278 278 278 278 278
283 282 282 281 281 280 281 280 279 278 277 277 276 276 275 276 277 278 281 279 283 282 283 280 282 282 282 281 279 278 277 277 277 277 276 277 278 277 276 276 276 276 276
282 281 281 281 280 279 279 278 277 278 278 277 276 276 275 275 278 283 282 281 281 283 282 278 276 275 275 276 276 276 277 277 276 276 276 276 276 276 275 276 276 276 275
281 280 280 279 279 278 277 277 283 282 282 282 282 280 279 282 283 284 284 284 284 284 278 274 274 275 274 275 275 275 276 276 276 276 276 275 275 275 274 276 276 275 274
279 278 279 279 277 276 276 275 274 277 283 283 283 282 283 283 283 283 284 283 282 281 274 273 274 274 274 274 274 274 274 275 276 275 275 274 274 275 276 274 275 275 274
280 284 277 277 276 276 275 274 274 274 273 274 279 281 282 282 282 283 282 280 275 276 274 273 273 274 274 274 274 274 274 275 275 274 275 275 275 274 274 274 274 274 275
278 277 276 276 276 276 275 275 274 274 273 273 274 277 279 281 281 281 280 274 273 273 274 273 274 274 274 274 275 275 275 275 276 276 275 275 275 275 274 275 275 278 279
278 282 279 275 275 274 274 274 274 273 273 273 273 274 274 276 273 274 274 274 273 273 274 274 274 274 274 274 274 274 274 274 274 275 275 275 276 276 275 275 276 275 276
276 276 279 275 274 274 274 274 274 273 273 273 273 275 280 275 272 272 273 273 273 273 273 274 274 274 275 274 275 274 274 274 275 275 275 275 276 275 276 276 276 277 278
275 274 274 273 274 274 274 274 273 274 273 273 273 275 278 274 272 272 273 273 274 274 275 275 275 275 275 275 275 274 274 274 274 275 275 276 277 277 277 277 277 278 280
274 274 273 273 274 275 273 273 273 273 273 273 272 274 274 273 273 272 272 273 274 274 275 276 275 275 276 276 276 276 275 275 276 277 276 277 278 279 279 281 281 280 279
273 273 273 272 273 272 272 272 272 274 274 273 273 273 272 273 273 273 273 273 274 274 275 276 276 276 275 275 276 278 278 278 279 281 283 283 281 282 282 282 281 280 280
273 272 272 271 271 271 272 272 272 272 273 273 273 273 273 273 272 272 272 273 273 274 275 275 275 275 276 276 277 277 279 284 286 286 285 282 281 281 282 282 281 281 279
272 272 271 271 270 271 271 270 269 269 269 271 272 270 271 272 272 271 272 273 274 274 274 275 275 275 275 276 278 281 285 287 288 288 284 282 281 282 282 280 279 279 278

GFSGL_sfc_thetae_051.txt.gz
Theta_e
307 302 301 298 298 297 297 295 295 294 294 293 293 292 291 290 289 288 287 286 285 285 285 285 285 284 283 282 282 282 281 279 278 280 281 282 281 281 284 284 285 285 286
298 298 296 296 295 296 294 294 294 293 293 292 292 291 289 288 287 287 286 285 285 285 284 284 284 286 283 282 281 280 279 280 278 278 281 281 281 282 283 282 285 287 286
295 294 294 293 293 293 294 293 293 292 292 291 290 288 288 287 286 284 285 285 285 285 285 285 284 283 282 281 280 280 280 282 280 279 280 282 281 282 282 283 284 284 285
292 292 292 292 292 292 292 292 292 292 291 289 288 287 287 287 286 286 286 286 285 285 285 284 283 282 281 280 280 280 281 279 279 279 280 279 281 283 282 281 280 282 281
292 293 292 293 293 292 291 291 290 290 289 288 287 287 286 286 286 285 287 285 285 284 284 283 283 285 289 287 284 281 280 279 278 278 279 279 281 280 279 280 279 280 280
291 291 292 291 291 290 289 289 288 287 286 286 286 285 284 286 290 290 288 285 284 282 281 282 282 286 285 289 289 289 287 282 277 277 280 280 279 279 280 279 278 277 276
290 290 289 289 289 288 288 287 286 285 285 284 284 283 283 285 289 288 288 284 282 281 280 281 281 284 284 281 285 288 287 288 288 283 280 279 279 279 279 277 279 280 279
289 289 289 288 288 287 287 286 285 285 284 284 284 284 283 286 288 287 287 281 281 281 281 280 279 280 281 284 282 280 282 281 281 283 282 281 281 282 283 283 281 279 279
287 287 287 288 287 286 285 284 284 284 284 284 284 283 281 283 286 286 284 281 281 279 281 281 282 281 285 288 283 279 280 281 285 286 287 287 287 287 285 282 277 276 275
287 286 287 287 286 285 285 285 285 284 284 283 282 281 283 279 285 286 285 281 279 280 280 280 285 284 287 288 284 282 279 278 279 279 280 280 281 280 284 280 278 275 275
289 288 288 287 286 285 285 284 284 283 282 280 279 279 280 281 280 286 287 281 280 279 279 279 280 286 287 288 287 280 280 283 281 277 277 277 278 278 279 279 279 278 276
287 286 285 285 285 285 283 281 281 280 278 278 279 278 279 278 285 285 287 286 286 280 279 279 279 286 286 285 283 284 285 283 277 277 276 276 276 277 277 278 279 278 278
284 284 284 284 283 281 279 279 278 279 278 277 277 276 276 277 276 284 285 285 285 281 280 283 285 284 283 280 282 283 282 277 276 275 275 276 276 277 277 277 277 277 276
283 283 282 280 279 279 280 279 278 277 276 276 276 275 274 275 276 277 280 279 282 282 282 279 281 280 281 280 278 278 277 276 276 276 275 276 277 276 276 276 275 275 274
281 280 280 280 279 278 278 277 277 277 277 276 276 276 275 275 278 283 282 281 281 282 281 276 275 275 275 275 276 276 276 276 275 275 275 275 275 275 275 276 274 274 274
279 279 279 278 277 276 276 276 283 283 283 283 282 280 278 282 284 284 284 284 284 283 276 274 273 274 274 274 274 274 275 275 275 275 274 274 274 274 274 275 276 275 273
278 278 279 277 275 275 274 274 273 276 282 283 283 283 283 283 283 283 283 282 281 280 274 273 273 273 273 273 273 273 273 274 275 274 274 274 274 274 275 274 274 274 273
279 282 277 276 275 274 274 274 273 273 272 273 278 281 282 282 282 282 281 279 274 275 273 272 272 273 273 273 273 273 274 274 274 274 275 275 275 274 274 273 274 273 274
277 276 275 275 275 276 274 274 273 273 273 272 273 276 278 281 281 280 279 274 272 272 273 273 273 273 273 273 273 273 273 273 275 275 274 274 275 275 274 274 274 278 278
278 281 277 274 274 274 274 274 273 273 272 272 272 273 274 275 272 273 273 272 272 272 273 273 273 273 273 273 273 273 273 273 273 273 274 275 275 276 275 275 275 275 275
275 276 279 274 273 274 274 273 273 273 272 272 272 275 280 273 271 271 272 272 272 272 273 273 274 274 274 274 274 273 273 273 273 274 275 275 276 276 277 277 276 276 276
274 274 274 273 273 274 274 273 273 273 272 272 272 274 278 273 271 271 272 272 273 273 275 275 274 274 274 274 274 274 273 273 274 275 276 277 277 277 278 278 278 278 279
273 273 273 272 273 275 272 272 272 272 272 272 272 273 273 273 272 271 272 272 273 273 275 275 274 274 275 275 276 275 274 275 276 277 277 278 279 281 281 280 280 280 280
273 272 272 272 272 271 271 272 271 273 273 273 272 273 272 272 272 272 272 272 273 273 274 274 275 274 274 274 276 277 277 278 279 281 284 283 281 281 281 281 281 279 279
272 271 271 270 271 270 271 271 271 271 272 272 272 272 272 272 271 271 271 271 272 272 273 274 274 274 274 274 275 276 278 283 285 285 285 281 281 281 281 281 280 279 278
271 271 271 270 270 270 270 269 267 267 267 270 271 269 270 270 271 270 270 271 272 272 272 273 274 274 274 275 276 279 284 286 287 289 287 283 282 282 282 282 279 278 278

GFSGL_sfc_thetae_054.txt.gz
Theta_e
304 301 301 301 301 301 301 301 299 297 297 295 294 293 292 291 291 289 288 287 287 286 286 286 284 284 284 282 282 281 280 279 277 279 279 281 280 281 282 283 284 284 285
300 299 299 299 299 298 299 298 297 296 295 294 293 292 291 290 287 287 288 287 287 286 284 283 284 286 283 282 281 280 279 279 278 277 279 279 279 281 281 281 284 285 285
298 297 296 297 297 296 295 295 295 294 293 292 291 289 288 288 287 286 286 286 286 286 286 284 284 282 281 281 280 279 279 281 279 278 279 280 280 280 281 282 281 283 284
296 294 294 295 294 294 294 293 293 292 291 290 289 288 287 287 287 288 287 287 286 285 285 283 283 282 281 280 280 280 280 279 279 278 279 278 278 281 280 279 279 281 281
293 293 292 293 294 292 292 291 291 290 289 288 287 288 288 288 288 287 287 286 285 284 283 282 283 285 289 287 284 281 280 279 279 277 278 275 276 279 278 280 278 279 280
294 292 292 292 291 291 290 289 288 288 288 287 287 286 287 288 291 291 287 285 284 283 281 281 281 284 284 288 288 289 287 282 276 274 274 278 279 279 280 278 278 277 276
291 290 291 290 288 288 288 288 287 286 286 286 285 285 286 288 290 290 289 283 281 280 279 279 280 283 283 281 285 288 287 288 288 284 280 279 278 279 279 277 278 279 279
288 288 289 289 288 288 287 286 286 286 286 286 285 285 285 287 289 288 287 281 280 279 280 279 279 280 281 283 282 280 280 281 281 282 281 281 281 282 283 282 280 279 279
287 288 288 288 287 286 285 285 285 284 284 284 284 283 284 284 287 287 284 280 280 279 280 280 281 281 285 287 283 279 280 280 285 287 287 287 287 287 285 281 277 276 274
287 287 287 286 285 285 285 286 286 285 284 285 283 281 283 278 287 286 284 280 279 279 280 280 284 283 286 287 284 280 277 278 279 279 278 279 281 279 284 279 277 274 274
287 286 286 287 287 286 285 285 284 283 282 280 279 278 278 280 279 286 287 280 280 279 278 279 280 285 287 287 286 279 279 282 279 276 277 277 277 278 278 279 279 277 275
287 287 287 287 288 286 284 283 281 280 277 277 277 276 277 277 284 285 286 285 285 279 279 279 279 285 285 284 282 283 284 283 277 276 276 275 276 276 277 277 278 278 278
286 285 285 285 283 282 280 278 277 277 277 276 277 275 275 277 276 283 284 285 284 281 280 283 284 284 282 280 281 282 282 276 275 274 274 275 275 276 277 277 278 277 275
284 283 281 279 279 279 279 279 277 276 275 276 276 274 274 275 276 278 280 279 282 281 282 277 280 280 280 279 278 277 276 276 276 275 274 275 277 276 276 276 275 275 274
281 279 279 279 278 277 277 277 276 276 277 276 275 276 275 275 278 282 282 281 280 281 278 275 274 274 274 274 275 275 275 275 275 274 274 275 275 275 274 275 274 273 272
278 278 278 277 276 276 275 275 284 283 283 283 283 280 278 282 284 284 283 283 283 282 275 273 272 273 273 273 273 273 274 275 274 274 274 274 273 273 273 274 275 274 272
278 278 278 276 274 273 273 273 273 276 281 282 283 282 282 282 282 283 282 282 280 279 273 272 272 272 272 273 273 272 272 273 273 273 273 273 274 274 275 273 273 273 273
278 282 275 274 273 273 273 273 273 273 272 272 277 280 281 281 282 281 280 278 274 274 272 271 271 272 273 272 273 272 273 273 273 273 273 275 274 273 273 273 274 273 273
276 275 274 274 274 275 274 274 273 273 272 271 272 275 278 281 280 279 278 273 271 271 272 272 272 272 273 273 273 273 272 272 275 274 272 273 274 274 274 274 274 278 278
276 279 276 274 274 274 273 273 273 272 271 272 271 272 273 274 270 272 272 271 271 271 272 272 273 273 273 273 273 273 272 272 272 272 273 274 275 276 275 275 276 276 276
275 276 278 273 273 273 273 272 272 272 272 271 271 274 279 272 270 270 271 271 271 271 272 272 273 273 273 273 273 273 273 272 272 274 274 276 276 277 277 277 278 278 278
274 273 273 272 273 273 272 272 272 272 272 271 271 273 277 272 270 270 271 271 272 272 273 273 273 273 274 273 273 273 273 272 273 275 276 277 278 278 278 279 280 280 280
273 273 272 272 273 274 272 272 271 272 271 271 271 272 273 272 271 270 271 271 272 272 273 273 273 273 273 274 275 275 274 274 276 277 277 278 280 281 280 280 280 280 279
272 272 271 271 272 270 271 271 271 273 273 272 271 272 271 271 271 271 271 271 271 272 272 272 273 273 273 274 275 276 276 276 278 280 283 284 283 281 281 281 281 280 279
271 271 271 270 270 270 270 270 270 270 270 271 271 272 271 271 270 270 270 270 270 270 271 272 273 273 273 273 274 275 277 282 284 285 286 285 284 282 282 282 282 281 279
271 271 270 270 269 269 270 268 266 266 266 269 269 268 269 269 270 269 269 270 270 271 271 272 273 272 273 274 275 278 283 285 286 289 286 285 284 283 283 283 281 281 280

GFSGL_sfc_thetae_057.txt.gz
Theta_e
305 302 301 300 300 300 300 300 299 299 299 298 296 296 294 292 291 290 289 288 287 287 287 287 286 286 286 283 283 281 280 279 277 278 279 280 279 280 282 282 283 282 283
299 298 297 297 298 298 297 298 297 298 297 296 295 293 292 290 289 288 288 288 287 287 287 286 285 286 284 283 282 280 279 279 278 277 277 278 279 280 280 280 283 285 284
296 296 295 296 296 300 299 298 298 296 294 294 292 291 289 289 288 288 288 287 286 286 287 286 285 284 283 282 281 280 279 281 278 277 278 278 279 279 279 280 281 281 283
295 295 295 297 298 296 297 297 295 293 291 290 289 288 287 287 288 288 288 287 287 287 286 285 285 284 282 281 281 280 280 278 278 278 279 277 278 279 278 279 279 280 280
293 294 295 295 295 294 293 292 291 290 288 288 288 288 289 289 290 288 288 287 286 285 284 283 283 285 288 287 284 280 279 279 279 277 277 276 274 277 278 279 278 279 279
292 291 292 291 291 289 289 288 288 288 288 288 288 289 289 291 292 290 287 285 284 282 281 280 281 283 284 287 288 288 287 281 275 274 272 275 278 278 279 278 278 277 276
289 289 289 289 288 289 289 288 288 287 288 287 287 287 287 289 290 290 287 283 282 281 280 279 280 282 283 280 284 287 287 288 288 283 279 279 278 279 279 278 278 278 278
288 288 289 289 288 288 287 286 286 286 286 285 285 285 285 288 290 290 287 282 281 280 280 279 278 279 280 283 282 280 280 281 281 282 280 280 280 281 282 282 280 278 279
287 287 288 288 287 287 285 285 285 285 285 285 285 285 285 286 289 289 284 281 281 279 279 279 280 280 284 287 282 280 281 280 284 286 286 287 287 287 285 280 276 275 274
287 287 287 287 286 285 285 285 285 285 285 285 283 283 285 281 287 286 285 281 279 279 280 280 284 283 286 287 284 280 277 277 278 278 278 278 280 279 283 279 276 273 274
287 287 287 287 286 286 285 285 285 285 284 281 279 279 280 281 281 287 287 281 280 279 279 279 280 285 286 286 285 277 278 281 279 276 276 276 277 277 278 278 278 275 275
286 286 286 286 288 287 285 284 282 279 278 278 278 277 277 277 283 284 285 285 285 280 279 279 280 285 284 284 282 283 284 283 276 275 275 275 275 276 276 277 278 278 278
286 286 286 286 285 281 278 277 276 277 276 275 277 275 275 277 276 283 284 285 285 281 280 282 283 282 282 279 281 283 282 275 275 274 274 274 275 275 276 276 277 277 276
284 283 279 278 277 277 278 277 276 275 275 276 276 275 274 276 277 278 280 278 282 281 280 276 279 279 279 279 277 277 276 275 275 275 274 275 275 275 275 275 274 274 274
279 278 278 277 276 276 276 275 275 275 277 276 275 276 274 274 278 282 282 280 279 280 278 275 274 273 273 274 274 275 275 275 274 274 274 274 274 274 274 274 273 273 272
278 277 277 276 276 276 276 276 284 284 284 284 283 280 278 282 283 283 283 283 282 282 275 272 272 272 272 273 273 273 273 274 273 273 273 273 273 273 273 274 275 274 272
277 277 277 275 273 272 272 273 273 276 282 283 282 282 282 282 282 282 282 281 279 278 272 271 271 271 272 272 272 272 271 272 272 272 272 272 272 273 275 273 273 273 273
278 281 275 273 273 272 273 273 273 272 271 272 277 279 280 281 281 280 280 277 273 274 271 270 271 272 272 272 272 272 272 272 272 272 272 274 273 273 273 273 274 274 274
276 274 274 273 273 275 274 273 272 272 271 271 272 275 277 280 279 278 278 272 270 270 271 271 272 272 272 272 273 272 271 271 274 274 272 272 274 275 274 275 275 278 279
276 279 277 274 274 273 273 272 272 271 271 271 271 271 272 273 270 271 271 271 270 271 271 271 272 272 272 272 272 271 271 271 271 272 272 274 275 276 275 276 276 276 277
276 276 278 273 273 273 272 272 272 271 271 271 271 273 279 271 269 270 270 270 270 270 271 271 272 272 272 272 271 271 271 272 272 273 273 275 276 277 278 278 277 278 280
275 273 273 272 273 273 272 272 271 271 271 270 271 272 277 272 270 270 271 271 271 271 272 272 272 272 272 272 272 272 273 273 273 274 275 277 278 279 279 280 280 280 280
273 272 272 272 272 274 271 271 271 271 271 271 270 272 272 271 271 269 270 271 271 271 272 272 272 272 272 272 274 274 274 273 275 276 276 277 279 283 283 281 280 281 280
272 271 271 271 271 270 271 271 271 272 272 271 271 271 270 270 270 270 270 270 270 271 271 271 272 272 272 273 274 275 276 276 277 278 280 283 284 283 283 282 282 282 281
271 271 270 270 270 270 270 270 270 270 270 271 271 271 270 270 269 269 269 269 269 269 270 271 272 272 272 272 273 274 276 281 283 284 285 285 283 283 283 282 282 282 280
271 270 270 269 269 269 269 268 266 266 266 269 269 267 268 268 269 269 268 268 269 269 269 271 272 271 271 273 274 277 282 284 285 288 287 285 283 283 283 283 283 281 281

GFSGL_sfc_thetae_060.txt.gz
Theta_e
302 300 300 300 301 300 300 298 299 300 300 300 299 298 296 295 294 291 290 289 288 288 288 288 287 288 287 286 285 284 284 282 278 279 279 280 280 281 282 282 282 281 282
297 297 298 301 301 300 299 297 297 298 298 297 296 295 293 291 290 289 288 288 288 288 287 287 286 288 286 285 284 284 283 280 279 277 278 278 278 280 280 279 282 284 283
294 294 297 298 300 299 298 298 298 297 296 295 293 291 290 289 289 289 289 288 287 287 287 287 286 286 285 284 283 283 281 282 279 278 277 278 278 279 278 279 279 281 283
294 295 298 298 298 298 297 296 295 294 292 291 290 289 288 288 288 288 288 288 288 287 287 286 285 284 284 283 282 281 281 279 278 278 278 276 278 279 277 278 278 279 280
291 292 294 295 295 294 292 292 292 292 291 289 289 289 289 289 290 289 288 287 286 285 285 284 284 285 287 286 285 282 280 280 278 275 277 276 274 276 278 279 278 279 279
289 289 290 290 290 291 290 290 290 289 289 290 289 290 291 292 293 292 288 285 284 283 282 282 282 284 285 286 287 288 286 281 276 274 272 275 277 277 278 278 278 277 277
289 289 289 289 289 289 289 289 288 288 288 288 289 289 289 291 292 290 288 284 283 282 281 281 282 283 283 281 284 287 286 288 287 283 279 278 278 279 279 277 279 278 278
289 289 289 289 288 288 288 287 287 287 287 287 287 287 287 289 291 289 287 283 281 281 280 279 278 280 281 283 282 281 281 281 281 282 280 280 279 281 281 282 280 278 279
288 288 288 288 287 287 286 285 286 286 285 285 285 285 286 288 290 289 284 281 281 280 281 280 281 280 284 287 283 281 280 280 283 286 286 287 287 287 285 280 276 275 274
287 287 288 287 286 285 285 285 285 285 284 284 284 285 287 283 288 288 284 281 279 279 280 280 283 283 286 287 284 279 276 276 277 278 278 278 279 278 283 279 275 272 274
288 288 287 287 286 286 285 285 285 284 283 281 280 280 281 282 284 288 287 280 280 279 279 279 280 285 286 286 285 277 278 281 279 275 275 276 276 276 277 278 278 273 274
287 286 285 286 287 286 285 284 282 280 278 277 277 276 277 276 284 285 286 285 284 280 279 279 279 284 283 283 281 283 284 282 276 275 275 274 275 275 276 276 277 276 277
287 286 286 286 284 281 278 277 276 276 276 275 276 274 275 277 276 284 284 285 284 281 281 282 282 282 281 278 281 282 281 275 274 273 273 274 274 275 275 275 275 275 274
284 281 278 277 276 276 277 276 275 275 274 275 275 274 274 275 276 278 280 278 282 280 279 275 278 279 279 278 277 276 275 275 275 274 273 274 275 272 274 274 273 273 273
278 278 277 276 275 275 275 274 274 274 276 275 274 275 274 274 278 282 282 280 278 280 277 274 273 273 273 273 274 274 274 274 273 273 273 273 273 273 273 274 273 273 272
277 277 276 276 276 276 276 276 285 284 285 284 283 280 279 282 283 283 283 282 281 281 274 271 271 271 272 272 272 272 273 273 272 272 272 272 271 271 272 274 275 273 272
276 276 276 274 272 272 272 273 272 276 282 282 282 282 282 282 282 282 281 281 279 277 271 270 270 271 271 272 272 271 271 272 271 270 270 271 271 273 275 273 273 273 273
277 280 274 272 272 272 272 272 272 272 271 271 277 279 281 281 281 280 280 276 272 273 270 270 270 271 271 271 271 271 271 271 271 271 271 273 273 273 274 274 274 274 274
276 274 273 273 273 274 273 272 272 272 271 270 271 274 277 280 279 278 277 271 269 269 270 270 271 271 271 271 272 271 271 270 273 273 271 272 274 274 275 275 276 279 280
276 278 276 274 273 273 272 272 272 271 270 270 270 271 272 273 269 270 271 270 269 270 270 270 271 271 272 271 271 271 270 270 270 270 272 274 275 276 276 277 278 278 277
276 276 278 273 272 272 272 271 271 271 270 270 270 272 279 270 269 269 269 269 270 270 270 271 271 271 271 271 271 270 271 272 271 272 273 275 275 276 278 279 279 278 279
275 273 273 272 272 272 271 271 271 271 271 270 270 272 277 271 269 269 270 270 270 271 271 271 271 271 272 271 271 271 272 273 273 273 275 276 276 277 278 280 282 281 280
273 272 271 272 272 274 271 271 271 271 271 270 270 271 271 271 270 269 269 270 270 270 271 271 272 271 272 272 272 273 273 273 275 275 275 275 277 278 283 281 281 280 280
272 271 271 271 271 270 270 270 270 272 272 271 270 271 270 270 269 270 270 269 270 270 270 270 271 271 271 272 273 274 275 276 276 276 277 279 282 285 283 281 281 281 281
271 270 270 270 271 269 270 270 270 270 270 270 270 271 270 269 269 269 269 268 268 268 269 270 270 270 270 271 272 273 275 279 282 283 284 284 285 284 282 282 282 282 282
270 270 270 269 269 269 269 268 266 266 266 268 269 267 268 268 268 268 268 268 268 269 268 270 270 270 271 272 273 275 281 283 284 286 286 286 285 284 283 283 283 283 282

GFSGL_sfc_thetae_063.txt.gz
Theta_e
302 302 303 303 304 306 307 307 307 307 307 307 305 304 302 300 298 295 293 291 289 289 289 288 288 289 289 287 287 286 285 285 282 284 286 286 285 287 288 289 288 288 289
299 300 301 303 304 304 303 302 303 303 303 302 301 299 297 295 293 291 290 289 288 288 289 288 287 289 287 287 286 285 285 285 283 282 285 285 285 286 287 286 286 287 288
298 300 301 302 302 301 300 300 300 299 299 297 296 293 291 290 290 290 290 289 289 288 288 288 287 288 286 285 284 284 284 285 284 282 282 284 285 285 285 286 286 286 286
296 297 297 298 297 297 297 296 295 295 293 292 291 290 289 290 290 290 289 288 288 288 288 287 286 285 285 284 284 284 285 283 284 283 283 284 284 285 285 283 283 285 284
291 292 292 293 293 292 291 291 291 291 290 290 290 290 290 291 291 290 289 288 287 286 286 286 285 286 287 288 287 286 285 284 284 284 283 283 283 283 283 284 282 283 284
290 290 291 291 290 290 290 290 290 291 291 291 292 291 291 292 294 293 289 287 286 285 283 283 284 286 286 286 286 287 288 285 284 283 283 282 282 283 283 282 282 281 279
290 289 290 290 289 289 290 290 289 288 289 289 290 290 290 292 294 292 289 284 283 283 283 284 284 284 284 283 285 286 286 287 287 286 283 283 282 283 283 281 282 282 280
289 289 289 289 288 289 288 286 285 286 287 286 285 286 289 289 290 289 287 284 283 283 283 283 282 283 283 285 285 285 285 285 285 285 284 284 284 285 285 284 283 282 282
288 288 288 288 288 287 286 286 287 286 285 285 286 286 287 288 289 288 285 284 283 282 283 283 284 283 285 287 285 284 283 282 284 285 286 286 286 286 285 283 281 279 277
287 287 288 288 287 286 286 285 285 285 285 285 285 286 288 286 289 289 284 283 282 282 283 283 284 284 286 287 284 282 279 280 281 282 282 282 282 282 283 282 281 277 277
288 288 287 287 286 286 285 285 285 284 283 281 281 281 283 285 288 288 286 284 283 282 282 282 282 285 285 284 284 281 281 284 281 280 280 280 280 281 281 281 281 279 276
287 286 286 286 287 287 285 283 282 281 280 279 278 278 279 281 286 286 286 286 285 282 281 282 282 283 282 282 282 283 284 282 279 278 278 278 279 279 280 280 280 280 280
287 287 286 284 283 281 280 279 279 279 278 278 278 277 278 280 281 285 285 285 284 282 282 282 282 281 281 279 281 282 280 278 278 277 277 278 278 279 279 279 279 280 279
284 280 279 279 278 279 279 279 278 277 277 277 277 277 277 279 280 281 282 281 282 281 280 279 279 279 279 279 278 278 278 278 278 277 277 277 278 278 278 279 277 278 276
280 279 279 278 277 277 278 278 278 277 279 278 277 278 278 278 281 283 283 282 281 281 279 277 276 276 276 276 277 277 277 277 277 276 276 276 276 277 277 278 277 277 275
278 278 278 278 279 279 280 280 285 285 285 284 283 281 280 282 283 283 282 282 281 281 276 274 274 275 275 275 275 275 276 276 276 275 275 275 274 275 275 278 280 277 276
278 278 279 277 277 277 276 277 277 279 282 282 282 282 282 282 282 281 281 280 279 277 274 274 273 274 274 274 275 275 274 275 274 274 274 274 274 275 277 277 277 277 278
279 281 276 275 275 275 275 275 275 274 274 274 277 280 281 281 280 280 279 276 274 274 273 273 273 274 274 274 274 274 274 274 274 274 274 275 276 275 276 277 278 278 279
278 276 275 275 275 276 275 274 274 274 273 273 274 275 277 279 279 278 277 273 272 272 273 273 274 274 274 274 274 274 273 273 274 276 274 274 275 276 277 278 279 280 281
278 279 277 276 276 274 274 274 274 273 273 273 273 273 274 275 274 273 273 273 272 273 273 273 274 274 274 274 273 273 273 273 274 274 274 275 276 277 277 278 279 279 280
278 279 278 275 274 274 274 273 273 273 273 273 272 274 278 274 272 272 272 272 273 273 273 273 274 274 274 273 273 273 273 273 275 276 275 276 277 277 279 279 280 280 282
277 276 274 274 274 273 273 273 273 273 273 272 273 273 276 273 272 272 272 273 273 273 274 273 273 273 274 273 273 273 273 274 275 276 277 277 277 278 279 279 280 283 282
276 274 273 273 274 276 274 273 273 273 273 272 272 272 273 272 272 272 272 273 273 273 273 273 273 273 274 274 274 274 273 274 276 276 276 276 277 278 279 281 283 282 281
274 273 273 273 273 272 272 272 272 273 274 273 272 272 272 272 271 271 272 272 272 272 272 272 272 272 272 273 274 275 275 275 276 276 277 277 279 282 283 283 283 283 282
273 272 272 272 272 272 271 272 272 272 272 272 271 272 272 271 271 271 271 271 271 271 271 272 272 272 271 272 272 273 275 278 281 282 283 283 283 284 284 283 283 283 283
272 272 271 271 271 271 271 271 271 271 270 271 271 270 270 270 270 270 270 270 270 271 270 271 272 271 271 273 274 276 281 284 284 285 286 285 285 283 284 284 284 283 283

GFSGL_sfc_thetae_066.txt.gz
Theta_e
307 308 308 309 310 312 312 312 313 313 313 314 313 311 309 307 307 304 299 296 294 292 293 291 289 290 289 289 289 288 287 287 285 286 286 287 286 287 290 291 290 290 291
306 308 308 309 310 310 309 309 309 309 309 309 307 306 304 301 298 294 293 291 290 289 290 289 289 290 289 289 288 286 286 285 285 284 285 285 286 288 288 288 289 290 289
304 305 305 305 306 305 305 305 303 303 301 301 300 297 295 293 292 291 290 290 290 290 290 290 289 289 287 287 286 286 285 286 285 284 284 287 286 287 287 289 288 289 289
300 300 299 298 299 298 298 296 294 294 293 292 292 292 291 291 291 290 290 290 291 290 289 289 288 288 286 286 286 286 286 286 287 286 286 286 287 288 288 286 286 287 286
297 297 296 295 295 293 293 292 293 292 291 291 291 291 291 291 291 291 291 291 289 287 287 286 286 287 288 287 287 288 287 286 286 286 285 286 286 286 285 286 284 285 287
295 294 294 293 293 292 292 291 292 292 292 292 292 292 292 293 294 294 291 288 287 285 284 284 286 288 288 287 287 288 288 286 286 286 285 284 285 286 285 284 284 282 280
292 293 292 293 292 291 291 290 288 288 288 288 289 291 290 291 294 292 289 285 285 284 284 284 285 286 285 285 285 286 287 287 287 287 285 285 284 285 285 284 283 283 282
291 292 291 291 290 289 289 287 286 286 286 285 285 285 285 287 290 289 287 285 285 285 285 285 285 285 284 286 286 287 287 287 287 286 286 285 286 287 286 286 285 285 285
290 290 290 290 289 288 287 286 287 287 286 285 286 286 286 287 288 287 286 285 284 284 284 285 285 284 285 287 287 286 285 285 285 285 286 287 287 287 286 285 283 282 280
289 289 289 288 288 287 287 286 285 286 286 287 286 288 289 288 289 287 286 285 284 284 285 284 284 285 286 286 285 284 282 282 284 285 285 285 285 285 284 284 284 280 279
289 289 289 289 288 287 286 286 286 286 286 286 286 286 288 289 288 288 286 286 285 284 283 283 284 284 284 284 284 283 282 285 284 283 283 284 284 285 285 285 285 282 279
288 287 287 288 288 288 286 286 285 285 284 283 283 283 284 286 286 287 287 286 285 283 282 283 284 283 282 282 283 283 284 284 282 282 282 282 283 283 284 284 283 283 283
289 288 288 288 287 285 284 284 283 283 283 282 281 281 282 283 285 285 285 284 284 283 283 283 281 281 281 281 282 282 282 282 281 281 281 282 283 283 282 282 284 284 283
288 287 285 284 284 284 284 284 283 283 282 281 281 281 282 283 284 285 284 284 283 283 282 282 280 280 279 280 281 281 281 281 281 281 281 281 282 282 281 283 281 281 280
285 284 284 283 282 282 283 283 282 283 283 281 282 282 281 281 283 284 283 283 283 282 281 280 280 280 280 280 280 280 281 281 280 280 280 280 280 280 281 283 281 281 279
283 283 283 283 283 284 284 285 286 286 285 284 283 283 282 283 283 283 282 282 281 281 278 278 278 279 279 279 279 279 280 279 280 279 279 279 278 278 280 281 283 280 279
283 283 283 283 283 283 283 282 282 282 283 282 282 282 282 282 282 281 281 280 279 279 277 278 278 278 278 278 279 279 279 279 278 277 278 278 278 279 280 280 281 281 280
283 283 282 282 282 281 280 280 280 279 278 278 278 280 281 281 280 280 279 278 277 277 277 277 278 278 278 278 278 278 278 278 278 278 278 278 279 279 278 279 280 279 279
283 282 281 281 280 280 279 279 279 278 278 278 278 278 278 279 279 278 277 276 275 276 277 277 278 278 278 278 278 278 277 277 277 278 278 277 278 279 279 280 280 281 281
282 281 281 280 280 279 278 278 278 277 277 277 277 277 278 279 278 277 276 276 276 276 277 277 278 278 278 278 278 277 277 277 278 278 279 279 279 280 279 280 280 281 281
282 282 281 280 279 279 278 278 278 277 277 277 276 277 278 278 277 276 276 276 276 276 277 277 278 278 279 278 278 277 277 277 278 278 279 279 280 279 280 280 281 281 281
282 282 280 279 278 278 278 278 277 277 276 276 277 276 277 277 276 276 276 276 277 277 277 277 278 278 279 278 277 277 277 277 278 279 279 279 279 280 279 280 280 282 282
281 279 278 278 278 278 278 277 276 276 276 276 276 276 276 276 275 276 276 276 277 277 277 277 277 277 278 278 278 278 276 277 278 279 278 278 278 279 280 280 282 283 283
280 278 278 278 278 278 278 277 276 276 276 276 276 275 275 275 275 275 275 276 276 276 277 276 276 276 276 276 277 278 279 278 278 278 277 277 278 279 281 282 283 283 283
279 278 277 277 277 278 276 276 276 276 275 275 275 275 275 275 275 275 275 276 276 275 275 276 276 276 276 275 275 275 277 279 280 281 283 283 283 283 283 284 283 284 284
277 277 277 277 277 277 276 275 276 276 276 276 275 275 275 275 275 275 275 275 275 275 274 275 275 275 275 275 276 277 281 283 284 285 285 285 285 284 284 284 284 284 284

GFSGL_sfc_thetae_069.txt.gz
Theta_e
308 310 310 311 311 312 313 313 313 313 314 314 313 314 313 311 311 307 302 300 296 295 294 292 291 292 291 290 290 290 289 289 288 286 287 288 287 287 288 289 291 290 290
307 309 309 309 310 309 309 309 309 309 310 309 310 309 307 305 302 299 297 294 293 292 291 291 290 291 290 290 289 288 287 287 287 285 285 285 285 287 288 288 288 290 289
305 305 304 304 303 302 301 301 302 301 300 299 298 298 296 296 294 293 292 291 291 290 291 291 291 290 289 287 287 287 286 287 285 285 285 287 287 288 287 288 288 288 289
301 301 299 299 298 298 297 296 296 295 294 293 292 292 291 291 291 292 291 291 291 291 291 291 290 289 288 286 286 286 286 285 286 285 286 287 287 288 287 285 285 287 285
299 298 297 297 296 295 294 294 293 293 293 293 292 292 292 292 292 291 291 290 288 287 288 288 288 289 290 289 288 287 287 286 286 286 285 285 286 285 284 285 284 284 285
296 296 296 296 295 294 294 294 293 293 293 293 293 293 292 293 295 293 290 287 286 285 284 287 288 289 290 290 288 288 288 286 286 286 285 283 284 285 285 283 283 281 280
294 294 294 294 293 292 292 291 290 289 289 288 288 288 287 290 293 292 289 285 284 284 284 285 285 286 286 285 286 286 287 287 287 286 284 284 283 284 283 281 282 282 281
293 293 293 292 290 290 289 288 287 287 287 286 285 286 286 288 290 289 288 285 285 285 285 285 285 284 284 285 286 286 286 286 287 286 285 284 284 285 285 284 284 283 284
291 290 291 290 289 288 287 287 288 287 286 286 287 286 286 287 288 288 286 285 285 284 284 285 285 285 286 287 286 285 284 284 286 286 286 287 288 288 288 284 281 281 280
290 290 290 289 288 287 287 286 286 287 286 287 288 289 290 288 288 287 286 286 284 284 285 284 285 285 286 286 284 283 281 281 282 284 284 285 286 285 287 284 282 280 279
290 289 289 289 287 287 286 287 287 287 287 287 287 288 288 288 287 288 287 285 284 283 283 282 283 284 284 284 284 282 281 284 284 282 282 282 283 283 283 284 284 283 280
289 288 288 289 289 289 288 288 286 286 285 284 284 283 285 286 287 287 287 286 285 283 281 282 283 283 283 283 282 284 285 284 282 281 281 281 281 282 283 283 283 282 282
289 289 290 290 288 287 286 285 284 284 283 282 281 282 282 283 284 285 285 284 284 282 283 283 282 282 282 282 282 283 283 281 280 280 280 281 282 283 282 282 283 284 283
290 290 287 285 285 285 285 285 284 283 282 281 281 281 282 282 283 284 284 284 284 283 283 282 280 280 281 281 281 281 281 280 280 279 280 280 281 281 281 282 281 281 280
288 285 285 285 284 283 283 284 283 283 284 282 282 281 281 281 282 284 283 282 282 282 281 279 279 279 279 280 280 280 280 280 279 280 280 279 279 280 280 281 281 281 279
285 284 284 283 284 285 284 284 286 285 285 284 284 283 282 283 283 283 282 282 281 281 278 277 277 279 278 278 279 279 280 280 280 279 278 278 278 277 278 279 281 280 279
284 284 283 284 284 284 284 284 281 282 283 283 282 282 282 282 282 281 281 281 280 279 277 277 277 278 278 278 278 279 278 279 279 278 278 277 277 277 278 279 279 280 279
285 285 283 284 284 283 282 281 280 280 278 279 279 280 281 281 281 280 280 280 277 278 277 277 277 278 278 278 279 278 278 278 278 278 277 278 278 278 277 278 279 279 279
284 283 283 282 282 281 280 280 279 279 278 278 278 279 279 280 280 280 279 276 276 276 277 277 278 278 278 278 278 278 278 277 278 278 278 278 278 277 277 278 278 281 281
284 284 283 281 281 280 279 279 278 278 278 277 277 277 278 278 279 278 277 277 276 276 277 277 277 278 279 278 278 277 277 277 277 278 278 279 278 279 278 278 279 278 279
283 282 283 281 280 280 279 278 278 278 277 277 277 278 278 278 278 277 276 276 276 276 276 277 277 278 279 278 278 278 278 278 278 278 278 278 278 278 279 279 279 279 279
283 282 281 280 280 278 278 278 278 277 277 277 277 277 278 277 277 276 276 277 277 277 277 277 277 277 278 278 277 277 276 276 277 277 277 278 278 278 278 278 279 279 279
283 282 280 279 279 279 279 278 277 277 277 277 277 277 276 276 276 276 276 276 276 276 277 277 276 276 277 277 278 278 277 276 277 278 276 276 276 276 277 277 278 279 280
282 281 279 278 278 278 278 277 277 277 277 277 277 276 276 276 275 275 276 276 276 276 277 276 276 275 275 275 276 277 277 278 278 278 277 276 276 277 277 278 280 282 282
280 280 279 278 277 278 277 277 276 276 276 276 276 276 276 276 275 275 276 276 275 275 275 275 275 275 274 273 274 274 275 279 280 281 281 281 281 281 282 282 283 282 282
279 279 278 278 277 278 276 276 276 276 276 277 276 276 276 275 275 275 275 275 275 275 274 275 274 273 273 274 274 276 280 282 283 284 283 283 283 284 284 283 283 282 282

GFSGL_sfc_thetae_072.txt.gz
Theta_e
303 305 304 305 306 306 305 305 305 306 306 306 308 310 309 308 308 304 302 300 297 296 295 294 293 293 293 293 293 293 292 291 289 286 287 288 288 288 290 289 290 290 289
302 302 300 301 300 298 297 298 300 298 298 297 300 299 298 297 298 298 296 296 294 292 292 292 291 292 291 291 291 290 288 288 288 285 286 285 286 287 288 287 288 289 287
299 297 296 296 295 293 293 293 293 292 291 291 291 291 291 291 292 292 292 291 291 291 291 290 290 290 288 288 288 287 287 287 286 286 285 286 286 287 285 285 285 286 288
297 295 293 292 292 292 292 291 292 291 290 290 291 291 292 292 292 292 291 291 290 290 290 290 290 289 288 287 287 286 286 285 285 285 284 285 285 285 284 283 282 283 282
294 293 292 293 292 291 291 292 291 291 291 292 292 292 292 291 291 290 290 289 288 287 288 288 289 290 291 289 287 286 286 285 285 285 284 284 283 283 282 282 281 281 282
293 292 293 292 292 292 292 291 291 291 291 291 291 292 292 293 294 292 288 286 286 286 285 285 286 287 289 290 289 289 288 285 285 282 281 281 281 281 281 280 279 277 276
291 292 292 291 291 290 290 289 288 287 287 287 287 288 289 290 293 292 289 285 285 284 285 285 285 286 285 285 286 286 287 287 287 284 281 281 279 280 279 276 278 275 277
290 291 292 290 289 289 288 287 287 287 286 285 285 286 287 289 292 291 289 285 285 284 284 285 284 284 284 285 285 283 284 284 285 285 282 281 281 282 282 279 278 279 280
289 290 290 289 288 288 287 286 287 285 285 285 286 286 285 285 289 288 286 282 282 281 283 283 284 283 286 288 284 283 282 281 285 286 285 287 288 288 287 279 275 274 276
289 289 289 289 288 286 287 285 286 287 286 287 285 284 287 282 288 288 286 283 280 281 281 282 286 284 286 286 281 279 277 277 279 281 281 282 283 282 287 281 277 270 279
290 289 288 288 287 287 286 285 284 282 280 279 282 282 283 284 284 288 288 282 280 279 279 279 280 285 284 284 284 278 279 281 281 279 278 278 279 279 280 281 281 279 279
289 288 288 288 288 287 284 282 283 282 280 279 279 278 280 282 287 286 286 286 285 279 278 279 280 284 283 283 281 284 285 284 278 277 278 277 277 277 281 283 282 282 282
289 288 288 287 287 286 281 280 279 279 278 277 277 276 277 279 280 285 285 285 284 280 280 281 283 282 282 281 283 283 283 277 277 275 275 275 275 275 278 281 283 283 283
289 289 286 281 280 280 281 280 279 278 277 277 277 276 276 277 278 279 280 278 283 281 281 278 280 281 282 281 280 279 278 277 276 274 274 275 276 280 280 281 280 280 280
286 282 280 281 279 278 281 279 278 279 280 277 277 277 276 276 280 282 281 280 279 280 280 276 275 276 276 277 277 277 277 277 276 275 277 278 278 279 279 280 278 278 278
281 280 279 278 278 280 280 280 286 285 285 285 284 281 280 282 283 283 283 282 282 282 276 274 274 274 275 276 276 277 277 279 279 279 278 277 277 277 277 278 278 278 277
280 279 279 280 280 280 280 279 277 280 283 283 282 282 282 282 282 282 282 282 281 279 274 273 273 274 274 275 274 276 277 278 278 278 277 277 277 277 277 277 277 277 277
280 285 279 279 280 279 278 278 277 277 275 275 280 280 281 281 282 281 281 280 275 276 273 273 272 274 274 274 278 277 277 277 277 277 277 276 276 275 273 273 274 276 277
279 279 279 279 278 278 276 276 275 275 274 274 274 278 279 280 281 281 281 275 273 272 273 273 274 273 272 278 278 277 277 277 277 277 276 276 277 275 275 275 276 279 280
279 283 281 278 277 276 276 275 275 274 274 274 274 274 275 276 274 275 275 274 273 273 273 273 273 273 271 277 278 277 277 277 276 276 277 276 276 276 276 276 276 276 277
279 280 283 277 276 276 275 275 275 274 274 274 274 276 279 274 273 274 273 272 272 272 272 273 272 271 268 276 278 277 277 277 277 276 275 276 276 276 277 277 277 277 278
280 279 279 277 277 276 275 275 274 275 274 274 274 276 280 276 273 273 273 273 273 273 273 273 271 270 269 269 273 276 276 276 275 275 275 275 276 276 276 276 276 277 277
280 279 279 277 277 278 277 275 275 275 274 274 274 275 275 274 274 273 273 273 272 272 273 273 272 270 270 270 269 273 275 275 275 275 275 275 275 275 275 275 276 277 278
281 280 278 277 276 275 275 275 274 276 275 275 274 275 274 274 273 273 273 272 272 272 272 272 271 270 269 269 270 270 272 275 276 276 275 275 275 276 276 277 277 278 278
280 279 278 277 277 276 276 275 274 274 274 275 275 275 274 274 273 271 272 271 270 270 271 271 271 270 270 269 269 269 272 278 278 279 280 279 279 279 279 281 282 282 282
280 279 278 277 276 276 276 275 273 272 273 274 274 273 273 272 272 271 271 270 270 271 270 271 270 270 269 270 269 272 278 281 281 284 283 282 281 282 282 282 283 282 282

GFSGL_sfc_thetae_075.txt.gz
Theta_e
302 300 299 298 298 298 298 298 298 298 298 301 303 303 302 303 303 302 300 300 298 296 296 295 293 294 293 293 294 294 293 293 291 287 288 288 288 289 291 292 291 290 290
298 297 296 295 294 293 292 292 292 291 291 292 294 293 292 292 293 296 296 295 294 293 293 292 292 293 291 291 291 290 289 289 291 286 286 286 287 288 288 288 289 290 289
295 294 293 292 291 290 290 291 291 290 289 290 290 289 289 290 290 290 292 292 292 291 291 291 290 290 289 288 288 287 287 288 288 287 285 287 287 287 287 287 287 285 287
294 292 291 290 290 290 290 290 290 290 289 289 290 290 290 290 290 290 290 289 290 290 290 290 289 289 288 287 287 287 287 285 285 285 285 285 285 286 286 282 281 283 282
293 292 291 291 291 290 290 290 291 290 291 291 291 291 291 291 290 288 289 288 288 288 288 289 290 291 292 290 288 286 286 285 285 285 284 284 283 282 281 281 280 281 281
292 291 291 291 292 291 291 290 290 290 290 291 291 291 291 292 293 292 288 286 287 286 285 286 287 287 289 290 291 290 288 285 285 283 281 281 281 280 279 279 278 276 276
290 290 290 291 290 289 290 288 288 287 287 287 289 290 290 292 293 292 289 283 282 283 284 284 285 286 285 284 286 287 287 288 287 283 280 280 279 279 278 275 278 275 276
289 290 291 290 289 289 287 287 286 286 285 286 286 286 287 291 292 291 289 284 283 284 283 282 281 281 282 284 284 283 283 283 284 285 282 281 280 281 281 279 278 279 279
288 289 290 289 288 288 286 286 286 285 285 285 284 282 282 284 289 289 284 280 280 279 281 281 281 281 287 288 281 279 279 279 284 286 286 287 288 289 287 279 275 273 273
288 289 289 289 288 287 286 286 286 286 285 282 279 281 286 281 289 289 284 281 278 279 280 280 286 283 286 285 279 278 276 277 278 280 280 280 281 281 286 280 276 268 270
289 288 288 288 287 287 286 286 284 278 278 277 280 280 281 283 284 288 287 281 279 278 278 279 279 285 284 284 283 278 278 280 281 277 277 277 278 279 280 280 280 271 276
288 287 287 287 288 287 284 281 281 280 278 278 278 278 279 281 286 286 286 286 283 278 278 278 279 284 283 283 281 284 285 283 278 277 277 276 276 276 279 280 282 282 282
288 287 288 288 285 284 281 280 279 278 277 276 276 276 276 279 279 286 285 285 284 279 279 282 283 282 282 280 283 284 283 277 277 275 274 273 273 273 274 281 282 283 282
288 288 285 284 283 282 280 279 277 276 275 276 277 276 275 276 277 278 279 278 282 280 281 278 280 281 282 281 280 279 278 277 276 274 273 274 278 280 279 280 279 279 274
289 286 282 280 278 278 279 276 276 278 278 276 276 277 276 276 279 282 281 280 278 280 279 276 275 275 276 276 277 277 277 277 275 274 277 278 278 278 278 279 278 278 275
284 279 279 278 276 278 279 279 286 285 286 286 284 280 280 283 284 283 283 283 283 282 277 274 273 274 274 276 276 276 276 279 279 278 278 277 277 277 277 277 275 277 274
280 278 279 278 277 277 277 278 277 280 284 284 283 283 283 282 283 282 282 282 282 280 274 272 272 273 273 274 273 273 277 278 278 277 277 277 277 276 275 271 271 273 275
280 284 278 277 278 278 278 279 277 277 275 275 281 281 282 282 282 282 282 280 275 276 273 271 272 273 273 272 275 277 277 277 277 277 277 277 274 275 273 272 272 272 273
279 279 278 278 278 279 277 276 276 276 274 273 274 279 280 282 281 282 282 275 272 272 272 272 273 272 271 271 274 277 277 277 277 277 276 276 271 273 273 273 274 278 279
279 283 281 278 278 277 276 276 275 274 273 273 273 274 274 277 273 274 275 274 272 272 273 272 273 272 270 268 269 277 277 277 276 275 273 273 274 275 274 274 275 275 275
279 280 284 277 276 276 276 275 275 274 274 273 273 276 279 273 273 273 273 272 272 272 272 272 271 270 267 265 266 276 276 276 276 276 273 273 274 274 274 275 276 276 276
280 280 281 277 276 276 275 275 274 274 274 273 273 275 281 276 273 273 273 273 273 273 273 272 270 269 268 266 267 268 275 275 275 275 273 273 274 274 275 275 274 275 276
281 280 280 278 277 279 278 275 275 274 274 274 274 275 275 274 274 272 273 273 272 273 273 273 271 269 268 267 267 267 269 273 274 272 274 274 274 274 274 273 274 275 276
281 280 280 279 277 277 277 276 275 277 275 275 274 275 274 274 273 273 272 272 272 273 272 271 271 269 268 267 267 267 268 270 272 273 273 273 273 274 276 276 276 277 277
282 280 280 279 278 278 277 277 276 275 275 275 275 275 274 274 273 272 272 272 271 270 271 271 270 269 268 268 268 267 269 276 276 277 277 276 276 275 276 277 279 280 280
282 282 281 279 278 278 277 277 276 276 275 275 275 274 274 273 273 272 272 271 270 271 270 270 270 269 268 268 268 270 277 279 280 281 281 281 279 279 281 280 280 280 281

GFSGL_sfc_thetae_078.txt.gz
Theta_e
298 296 294 293 293 293 293 293 293 294 296 298 299 297 297 298 302 301 300 300 298 297 296 295 294 295 294 294 294 294 294 294 290 287 289 289 289 290 291 292 292 292 292
295 294 293 292 292 291 290 290 291 290 290 291 291 290 290 291 292 296 296 296 295 294 293 293 292 293 291 291 291 289 289 289 290 287 287 287 288 289 289 289 290 290 289
293 292 291 290 290 289 289 290 290 290 289 290 290 290 289 290 290 290 290 289 291 292 291 291 291 291 289 289 288 288 288 288 288 288 284 287 287 288 287 287 287 285 287
292 291 290 289 289 289 290 290 290 289 289 289 289 289 289 289 289 289 288 287 288 288 288 289 289 289 288 287 287 287 287 286 286 285 285 285 285 286 285 282 280 282 281
291 291 290 290 290 290 290 290 290 290 290 290 290 289 289 289 289 287 288 288 288 288 289 289 289 291 292 290 286 286 287 286 285 285 284 284 280 282 280 279 279 279 279
291 290 291 292 291 291 290 290 290 290 290 291 291 290 291 292 293 292 288 287 286 286 285 286 287 286 289 292 292 290 288 285 281 281 279 279 279 279 279 278 278 275 275
290 290 290 291 290 290 289 289 288 287 288 288 289 290 291 291 293 292 289 281 280 283 283 278 283 286 285 284 286 287 287 288 287 281 279 278 277 278 276 273 277 273 275
289 289 291 290 289 288 288 287 286 286 286 287 286 287 288 291 292 291 288 281 279 278 278 278 279 280 282 283 282 281 281 281 282 284 280 280 279 279 279 277 277 278 278
288 290 290 289 288 287 286 286 286 286 285 285 285 283 282 283 289 288 283 279 279 279 281 280 280 280 287 287 280 279 278 279 284 287 286 287 288 289 286 279 275 273 273
289 289 289 289 288 287 286 286 285 282 280 280 279 280 286 281 289 288 283 281 278 279 279 280 286 283 286 285 279 277 276 277 278 280 279 279 281 281 286 280 276 268 269
289 289 289 289 288 287 286 286 284 277 278 276 279 279 280 282 284 288 286 280 279 278 278 279 279 285 284 284 283 277 278 279 280 277 276 277 278 279 280 280 279 269 275
289 288 288 287 288 287 286 280 280 279 278 277 278 278 279 280 286 286 286 285 283 278 278 278 279 284 283 283 282 283 284 282 277 277 277 276 276 275 276 277 280 282 282
288 287 288 288 287 286 281 280 279 278 277 276 277 276 277 280 278 286 286 285 284 279 279 281 284 282 282 280 283 284 283 277 277 274 274 273 273 272 276 280 282 282 282
287 287 288 286 284 281 281 280 277 276 275 276 276 276 275 276 277 279 279 278 282 280 281 278 280 281 282 281 280 278 278 277 275 273 272 274 278 279 279 280 278 279 278
288 287 285 283 282 279 278 276 275 275 277 275 276 276 275 276 279 282 281 280 278 280 279 276 275 275 276 276 276 277 277 277 274 276 278 278 278 278 278 279 278 277 276
288 284 282 279 276 278 277 277 284 285 286 285 284 280 280 282 285 284 283 283 283 283 277 274 272 273 274 275 275 276 276 278 279 278 278 278 277 277 276 272 269 270 273
287 281 279 278 277 277 277 278 277 281 285 285 285 285 284 283 285 283 282 282 283 281 274 272 272 272 273 273 272 271 276 278 278 277 277 277 277 276 275 270 269 269 272
282 285 279 277 277 277 278 278 277 277 276 275 282 282 284 283 284 283 283 281 275 276 272 271 271 272 272 271 271 271 277 277 277 277 277 277 276 272 271 269 269 269 271
281 280 278 278 278 279 278 278 277 277 276 274 274 279 282 284 283 283 284 276 273 272 272 271 272 272 271 270 270 270 277 277 277 277 277 276 270 268 272 269 271 277 278
280 283 282 279 278 278 277 277 276 275 274 273 273 273 274 278 273 274 274 274 273 273 272 272 272 271 270 267 265 266 275 277 276 276 276 274 270 271 272 273 273 273 273
280 281 285 279 278 278 277 276 275 274 274 273 273 275 279 273 273 273 273 273 273 272 272 272 271 270 268 265 262 264 268 273 276 276 275 275 271 272 273 274 274 274 274
282 281 282 280 278 278 277 276 275 275 274 273 273 275 282 277 273 273 274 274 273 273 273 272 270 269 268 265 265 264 266 269 272 275 275 274 271 272 273 273 274 274 274
283 281 281 281 279 280 279 277 276 275 275 274 274 274 275 275 274 273 273 273 273 273 273 273 271 269 268 267 265 265 265 268 270 269 270 272 272 273 273 273 273 273 274
284 282 281 281 279 278 278 277 276 278 276 276 275 275 275 274 274 273 273 273 272 273 273 272 271 269 268 267 266 265 265 267 268 269 268 270 272 273 273 274 275 275 276
284 282 281 280 279 280 278 278 277 276 276 276 275 275 275 275 274 273 273 272 272 272 272 271 270 269 269 267 267 265 267 275 275 273 273 273 273 272 273 274 275 276 276
284 283 283 282 280 280 279 278 277 277 277 277 276 276 276 275 274 274 273 273 272 272 271 270 270 269 268 267 267 269 276 278 279 280 280 279 278 278 278 278 278 279 279

GFSGL_sfc_thetae_081.txt.gz
Theta_e
295 293 292 291 292 291 291 291 292 293 295 296 295 296 297 299 300 299 299 300 299 297 297 296 295 295 293 294 295 294 294 294 291 287 289 289 290 291 292 293 293 293 293
293 292 291 291 290 289 289 289 290 289 290 290 291 291 291 292 293 295 294 296 295 294 294 294 293 294 292 292 291 290 289 290 291 288 287 287 288 289 290 290 291 292 290
292 291 290 289 289 288 288 289 289 289 289 290 290 290 290 290 290 289 289 291 292 292 292 291 291 291 289 288 288 284 284 288 289 288 286 287 287 288 287 288 287 286 287
291 290 289 289 288 289 289 289 289 289 289 289 289 289 289 288 288 288 288 288 288 287 287 287 287 286 285 284 284 284 285 285 284 283 284 285 286 286 286 282 281 281 281
291 290 289 289 289 289 289 289 289 289 289 289 289 289 288 289 289 288 289 289 288 288 288 290 290 291 292 289 285 284 284 283 285 285 284 284 283 281 280 279 278 278 278
290 290 290 291 291 290 290 290 290 290 290 289 289 290 291 292 293 292 289 287 287 287 286 286 287 286 289 292 291 291 289 282 280 279 282 278 278 277 278 278 276 273 273
289 289 290 291 290 290 289 289 288 288 289 289 290 290 290 291 293 292 289 282 284 284 279 278 282 285 283 282 286 288 288 289 287 280 278 277 277 277 275 272 276 272 274
288 289 290 290 289 289 288 287 287 287 287 287 286 287 288 290 292 291 288 279 278 277 276 277 279 279 282 282 281 281 281 280 282 283 280 279 279 279 279 276 276 277 278
288 288 290 290 288 287 286 286 286 286 286 285 285 283 282 284 289 288 282 278 279 279 280 280 280 280 287 287 280 279 278 278 284 287 286 287 287 288 286 282 277 273 273
289 289 290 289 288 287 286 286 285 285 284 282 280 280 286 281 289 287 283 280 278 279 279 279 286 283 286 285 279 277 276 276 277 279 279 279 280 281 286 280 275 267 268
290 290 289 289 288 287 286 286 282 280 279 276 279 278 280 282 284 287 285 280 279 278 278 279 279 285 285 284 283 277 278 279 280 277 276 277 278 278 279 279 278 269 275
289 289 288 288 288 287 286 284 280 279 278 277 277 278 279 278 286 286 287 285 283 278 278 279 279 284 283 284 282 283 284 281 277 277 276 275 275 275 275 276 278 280 282
288 288 287 288 287 287 283 280 278 278 277 276 278 277 277 279 278 286 286 285 285 280 280 281 284 284 282 280 283 284 283 277 276 274 273 272 272 272 276 280 282 282 281
287 287 288 286 286 284 282 280 278 276 275 276 276 276 275 276 277 278 279 278 282 280 281 277 280 281 282 280 280 278 278 277 275 272 272 273 277 279 278 279 278 278 277
288 287 287 286 285 282 280 278 276 276 277 275 275 276 275 275 278 281 281 279 278 281 278 275 274 275 275 276 276 276 276 277 274 275 277 278 278 279 278 278 277 276 272
287 287 286 285 282 279 277 275 283 283 285 285 284 279 279 282 284 286 285 284 283 283 277 274 272 273 273 275 275 275 275 276 277 279 278 277 277 276 276 270 268 268 271
287 286 286 282 277 276 275 276 277 281 286 286 286 285 284 284 285 286 284 283 283 282 274 271 271 272 272 272 271 270 269 275 278 277 277 277 277 277 276 269 268 267 270
287 288 282 278 277 276 277 277 277 277 277 276 283 284 285 285 284 285 284 282 276 275 272 271 271 272 272 271 270 268 269 274 277 277 277 277 276 276 268 267 267 268 270
286 285 280 278 277 279 278 278 278 277 276 274 274 279 284 285 285 284 285 277 274 272 271 271 272 271 271 271 271 268 267 268 271 276 276 276 276 270 268 268 270 276 277
285 285 282 278 277 278 277 278 277 277 276 275 274 274 274 279 273 275 275 274 273 273 273 272 272 272 271 269 267 265 264 267 269 273 276 276 276 273 270 271 272 271 272
285 283 286 279 278 278 278 277 277 277 276 275 274 275 279 274 274 274 273 273 273 273 273 273 271 271 270 268 266 266 265 266 267 268 273 275 275 274 271 272 273 273 273
284 283 283 280 279 278 278 278 276 276 276 275 274 275 282 279 274 274 273 274 274 274 274 274 272 270 271 269 268 267 265 265 266 267 269 274 274 274 271 272 272 272 273
285 283 282 282 280 281 280 278 278 277 276 275 275 275 275 277 276 275 275 275 275 274 274 274 273 272 271 270 268 267 266 267 268 267 267 269 271 272 271 271 272 272 272
286 285 284 283 282 280 279 279 278 279 277 276 275 275 275 275 275 275 276 275 274 274 274 274 273 273 272 270 267 266 266 267 265 266 265 268 269 271 271 272 273 273 274
286 285 285 284 282 282 280 279 278 277 277 277 276 276 276 275 275 275 276 275 275 274 274 273 273 272 272 270 268 266 268 275 274 271 270 270 270 270 271 272 273 274 274
286 285 285 284 283 282 281 280 279 278 278 277 277 277 276 276 276 276 276 275 274 274 274 273 272 272 271 270 269 269 276 278 278 280 279 277 275 275 274 273 274 275 276

GFSGL_sfc_thetae_084.txt.gz
Theta_e
293 292 291 291 291 291 291 290 291 292 294 294 295 297 299 301 302 301 301 302 300 298 298 297 296 296 295 294 292 292 292 292 292 288 289 290 291 292 293 293 294 293 293
292 291 290 290 289 289 289 289 290 289 290 290 292 292 292 293 294 295 295 295 296 295 295 294 293 294 292 291 292 290 287 290 291 288 288 288 288 290 290 290 291 292 291
292 290 290 289 288 287 288 289 289 289 289 290 290 290 290 290 290 289 290 292 292 292 292 292 291 291 289 289 288 288 286 286 285 284 284 287 287 288 287 288 288 287 288
291 290 289 288 288 288 288 288 289 288 288 288 288 288 288 288 288 289 289 289 288 288 288 287 286 286 284 284 283 283 284 283 283 282 282 285 286 287 286 284 283 282 281
290 289 288 289 288 288 289 288 289 289 288 288 288 288 288 288 290 289 290 289 289 288 289 290 290 291 292 289 285 283 283 282 282 282 281 281 282 281 281 279 278 278 278
289 289 289 289 289 289 290 290 289 289 289 289 289 290 291 292 293 292 290 288 288 287 286 286 286 287 290 293 292 291 287 281 278 275 273 276 277 277 277 277 276 273 273
290 290 290 291 291 290 290 290 289 289 290 290 290 290 290 291 293 292 290 286 285 282 279 279 282 284 283 282 287 288 288 289 286 280 278 277 277 277 275 272 275 271 274
288 289 290 290 289 289 289 288 288 288 288 288 287 287 288 291 292 291 288 280 278 277 277 277 279 279 282 281 281 280 280 279 282 283 280 279 279 278 278 275 276 277 278
288 289 289 290 289 288 287 287 287 287 286 286 286 285 284 285 290 288 283 279 279 278 280 279 280 280 287 286 280 279 278 278 284 287 286 287 287 287 284 282 281 273 273
288 290 290 290 288 287 287 286 285 286 285 284 281 282 287 283 288 287 283 280 278 279 279 279 286 282 286 285 279 277 275 276 277 279 278 279 280 282 285 279 275 266 268
290 290 290 289 288 287 286 286 285 284 281 278 280 279 280 282 284 287 285 280 279 278 278 278 279 285 285 284 283 277 278 279 280 277 276 277 278 278 278 279 277 268 270
290 289 288 288 288 287 286 284 283 281 279 278 278 279 279 279 286 287 287 284 283 278 277 278 279 284 283 284 282 283 285 281 277 276 276 274 274 274 275 276 278 277 281
289 288 288 288 287 287 284 282 280 279 278 277 279 278 278 280 278 286 286 286 285 279 279 281 284 284 283 280 283 284 283 277 276 273 273 272 272 272 275 280 281 281 280
288 288 287 286 286 285 284 282 279 278 277 278 278 277 276 276 277 278 279 278 283 281 281 278 280 281 282 280 279 278 277 276 274 272 272 272 275 279 278 279 277 278 276
288 287 287 286 286 284 282 280 278 278 279 277 276 276 275 275 278 281 280 279 277 281 278 275 274 274 275 275 276 276 276 276 273 273 274 278 278 279 278 278 277 274 271
287 286 286 286 284 284 280 278 285 284 285 285 284 279 278 282 284 286 286 285 284 284 277 274 272 272 273 274 275 275 275 276 275 274 275 278 277 277 277 277 274 265 267
287 287 287 286 284 282 278 276 276 281 287 288 287 286 285 283 286 287 286 285 284 283 275 272 271 272 272 272 271 270 269 272 270 271 277 276 277 277 277 274 265 265 266
288 289 286 285 283 279 277 277 277 278 277 277 283 285 286 286 286 286 286 284 277 277 272 271 271 272 271 271 270 268 268 268 269 271 271 276 276 276 275 270 265 264 268
287 287 285 282 282 281 278 277 277 277 276 275 274 279 285 286 286 285 286 278 275 273 272 271 272 271 271 270 270 268 267 265 266 266 268 276 276 276 274 271 268 275 276
287 287 285 282 280 279 277 277 277 276 276 275 275 275 275 281 274 276 277 276 275 275 274 273 272 272 271 269 268 266 264 264 264 266 268 268 269 276 274 273 271 270 270
287 287 288 282 279 279 278 277 277 277 277 276 276 277 280 275 276 276 275 275 276 275 275 274 273 272 271 270 269 268 266 265 264 265 265 268 268 270 275 274 272 271 271
287 286 286 283 281 279 278 278 278 278 278 277 276 276 284 280 275 274 275 275 276 276 275 275 274 273 272 271 270 269 269 268 267 265 266 267 269 272 274 273 271 271 271
287 285 284 284 282 282 281 279 278 278 278 277 277 276 276 278 277 276 276 276 276 276 275 276 275 274 274 272 271 271 270 270 269 268 267 267 268 270 271 271 271 270 271
287 286 285 285 283 282 281 280 279 280 278 278 277 276 276 276 276 277 277 277 276 276 276 275 275 275 275 274 272 270 270 270 268 268 267 266 268 270 271 271 271 271 272
287 286 285 285 284 284 283 283 281 279 279 278 277 277 276 276 276 276 276 276 276 276 276 275 275 275 274 273 272 270 270 275 273 270 268 268 268 269 270 271 271 272 272
288 287 286 286 285 285 284 283 282 281 280 280 278 278 277 277 277 277 276 276 276 276 276 275 274 273 273 272 272 272 277 278 277 279 278 275 273 273 273 273 272 272 273

GFSGL_sfc_thetae_087.txt.gz
Theta_e
298 297 296 295 295 295 295 296 297 297 298 299 301 302 303 304 305 307 306 305 303 302 302 300 298 298 297 297 298 299 298 299 298 290 292 292 293 294 294 295 295 295 295
295 295 294 294 294 294 293 293 294 295 295 295 297 297 297 298 300 302 301 301 300 299 299 298 296 296 295 295 296 294 293 295 297 291 290 290 291 291 292 292 292 293 294
294 294 293 293 293 292 292 293 293 293 293 294 294 294 294 294 295 295 296 296 296 296 296 295 294 294 292 292 291 291 291 291 293 293 289 290 290 290 290 291 290 289 289
293 293 292 292 292 292 292 292 292 292 292 292 292 292 292 292 292 293 293 293 292 291 291 291 291 291 290 289 289 290 290 291 291 290 290 289 288 289 288 287 287 287 287
293 292 291 291 291 291 291 291 291 291 291 291 291 291 291 292 292 292 292 291 291 291 291 292 291 291 292 291 289 289 289 289 289 289 287 287 286 286 286 285 285 285 286
292 291 291 291 291 291 291 291 291 291 291 292 292 293 292 293 294 294 292 291 290 289 288 288 288 289 293 293 293 291 289 288 286 287 285 285 284 284 285 284 284 283 282
292 291 291 292 291 291 292 291 291 291 292 291 292 292 292 292 294 293 292 288 287 286 285 285 286 287 286 287 290 289 290 290 288 286 284 284 283 284 284 282 283 283 283
291 291 292 292 291 291 290 289 289 290 289 290 288 289 291 292 293 291 289 285 283 283 283 284 285 285 285 285 285 284 284 286 286 285 285 284 285 284 285 284 284 284 285
290 290 291 291 290 289 288 288 288 288 287 287 288 288 289 290 291 289 284 283 283 282 283 284 285 285 288 285 283 283 282 282 287 288 287 287 287 287 286 285 284 283 282
290 291 291 291 290 288 288 287 286 287 286 286 285 286 288 287 288 287 284 283 282 282 283 285 286 286 286 286 282 281 280 281 283 283 282 283 284 286 285 284 283 281 281
291 291 291 290 289 288 287 287 286 285 284 283 284 284 285 286 288 288 286 282 282 281 281 281 283 286 285 285 283 281 281 283 283 281 281 282 282 283 283 283 282 282 281
291 290 290 289 289 288 287 286 285 283 282 282 282 282 283 283 288 287 286 284 284 281 280 281 282 285 284 284 284 284 287 283 281 281 281 280 281 281 281 282 282 283 283
290 289 289 289 288 287 286 284 283 282 282 281 282 282 282 282 283 288 288 287 285 281 282 283 285 285 284 282 284 285 284 281 280 280 280 280 281 281 280 282 283 283 283
289 289 288 287 287 286 286 284 283 282 281 281 281 280 281 281 281 282 284 285 286 283 284 283 282 282 281 281 282 282 280 280 280 280 280 280 281 281 281 281 280 280 279
289 288 287 287 287 285 285 284 283 283 283 281 281 281 279 278 280 283 283 281 281 282 280 279 277 278 278 278 279 279 280 280 280 280 279 280 280 280 280 281 280 279 276
288 287 287 286 285 285 283 282 287 286 287 286 285 282 280 283 284 286 286 285 285 285 280 278 277 276 277 277 278 278 279 280 280 280 280 280 279 279 279 280 279 276 275
288 287 287 287 285 284 283 282 281 283 287 287 287 287 286 282 286 287 287 287 286 285 280 278 277 276 277 277 278 278 278 279 278 279 279 279 279 279 279 278 278 275 275
288 289 287 286 285 284 283 282 281 280 280 281 286 287 288 287 286 287 288 287 281 282 279 278 277 277 277 277 277 277 277 278 277 278 278 278 278 278 278 277 277 274 274
288 288 287 286 285 285 283 281 280 279 280 279 278 282 287 288 287 287 288 282 279 278 277 276 276 277 276 277 277 276 276 276 275 276 277 277 278 278 277 277 276 276 277
288 289 288 285 284 284 282 281 280 279 278 278 278 278 278 284 281 282 282 281 280 279 278 278 277 277 277 276 276 275 274 274 275 275 275 276 277 277 276 276 275 274 274
288 288 289 285 283 284 282 281 280 279 278 278 279 279 281 279 281 280 280 280 280 280 279 279 279 278 277 277 276 275 273 274 273 273 273 273 274 274 276 277 276 275 274
288 287 287 285 283 282 281 281 280 279 279 279 279 279 284 282 278 278 279 279 280 280 280 280 279 278 278 277 276 275 274 273 273 272 272 272 272 274 275 275 275 274 273
288 287 286 287 284 284 283 281 280 280 279 279 279 279 278 281 281 279 278 278 278 278 279 278 278 278 278 277 277 276 275 274 275 274 272 272 272 273 274 274 274 273 273
288 287 286 286 285 284 283 283 281 282 280 280 279 279 278 278 279 279 279 279 278 278 279 278 278 279 278 277 276 275 275 275 274 273 272 271 271 272 273 273 273 273 273
288 287 286 286 285 285 284 284 283 281 281 281 279 279 279 278 278 278 279 279 279 279 278 278 278 278 277 277 276 275 274 276 273 272 272 271 270 271 271 272 272 273 273
288 287 287 286 286 285 285 284 284 283 282 282 281 281 280 279 279 279 279 278 278 278 278 278 278 277 277 277 276 275 277 279 279 280 275 273 273 273 274 273 273 274 274

GFSGL_sfc_thetae_090.txt.gz
Theta_e
307 307 307 305 305 305 305 305 305 306 306 308 307 310 311 311 311 310 309 308 307 305 308 308 305 303 302 301 302 304 305 306 303 293 294 295 297 298 299 300 298 297 297
304 304 303 303 304 304 303 302 302 303 303 303 304 305 305 305 306 308 306 307 307 306 305 303 300 299 299 301 302 301 301 302 301 295 293 294 295 295 296 295 295 295 296
301 302 301 301 301 301 301 300 300 301 301 301 301 302 301 301 303 304 305 304 304 303 303 302 300 299 297 297 298 297 297 296 299 297 292 293 294 295 295 296 294 294 292
301 300 300 300 300 299 299 299 299 299 299 299 299 299 298 299 299 300 301 300 299 298 298 297 297 297 296 296 295 295 296 297 297 296 294 293 295 294 294 292 292 292 291
300 299 298 297 297 297 297 297 297 298 297 297 297 297 297 297 297 298 297 297 296 294 294 294 294 293 293 294 295 294 295 295 295 295 293 293 292 291 291 290 289 289 290
299 298 297 297 296 296 297 296 296 296 296 297 296 296 296 295 295 295 296 296 295 293 292 293 293 294 294 294 293 291 292 292 291 292 291 290 288 289 289 288 287 286 286
299 297 296 296 296 296 296 296 295 295 296 295 295 295 294 295 296 295 294 292 290 288 289 289 290 290 292 292 292 291 291 290 289 290 288 288 287 288 287 286 286 286 285
298 297 297 297 296 295 294 293 292 293 293 292 290 292 293 294 294 294 291 290 289 289 289 289 288 287 288 287 288 287 288 288 288 287 288 287 287 287 287 287 287 287 288
297 296 296 296 295 294 292 291 291 290 289 289 291 292 292 292 292 291 289 288 286 286 287 288 289 289 287 286 287 285 285 287 289 288 288 288 287 288 288 288 287 286 285
297 297 297 296 294 293 292 290 288 289 288 288 288 290 291 291 290 288 287 286 285 285 286 287 287 288 288 285 285 285 283 284 285 285 285 285 287 287 286 287 287 284 284
296 296 295 294 293 292 289 288 288 287 287 286 287 289 289 289 288 288 287 286 285 285 285 286 287 287 286 286 284 284 283 285 285 284 284 285 285 286 286 286 285 285 283
296 295 294 294 292 290 288 287 287 286 285 285 286 287 287 289 289 288 287 285 286 284 283 284 285 286 285 285 285 285 287 285 284 283 283 284 284 284 284 285 284 284 285
294 294 293 292 290 289 288 286 285 285 284 284 286 285 285 286 288 288 287 286 286 283 284 284 285 286 284 284 285 286 287 284 283 282 283 283 284 284 283 283 284 284 284
294 293 292 290 289 288 287 286 285 284 283 285 285 284 284 284 285 287 287 288 286 284 284 285 284 284 284 283 284 286 285 284 283 283 283 284 284 283 282 283 281 281 280
293 292 290 289 289 287 286 286 285 286 286 286 285 285 284 283 284 286 286 286 286 285 284 282 281 281 282 282 282 283 283 283 282 283 283 283 282 282 282 282 281 280 278
292 291 290 288 288 286 285 284 289 289 289 288 287 286 284 285 286 287 287 286 286 285 282 281 280 280 280 280 280 281 282 282 283 283 283 283 282 281 281 281 281 279 278
293 291 290 289 287 285 285 284 283 287 288 288 288 287 287 284 286 286 287 287 287 286 282 282 281 281 280 280 281 281 281 282 284 283 283 282 281 281 280 280 279 279 278
291 291 290 290 287 286 285 285 286 285 284 285 288 288 289 288 286 287 288 288 285 286 284 283 282 281 281 280 281 281 282 282 281 281 281 281 281 281 280 279 279 278 277
289 289 290 289 287 287 285 285 285 285 284 284 284 285 289 289 288 287 288 286 284 283 284 282 282 282 281 281 281 281 281 281 281 280 280 281 281 280 279 280 279 279 278
290 289 289 287 286 286 285 284 283 283 283 283 282 283 284 287 286 285 286 286 285 284 283 282 282 281 282 282 281 281 280 280 280 280 279 280 280 280 279 279 278 278 278
289 288 290 287 285 285 284 284 284 284 284 283 282 283 284 284 285 285 285 285 285 285 285 284 284 283 283 283 282 281 279 279 279 279 279 279 279 278 279 279 278 278 277
290 288 288 287 285 284 285 285 285 284 284 284 283 283 285 283 282 284 284 284 285 285 285 285 284 284 284 283 282 281 280 279 279 278 277 277 277 277 277 277 277 277 277
288 288 287 288 286 286 285 284 284 284 284 284 283 282 281 283 283 283 282 283 283 284 284 283 283 283 283 283 283 282 281 280 280 280 278 277 276 276 276 276 276 276 276
289 288 288 287 287 285 285 284 284 284 283 283 283 282 282 281 282 283 284 284 283 282 282 282 282 282 282 282 282 282 281 281 281 279 278 277 276 276 276 276 276 276 275
288 288 287 287 286 286 285 285 284 284 283 283 283 283 283 282 282 282 283 284 284 283 282 281 281 282 282 281 281 281 280 280 279 278 277 276 275 275 275 275 276 276 276
287 287 287 287 286 286 285 285 285 285 284 284 284 283 283 282 282 283 282 283 283 282 282 282 282 282 282 282 281 281 280 280 280 279 276 276 274 274 275 274 274 275 276

GFSGL_sfc_thetae_093.txt.gz
Theta_e
310 309 309 308 308 309 308 308 308 309 309 311 311 313 313 314 313 312 311 310 308 308 309 308 306 307 305 304 305 305 306 306 302 294 296 296 297 299 299 300 299 298 298
307 308 307 306 307 306 305 304 305 305 305 305 307 308 308 308 311 310 307 307 307 307 306 304 302 302 302 303 304 303 304 304 302 296 294 294 296 296 297 297 295 296 296
306 305 305 305 305 304 303 303 303 303 303 303 304 304 304 304 306 308 308 308 307 306 304 303 301 301 300 300 300 299 298 298 300 297 292 294 294 295 295 295 293 293 292
305 304 303 303 302 302 301 301 301 301 301 301 301 301 301 301 302 303 304 304 303 301 301 301 300 300 298 298 297 297 297 297 297 296 294 294 294 294 293 291 290 290 289
303 302 301 301 300 300 299 299 299 299 299 299 299 299 299 299 299 300 301 300 298 296 296 296 296 295 297 296 296 295 296 295 295 295 292 292 291 290 289 288 286 287 287
302 301 300 299 299 299 298 298 298 298 298 298 298 298 297 297 295 297 298 297 297 295 294 294 294 294 294 294 294 293 294 293 292 292 290 290 287 287 286 285 285 284 283
302 301 300 299 299 299 298 297 297 297 297 296 296 296 295 296 296 296 296 293 291 290 289 290 291 292 293 292 292 292 291 291 291 289 287 286 285 286 285 284 283 283 282
301 300 299 299 298 298 297 296 295 295 295 294 292 293 294 294 295 295 293 291 291 291 291 291 289 289 288 289 287 287 287 287 287 287 287 286 286 286 286 285 284 284 285
300 299 299 299 298 297 295 294 294 292 290 290 291 292 292 292 294 293 291 289 288 287 288 289 288 287 288 289 287 285 285 286 289 290 289 289 289 289 288 286 284 283 282
300 299 299 299 298 296 295 293 289 291 289 290 289 291 292 291 292 291 290 288 286 285 287 287 288 289 287 286 285 284 282 283 284 284 284 285 287 286 287 285 284 281 282
300 299 298 298 296 296 294 291 289 288 288 287 287 289 290 292 290 290 288 286 285 284 284 285 285 288 288 286 285 282 283 284 284 282 282 283 283 284 284 284 284 283 282
299 297 296 296 295 293 291 289 288 287 286 286 286 287 288 288 289 289 288 286 287 284 283 284 286 287 286 287 284 286 286 286 283 282 282 282 282 282 282 283 282 283 285
296 296 295 295 294 292 290 288 286 286 285 284 284 285 286 286 288 289 289 287 287 283 283 284 286 286 285 285 286 286 287 283 281 281 281 281 282 283 281 281 284 283 281
296 295 295 293 291 291 289 288 286 285 284 284 284 285 285 285 286 287 286 286 286 284 284 285 285 285 286 284 284 285 284 283 282 282 282 282 282 282 282 283 281 282 280
295 295 294 292 291 289 288 287 287 287 286 285 285 285 284 283 284 287 288 286 285 285 284 283 281 281 281 281 281 283 282 281 280 281 282 281 281 281 282 282 281 281 278
293 294 293 291 290 288 287 286 290 289 290 290 290 288 285 287 288 288 289 288 288 287 282 280 279 279 279 280 280 280 280 281 281 282 282 281 280 279 281 281 281 280 277
292 292 292 291 290 287 286 285 284 287 291 291 291 288 288 286 287 287 288 288 288 286 281 280 280 280 279 279 280 280 280 281 280 281 281 280 279 279 281 280 280 279 278
291 293 290 290 290 288 286 285 285 285 284 285 289 289 289 288 287 287 287 288 284 285 282 282 281 281 280 280 280 280 280 281 280 280 280 279 278 278 277 277 278 278 277
290 289 289 289 288 288 286 285 285 285 286 286 286 287 289 290 289 288 288 284 283 283 283 283 283 282 281 281 281 281 280 280 280 279 279 278 279 278 277 277 277 280 279
290 290 290 288 286 286 285 285 284 285 285 284 284 283 284 287 285 285 284 284 284 284 283 283 283 282 281 281 281 281 280 279 279 279 278 278 279 278 277 277 277 276 275
290 289 291 288 286 285 285 284 284 284 284 284 284 284 286 284 285 285 284 284 284 285 284 283 282 282 282 281 281 281 280 280 279 278 278 279 278 277 278 278 277 277 276
289 288 288 289 286 285 285 285 285 284 284 284 285 284 287 284 283 284 285 285 285 285 286 285 284 284 283 282 282 281 280 279 279 278 278 278 278 277 277 277 276 276 276
289 288 287 287 287 287 286 285 285 285 285 285 285 285 283 283 283 282 283 284 284 285 285 285 285 284 284 284 284 283 281 280 280 280 278 277 277 277 277 276 275 275 275
289 288 287 287 287 286 286 285 285 285 285 285 285 285 284 283 283 283 283 283 283 284 284 284 284 284 284 284 283 283 282 282 282 281 279 278 277 277 276 275 275 275 275
287 287 287 287 286 286 286 286 285 285 284 284 284 284 285 284 284 283 284 284 284 284 283 283 283 283 283 283 283 282 282 283 282 281 280 278 277 277 276 275 275 275 275
285 285 286 286 286 286 286 286 286 286 285 285 284 284 284 284 284 285 284 284 284 284 284 283 283 282 282 282 283 282 283 283 282 282 279 277 276 275 275 274 274 274 274

GFSGL_sfc_thetae_096.txt.gz
Theta_e
308 308 307 306 305 304 304 303 303 303 304 306 307 308 309 309 310 311 311 311 310 308 309 307 306 306 304 303 302 303 304 305 301 293 295 296 296 297 298 298 298 297 296
304 305 304 304 304 302 301 300 301 301 301 301 302 304 304 304 306 308 307 308 307 306 305 304 302 302 300 301 302 301 302 301 300 294 293 293 295 295 296 294 294 296 294
301 301 301 302 301 300 300 300 300 300 300 299 300 299 300 300 301 303 306 306 306 305 304 302 300 301 299 299 296 294 295 296 297 293 290 293 293 294 293 292 290 288 290
300 299 298 298 299 297 297 298 297 298 297 297 297 297 297 298 298 299 302 302 300 300 300 300 300 299 297 294 293 292 293 292 292 292 292 292 291 290 290 288 286 286 285
299 298 297 296 296 296 296 296 296 296 296 296 296 296 296 296 296 296 297 296 295 294 295 295 293 295 298 295 293 290 292 291 291 289 291 289 287 287 285 284 282 282 282
298 297 297 296 295 295 295 294 294 294 295 295 295 295 294 296 297 298 297 293 293 291 289 290 293 294 295 296 296 296 294 290 288 291 284 285 285 283 282 281 280 277 277
297 297 296 296 295 295 295 294 293 293 293 292 292 293 294 295 296 297 296 292 291 289 289 289 291 293 291 289 293 293 293 294 292 288 286 282 281 282 282 279 280 277 277
296 296 296 296 295 295 294 293 291 291 293 292 288 290 293 294 296 296 294 290 290 290 290 289 287 286 288 286 285 283 283 285 286 286 282 282 283 283 283 281 281 280 281
296 295 296 296 295 294 291 291 293 291 289 288 290 290 291 292 295 294 291 288 287 286 286 286 285 284 290 290 285 283 283 283 290 291 290 290 290 290 287 282 278 277 277
296 296 296 296 294 292 291 292 288 290 288 289 289 291 292 290 294 293 290 286 284 283 283 285 290 286 289 290 283 282 281 281 282 281 281 285 285 286 288 281 279 272 274
297 296 295 295 293 292 290 290 288 288 288 287 288 289 290 290 290 292 290 284 282 281 282 282 283 290 288 287 285 281 281 282 284 280 279 279 280 281 280 281 281 274 271
295 295 293 292 293 292 290 289 288 287 287 286 286 286 287 288 291 291 289 287 287 282 281 282 284 288 288 287 283 286 288 286 280 279 279 278 278 277 278 279 280 279 278
293 292 292 292 292 292 290 288 287 287 286 285 285 284 284 285 284 290 290 289 287 282 281 284 288 288 287 286 286 287 287 281 279 278 278 277 276 276 276 276 278 280 275
292 292 291 290 291 290 289 288 287 286 285 284 284 284 284 283 283 283 284 284 287 283 285 283 284 285 285 283 284 284 282 281 279 278 277 277 277 274 274 275 276 280 279
292 293 292 292 291 289 288 287 287 287 287 285 285 285 284 282 283 287 285 283 282 283 282 281 280 279 280 279 279 281 281 281 278 277 276 277 278 278 276 276 280 279 277
293 292 291 290 289 288 287 286 291 290 290 291 290 288 285 288 289 289 290 290 289 288 281 279 278 278 278 279 279 279 280 281 279 278 276 277 276 276 274 277 280 279 277
292 292 291 290 289 287 286 285 284 287 291 291 291 291 291 287 289 289 289 290 289 288 281 279 278 278 278 278 279 278 277 278 274 276 278 275 273 272 277 275 279 279 278
291 293 289 290 289 288 286 285 285 284 284 285 290 291 291 289 288 288 288 288 284 286 281 279 279 279 279 279 278 277 277 276 276 277 274 274 274 273 269 269 271 272 271
290 289 289 288 288 288 286 285 285 285 285 284 284 288 291 291 290 289 288 283 282 282 282 280 281 280 280 279 278 278 277 276 274 272 276 276 275 273 271 272 273 280 277
290 291 290 287 287 286 285 284 284 284 284 285 284 284 284 287 285 285 285 283 282 282 282 282 282 282 281 280 280 279 277 279 276 277 277 277 276 276 275 274 274 273 275
289 289 291 288 286 286 285 285 284 284 284 284 284 285 286 283 284 284 284 284 283 283 283 283 282 282 282 281 280 279 279 279 278 278 278 278 277 277 277 277 276 275 274
289 288 287 287 286 285 285 285 285 284 284 284 284 285 289 286 283 284 284 284 284 284 284 284 283 283 282 281 280 279 279 279 278 278 278 278 278 278 277 277 276 275 274
287 287 287 287 286 288 286 285 285 284 284 285 285 285 285 285 284 283 283 284 285 284 284 284 284 283 283 283 282 281 280 280 281 280 278 278 278 278 277 276 276 275 275
287 286 286 287 286 286 286 285 285 286 285 285 285 285 285 284 284 284 284 283 283 283 284 284 284 284 284 284 284 284 283 283 283 280 279 278 277 278 277 276 276 275 275
284 285 285 285 286 286 286 286 285 285 285 285 285 285 285 285 285 284 283 284 284 283 283 283 284 284 284 284 284 284 284 285 282 281 280 279 278 277 277 276 276 275 275
282 282 282 283 284 285 285 285 285 285 285 285 285 285 285 285 285 285 285 284 284 284 284 284 284 284 284 284 284 284 285 285 284 284 281 279 278 277 277 276 275 275 275

GFSGL_sfc_thetae_099.txt.gz
Theta_e
305 305 305 307 306 305 304 304 305 304 305 305 306 307 307 307 308 308 309 310 311 310 310 310 308 308 306 304 305 305 306 307 303 294 295 297 297 297 298 298 298 297 298
303 303 303 305 305 303 302 301 302 300 301 301 302 303 303 303 304 306 305 306 308 308 308 306 304 304 303 303 303 302 300 303 301 294 293 294 295 296 296 294 294 296 294
301 300 300 301 299 298 299 299 300 300 299 300 299 298 298 299 299 300 303 307 305 306 305 303 302 302 300 301 300 298 298 298 299 294 291 294 293 294 294 294 292 289 290
299 298 297 297 296 296 296 297 297 296 297 296 296 296 296 297 297 297 299 301 301 301 302 301 301 300 299 298 297 296 293 293 294 293 292 291 292 293 292 288 286 286 285
297 296 295 295 295 295 294 295 295 295 296 295 295 295 294 294 296 295 296 296 296 296 295 295 296 298 299 297 295 291 291 290 289 291 291 290 289 286 286 285 284 282 282
296 295 295 295 294 294 294 293 293 293 293 294 293 294 293 295 297 298 297 293 292 291 290 291 293 296 297 299 297 296 293 290 287 285 287 282 284 284 283 282 281 277 278
295 295 295 294 294 293 293 293 292 291 291 290 290 291 291 292 297 297 297 294 292 290 289 289 290 292 292 292 295 295 295 296 293 289 287 285 282 282 282 280 279 278 277
295 295 295 294 294 293 292 291 290 289 289 290 289 288 289 293 297 297 295 291 291 291 291 290 290 287 287 286 284 283 284 285 285 285 284 282 283 283 283 282 281 280 280
294 294 295 295 293 292 290 289 290 291 290 290 290 287 288 291 296 295 292 289 289 288 289 288 288 286 291 291 283 282 282 284 290 291 290 290 290 289 286 282 279 278 277
294 294 295 294 293 291 290 289 289 291 289 289 287 288 291 291 295 294 290 287 285 285 285 286 290 286 291 291 283 282 281 281 282 282 283 286 286 287 288 282 280 273 274
296 295 294 294 292 291 289 288 290 289 288 288 288 290 290 291 291 294 293 286 284 283 283 283 284 290 290 290 287 282 282 283 285 280 279 280 280 280 280 281 281 275 270
295 294 293 292 292 290 288 289 289 288 287 287 287 287 288 290 292 293 293 289 287 283 282 281 283 290 289 288 285 286 288 286 280 279 279 278 279 278 279 280 280 279 278
293 292 291 291 290 289 289 288 287 287 287 286 285 285 285 285 286 292 292 290 288 282 281 284 287 289 288 287 286 288 289 281 280 279 279 278 278 278 277 277 278 277 273
291 290 290 289 290 290 290 289 288 286 286 285 285 284 285 284 284 285 286 286 289 285 285 284 286 287 286 284 285 285 282 281 279 279 279 278 278 274 275 274 270 272 277
291 291 292 292 292 289 289 288 288 288 287 286 285 285 284 284 284 287 286 283 282 282 282 282 281 281 281 280 280 281 282 282 280 279 279 279 279 278 277 272 272 274 277
291 292 292 291 290 288 287 287 291 291 291 292 291 288 287 289 289 290 290 290 288 287 282 280 280 280 279 280 279 279 280 283 280 280 279 279 278 276 275 273 274 275 275
290 292 291 291 288 288 287 286 285 287 292 292 292 292 292 289 290 290 290 290 290 289 282 280 279 279 279 279 279 279 279 280 280 279 277 277 276 274 279 274 272 272 271
288 292 289 290 289 289 287 286 285 285 284 285 291 291 292 292 290 289 289 289 285 287 283 281 279 279 278 278 279 279 279 279 278 278 277 277 276 274 271 271 271 270 270
288 289 289 288 288 288 286 285 285 285 285 285 285 287 291 293 292 290 289 284 284 283 283 282 281 281 280 280 279 279 278 278 278 278 278 277 276 276 273 275 274 279 276
290 291 291 287 287 287 286 285 285 284 284 285 285 285 285 288 286 287 286 284 283 283 283 282 282 281 281 280 280 279 278 279 279 278 278 277 277 277 277 275 275 275 276
289 289 291 288 286 286 286 285 285 284 284 284 285 286 288 284 285 285 285 285 284 283 283 283 283 282 282 282 281 280 279 279 279 279 278 277 277 276 278 278 277 277 276
288 287 287 286 286 285 285 286 285 285 284 284 285 285 289 287 284 283 284 285 285 285 284 284 283 283 283 283 282 281 280 279 279 278 278 278 278 278 278 278 277 277 276
286 286 286 286 286 287 287 286 285 285 285 285 285 285 285 285 285 285 284 285 285 285 285 284 284 284 284 284 283 282 281 280 280 279 278 279 279 278 278 277 277 276 276
284 284 284 285 285 286 285 285 285 286 285 285 285 285 285 285 285 285 285 285 284 285 285 284 284 284 285 284 284 283 283 283 282 281 280 279 278 279 278 277 277 276 276
280 280 281 282 283 284 284 285 285 285 285 285 285 285 285 285 285 285 285 285 285 284 283 284 284 284 284 285 284 283 283 285 283 283 281 280 279 279 278 277 277 276 276
278 278 278 278 280 281 281 282 282 284 285 285 285 285 285 285 285 285 285 285 284 284 284 284 284 284 284 285 285 285 286 286 285 286 282 280 279 278 278 277 277 276 276

GFSGL_sfc_thetae_102.txt.gz
Theta_e
306 305 306 306 306 306 306 306 306 306 307 306 308 308 307 307 306 307 308 309 309 309 310 312 312 310 309 308 307 307 308 309 305 294 296 297 297 298 298 298 298 297 299
303 303 303 303 302 302 301 302 301 300 300 302 301 302 302 302 302 303 305 304 305 309 309 306 308 306 306 305 305 305 304 304 302 294 293 294 295 297 297 295 295 295 296
301 300 300 299 299 298 298 299 299 298 298 299 299 298 298 298 298 299 300 303 305 306 307 305 305 304 302 302 302 301 301 300 299 295 292 294 294 295 294 293 291 289 291
299 298 297 297 296 296 296 296 296 296 295 295 296 296 296 295 296 296 297 300 301 302 302 302 302 302 301 300 299 298 297 297 297 294 292 292 292 293 293 289 287 287 284
297 297 295 295 295 294 294 294 294 294 294 294 294 294 293 294 295 294 294 295 295 295 295 296 297 299 300 299 297 295 295 294 293 293 291 291 289 289 289 288 285 282 281
296 295 294 294 294 293 293 293 293 292 292 293 292 293 292 294 298 298 297 293 292 291 290 293 294 297 298 300 298 297 295 290 288 290 289 288 288 287 286 284 281 278 279
295 294 294 294 293 293 292 292 291 290 291 290 289 290 290 291 297 298 298 294 293 291 289 290 291 293 294 294 296 296 297 298 294 290 288 288 285 284 282 280 281 279 279
294 294 294 293 293 292 291 290 289 289 288 288 290 289 288 291 297 298 296 292 292 292 291 291 291 289 289 288 285 284 284 284 286 289 288 286 284 284 284 283 282 280 280
294 293 294 294 292 291 290 289 288 288 288 290 290 289 287 288 295 296 293 290 289 289 290 290 289 288 292 290 284 283 283 284 290 291 289 290 290 290 286 283 281 281 278
294 294 294 293 292 291 289 288 286 288 290 289 288 287 289 288 295 296 292 288 287 286 286 287 292 288 292 291 283 281 282 283 283 284 284 286 287 288 289 283 282 278 277
295 295 294 293 292 291 288 289 287 288 289 288 287 288 290 292 291 295 294 287 286 284 284 284 285 291 291 292 288 282 282 283 285 281 281 280 281 281 282 282 281 278 273
295 294 293 292 292 290 288 288 287 289 288 288 288 287 289 290 293 293 295 292 288 284 283 284 284 291 290 290 287 287 289 287 281 280 280 280 280 279 280 281 281 280 279
293 292 291 290 290 290 290 287 288 288 287 287 286 286 287 287 287 293 293 294 290 284 283 285 287 290 290 288 288 287 289 281 280 279 279 279 279 279 279 279 279 278 276
291 290 289 288 288 289 290 289 288 287 287 286 285 285 286 285 284 285 287 288 291 287 286 285 287 287 287 285 285 285 282 281 280 280 279 279 278 278 278 277 274 273 273
290 290 291 291 292 290 289 289 288 289 288 286 286 286 285 285 286 287 286 284 283 284 282 281 281 281 281 281 281 281 282 282 280 279 279 279 280 279 278 275 274 271 271
291 291 291 291 291 289 288 288 292 292 292 292 292 290 287 290 291 291 291 291 290 289 283 281 280 280 280 281 280 279 280 283 281 280 279 280 280 278 277 273 272 272 271
289 289 289 291 290 289 287 287 286 288 292 293 293 293 293 292 291 292 291 291 291 289 283 280 280 280 280 280 280 279 279 281 280 280 277 279 279 279 280 275 274 273 272
287 291 288 287 287 289 288 287 286 285 285 286 290 292 293 293 293 291 291 290 285 288 284 282 280 280 280 279 279 279 279 279 280 279 279 279 279 277 275 275 275 275 273
286 287 289 288 288 288 287 286 286 285 285 285 285 287 290 292 293 293 291 286 284 284 283 283 282 281 280 279 279 279 279 278 278 278 279 278 278 278 278 277 277 280 277
289 290 291 288 287 287 286 286 285 285 285 285 285 285 285 287 286 287 288 286 284 284 283 283 282 282 281 281 280 279 278 279 279 278 278 278 279 279 279 278 277 276 278
288 288 290 288 287 286 286 286 285 285 285 285 285 286 289 285 285 286 286 286 286 284 284 283 283 283 282 282 281 280 280 279 279 280 279 278 278 277 279 279 277 277 277
287 286 286 285 286 286 286 286 285 285 285 285 285 286 289 287 285 285 285 286 286 286 285 284 283 283 283 283 282 281 280 280 280 280 279 279 278 278 278 278 278 277 277
282 283 285 285 285 287 286 286 285 285 285 285 285 285 285 285 285 285 285 285 285 286 286 285 284 284 284 284 284 283 282 281 282 281 279 279 279 278 279 278 278 277 277
280 280 280 281 283 284 284 285 285 286 285 285 285 285 285 285 285 285 286 286 285 285 285 285 285 284 285 285 284 284 284 284 284 282 281 280 279 280 279 278 278 278 278
279 278 278 278 278 279 281 281 282 283 284 285 285 285 285 285 285 285 286 285 285 285 285 285 285 285 284 285 285 285 284 285 284 283 281 281 279 279 279 278 278 278 277
278 278 277 277 276 277 279 279 279 279 280 281 281 283 284 285 285 285 285 285 285 285 285 285 284 284 285 285 285 285 287 287 285 286 283 281 280 279 279 279 278 278 277

GFSGL_sfc_thetae_105.txt.gz
Theta_e
311 308 309 308 308 307 307 306 306 306 307 307 307 307 307 306 307 306 306 306 306 306 310 310 311 312 311 310 310 310 310 310 307 295 296 297 298 298 299 299 299 298 300
305 306 305 304 304 303 302 301 302 301 302 301 302 302 301 301 301 300 301 303 303 305 308 308 308 307 307 307 306 307 306 306 303 295 294 295 296 297 297 296 296 296 297
302 302 301 300 299 298 298 298 298 298 298 299 298 297 297 297 297 297 297 299 301 302 303 306 305 305 304 303 302 302 302 301 300 296 292 294 294 296 294 294 292 290 293
299 299 298 297 296 296 296 296 296 297 297 295 295 295 294 294 295 295 295 296 297 298 298 298 299 301 301 301 300 300 299 298 298 295 293 292 293 294 293 290 288 287 286
298 297 296 295 295 294 294 294 294 294 294 294 293 293 292 293 295 294 293 293 293 293 293 293 295 297 300 301 298 297 297 296 296 294 292 291 289 290 290 289 286 284 283
296 296 295 294 293 293 293 292 292 292 292 292 291 292 291 294 298 299 297 292 291 290 290 290 292 295 297 300 300 299 297 294 292 291 290 289 289 289 287 287 284 283 281
295 294 294 293 293 292 292 291 290 290 290 289 288 289 289 290 297 298 298 291 290 292 291 291 292 293 294 294 295 295 296 298 296 291 290 290 288 288 286 284 283 282 280
294 294 293 293 292 291 291 290 289 288 288 287 290 290 287 290 296 297 297 289 289 291 292 292 291 291 290 290 287 287 286 286 287 290 290 290 288 286 287 284 283 281 281
294 293 293 293 292 291 289 288 288 288 287 287 290 290 287 287 294 297 295 288 287 288 290 290 290 289 291 291 286 285 285 285 291 291 291 291 291 291 287 284 281 281 278
293 294 293 293 292 290 289 288 286 287 287 289 289 289 289 287 293 296 294 289 286 287 287 287 292 290 292 292 284 284 283 283 283 285 283 286 287 289 289 283 282 279 277
295 294 293 292 292 290 288 288 288 285 286 289 288 289 286 289 291 295 296 289 286 285 285 285 285 292 292 293 289 283 283 285 286 281 280 281 281 282 282 282 282 280 277
295 294 293 292 292 290 288 288 286 288 289 288 288 287 287 290 292 294 295 295 290 284 284 284 285 289 291 291 290 288 288 287 280 280 280 279 280 280 280 280 281 281 281
293 292 291 290 290 288 287 288 289 289 288 288 287 287 286 287 287 292 294 295 295 286 283 285 288 289 291 289 289 288 289 281 280 279 279 279 280 280 279 279 280 279 278
291 290 290 289 288 288 289 289 289 288 287 286 286 286 287 285 286 286 286 289 291 290 288 285 287 288 288 286 286 284 282 281 280 279 279 280 279 278 278 278 276 274 275
291 290 289 289 290 288 290 290 288 289 289 287 287 287 286 286 286 289 287 285 285 286 283 280 281 282 283 282 281 281 281 281 280 280 278 278 279 279 278 276 274 275 275
290 290 290 290 289 289 288 288 293 292 292 293 293 291 287 291 292 292 292 292 291 291 283 279 279 281 281 281 281 280 280 282 281 280 279 280 280 279 278 276 275 275 275
287 287 287 290 290 290 289 287 284 289 293 293 293 294 294 293 292 292 292 292 292 291 283 280 279 280 280 280 280 280 280 281 281 280 279 279 278 278 280 277 277 276 275
285 290 286 285 285 288 287 285 286 286 286 286 290 292 292 293 294 293 293 291 287 287 282 282 280 280 280 279 280 280 280 279 280 280 279 279 279 278 278 277 277 276 276
287 285 285 285 286 287 286 287 286 286 286 286 286 288 290 292 292 293 294 288 285 282 282 282 281 281 281 280 279 279 279 278 278 278 279 279 279 278 278 279 278 280 279
289 290 290 288 287 287 287 286 286 285 285 286 285 285 286 287 285 286 287 287 286 284 283 282 282 283 282 281 280 279 278 279 279 279 278 279 279 278 278 278 278 278 280
287 286 289 286 286 286 286 286 286 285 285 285 286 286 289 286 285 285 286 286 286 286 285 282 283 282 282 282 281 281 280 279 278 278 278 278 278 277 279 279 279 278 278
281 285 285 285 285 285 285 286 285 285 285 285 285 286 289 288 286 285 285 286 287 287 287 286 284 284 284 283 283 282 281 280 280 279 279 278 278 278 279 279 279 278 277
280 280 280 282 283 285 285 285 284 284 285 285 285 285 285 285 285 285 285 286 286 286 286 286 285 284 284 284 284 283 282 282 282 281 280 280 279 279 278 278 278 278 277
279 279 278 278 279 280 280 282 282 284 284 284 284 285 285 285 285 285 285 285 285 285 285 285 285 285 285 285 284 284 284 285 284 282 281 280 279 280 278 278 278 278 278
279 278 278 277 277 277 278 278 278 279 280 281 281 281 282 283 284 285 285 285 285 285 285 285 285 285 285 285 285 285 285 286 285 284 282 282 280 280 280 279 279 278 278
278 278 278 277 277 277 277 278 278 279 278 279 279 279 279 280 281 282 283 284 285 285 285 285 285 285 285 285 285 285 287 287 286 287 284 282 281 280 280 279 279 278 278

GFSGL_sfc_thetae_108.txt.gz
Theta_e
311 311 311 310 309 309 308 307 306 306 307 307 307 306 306 305 304 305 305 305 307 306 307 310 310 310 307 308 309 310 310 311 309 296 297 298 299 299 300 300 300 300 302
307 307 306 305 305 304 303 302 303 301 302 302 302 301 300 299 298 299 299 300 301 301 303 306 307 307 305 306 306 306 306 307 305 298 294 295 296 298 298 297 296 297 299
305 303 302 302 301 300 299 299 299 298 298 298 298 297 296 296 295 295 295 296 297 298 299 299 301 301 300 302 303 302 302 302 301 297 293 295 295 297 295 294 293 293 295
300 300 299 298 298 297 297 296 296 297 296 295 295 295 294 293 294 293 294 293 294 294 295 294 294 295 296 300 300 300 300 299 299 296 294 293 293 295 294 290 288 288 287
298 297 296 295 294 294 294 294 294 294 293 294 293 292 292 293 295 293 293 291 291 291 291 292 292 295 299 300 299 297 297 297 297 295 293 292 291 291 291 290 287 285 284
296 295 294 294 293 293 292 292 292 291 292 292 291 291 291 293 299 299 295 291 290 290 289 290 290 294 295 299 300 300 298 295 293 292 291 290 290 290 289 288 285 283 283
295 294 293 293 292 292 291 291 290 290 290 289 288 289 288 289 298 298 297 289 289 288 288 288 291 293 293 293 294 294 295 296 298 293 291 291 290 289 288 286 285 284 284
293 293 293 292 291 291 291 290 288 289 288 289 290 290 287 289 295 297 296 288 287 287 288 288 290 291 291 291 289 288 287 287 288 291 291 292 292 290 290 288 286 283 282
292 292 293 292 291 290 289 288 288 288 287 286 289 290 289 286 293 296 293 289 287 285 288 290 290 290 292 293 287 286 285 286 290 292 292 292 292 292 288 286 283 283 281
293 293 293 293 291 291 289 288 287 288 287 287 289 290 290 287 292 295 295 290 288 287 285 287 290 292 293 293 285 284 284 284 285 285 285 285 286 289 290 283 283 281 278
294 293 293 292 292 291 288 288 289 286 286 288 289 289 289 287 288 294 295 291 288 286 283 283 285 289 293 293 290 283 284 285 287 283 283 282 282 282 282 282 282 278 276
294 293 292 291 292 290 288 289 286 286 286 288 288 287 286 288 292 293 295 295 293 286 285 282 283 289 290 292 291 290 289 288 283 282 281 280 279 279 280 281 282 281 280
293 293 292 291 291 289 288 288 287 287 288 288 287 286 287 288 287 292 294 295 295 288 285 285 288 289 290 290 290 290 289 284 281 281 280 277 280 280 279 279 280 280 280
292 291 290 289 288 287 288 288 288 288 288 287 286 286 287 287 287 287 287 287 291 290 290 286 286 287 288 287 287 285 283 283 281 279 277 277 279 276 277 278 275 276 275
292 291 290 290 290 288 288 288 288 289 288 285 286 287 286 285 287 289 288 285 286 287 287 281 280 280 281 281 281 281 281 282 280 278 278 278 279 279 279 275 276 275 274
290 290 290 290 289 289 287 289 293 293 293 293 293 290 288 291 292 293 293 293 293 291 286 281 278 278 279 281 280 280 280 282 280 280 279 279 278 277 277 276 275 272 273
286 287 287 289 290 290 289 288 287 289 293 294 294 294 294 294 294 293 293 293 292 292 287 282 278 279 278 279 279 279 278 280 279 279 277 277 278 279 280 277 276 275 274
285 289 285 284 284 285 285 285 287 286 286 287 291 292 293 293 293 294 294 293 287 288 285 284 282 279 279 278 279 278 278 278 279 280 279 278 278 278 277 276 277 276 276
288 288 287 285 283 285 285 286 286 286 286 286 286 288 291 292 292 293 293 289 287 285 284 283 281 280 279 278 278 278 279 278 278 279 279 279 278 278 278 279 278 280 279
288 289 289 286 287 287 286 286 286 286 286 286 286 286 286 287 285 285 286 285 286 286 285 284 283 282 281 280 278 279 278 279 279 278 277 278 279 279 279 278 278 277 280
283 285 287 285 285 285 285 285 285 285 285 285 285 286 290 286 285 285 285 285 285 286 286 285 284 283 284 281 281 280 279 280 279 280 279 277 277 277 279 279 279 279 279
280 281 281 282 284 284 285 285 285 285 285 284 285 286 289 287 285 285 285 285 286 287 287 287 286 285 284 284 283 282 282 280 280 280 279 279 279 279 279 279 279 278 278
279 279 279 279 279 281 281 283 284 284 284 284 285 285 285 285 285 284 284 285 285 285 286 286 286 286 285 285 285 284 282 282 282 281 280 280 279 278 278 278 278 278 277
279 279 278 278 278 278 278 279 279 280 281 281 281 283 282 283 284 284 285 285 285 285 285 285 285 285 285 285 285 284 284 284 285 283 283 281 279 280 279 278 278 278 278
279 278 278 277 277 277 277 278 278 278 278 278 279 279 279 279 279 280 279 283 283 284 285 285 285 285 285 285 285 285 285 286 285 284 283 282 281 279 279 278 278 278 278
278 278 277 278 277 277 277 277 276 277 276 278 279 278 276 276 277 276 276 276 276 279 281 282 283 284 285 285 285 286 287 287 287 287 285 283 281 281 280 280 279 279 279

GFSGL_sfc_thetae_111.txt.gz
Theta_e
317 318 318 317 317 317 316 314 313 314 314 314 313 312 310 308 309 310 310 310 310 310 312 312 310 312 312 313 313 313 313 313 309 301 301 301 300 302 302 302 302 303 306
314 314 313 313 313 311 310 309 310 309 309 309 307 305 304 303 304 304 304 305 306 306 307 309 308 308 309 309 310 309 309 308 307 304 297 298 299 301 301 299 297 299 301
310 309 308 308 308 306 306 306 305 305 304 304 303 301 300 300 300 300 301 301 302 303 303 303 302 303 304 305 305 306 306 304 303 299 295 296 296 298 297 296 295 295 298
306 306 305 305 304 303 302 301 301 301 300 299 299 298 298 298 298 298 298 299 299 299 299 299 299 299 300 302 302 302 302 302 301 299 296 294 295 297 296 292 290 291 289
302 302 301 300 299 299 298 298 298 298 297 297 296 296 297 298 297 297 297 297 297 296 296 296 297 297 298 301 301 301 301 300 299 297 294 293 292 292 292 292 289 287 286
300 298 297 297 297 296 296 296 296 295 295 296 295 296 296 298 300 299 296 295 295 294 294 295 295 295 297 298 300 300 300 299 297 295 294 292 292 292 291 290 286 285 284
298 297 296 296 295 295 295 295 294 294 294 293 293 294 294 297 299 299 296 294 293 293 292 293 294 295 295 295 295 294 293 295 296 297 294 294 293 292 291 289 287 288 288
297 296 296 295 294 294 294 293 292 293 292 292 292 292 292 295 298 298 296 293 292 291 292 292 293 293 294 294 293 291 289 289 290 290 293 294 294 293 292 291 290 285 284
295 295 295 295 293 293 292 292 292 291 290 290 292 292 291 292 295 297 295 292 291 291 291 292 292 292 293 294 290 289 287 287 290 294 293 293 293 294 291 288 286 286 283
295 295 295 294 294 293 292 291 289 291 290 292 292 292 292 291 293 296 296 293 291 291 290 290 290 291 294 294 289 288 286 286 286 286 286 287 288 292 290 287 288 287 284
296 295 294 294 294 293 291 291 290 290 290 291 291 292 291 291 291 295 296 293 292 290 289 288 288 290 291 293 293 287 286 287 288 285 284 284 284 285 284 285 287 288 285
295 295 294 294 293 292 291 291 290 290 290 290 291 290 290 290 293 294 295 296 294 291 289 288 287 289 290 292 292 291 291 288 285 284 283 283 283 283 284 284 284 285 286
295 294 293 293 292 291 291 290 289 289 289 290 289 289 290 290 291 293 294 295 296 292 289 288 289 289 290 290 291 291 291 286 284 283 283 282 283 284 283 283 283 283 283
294 293 293 292 292 291 291 291 291 290 290 289 288 288 289 289 290 290 290 290 292 292 292 289 289 288 288 288 289 288 286 286 285 284 283 283 282 282 282 282 282 282 282
293 292 292 292 292 291 290 291 291 292 291 289 289 288 288 288 288 290 289 288 288 289 288 285 284 284 284 285 285 285 285 284 284 283 283 282 282 282 282 281 281 281 281
291 291 291 291 291 290 290 291 293 293 294 294 293 291 290 292 292 293 293 294 294 294 288 284 284 283 283 283 284 284 284 284 284 284 283 282 282 281 281 280 281 281 280
287 288 288 289 290 291 290 289 288 291 294 294 294 294 294 294 294 294 294 294 294 293 288 285 284 283 283 283 283 283 283 284 284 283 283 283 282 281 282 280 280 280 280
288 289 287 287 287 287 287 287 287 287 288 289 292 294 294 294 294 294 294 294 289 290 287 286 284 283 282 283 283 283 283 283 282 283 283 282 282 281 281 280 280 280 280
288 288 288 288 287 288 287 287 287 287 287 287 287 289 291 293 293 293 294 289 287 287 287 286 285 284 284 284 283 283 282 282 282 282 282 282 282 282 281 282 281 281 281
286 287 288 286 286 286 286 286 286 286 286 286 286 286 287 288 286 286 287 286 286 286 286 286 285 284 284 284 283 283 282 282 282 281 281 282 282 282 281 281 281 281 282
282 283 286 285 285 285 285 285 285 285 285 285 285 286 289 286 285 285 285 285 285 285 286 286 286 285 285 285 284 283 282 282 282 282 282 281 281 280 281 282 282 281 282
281 281 281 281 282 282 285 285 285 285 285 284 285 285 288 286 285 285 285 285 286 286 286 286 286 286 286 285 285 284 283 283 283 282 282 281 281 280 281 281 281 281 281
281 280 280 280 280 281 280 281 281 282 282 282 283 284 285 285 285 285 285 285 285 285 286 285 285 286 286 286 285 285 285 284 285 284 282 281 281 281 281 280 280 280 280
280 279 279 279 279 279 279 279 279 280 280 279 280 281 280 281 281 282 283 284 284 284 285 285 285 285 285 285 285 285 285 285 285 285 284 283 282 281 280 280 280 280 280
280 279 278 278 278 278 278 278 278 278 279 279 279 279 279 278 278 278 279 280 280 282 282 282 283 284 284 285 285 285 285 286 285 285 285 284 283 282 281 281 280 280 280
279 278 278 278 277 277 276 276 277 277 277 278 278 279 278 277 277 277 277 278 278 278 278 279 279 278 278 280 281 281 284 285 286 287 286 284 283 283 282 281 281 280 280

GFSGL_sfc_thetae_114.txt.gz
Theta_e
326 327 326 325 325 325 324 323 323 323 324 323 322 321 319 319 320 319 318 317 316 315 316 315 314 314 315 315 316 315 313 314 310 310 310 308 304 307 306 307 307 307 309
322 322 322 321 321 321 319 319 320 320 320 318 317 315 314 314 315 315 312 313 312 312 312 312 311 310 311 313 313 312 311 312 308 307 304 302 303 305 304 302 301 301 303
320 318 317 317 317 315 314 315 315 315 314 313 313 310 308 308 309 309 309 308 309 309 309 309 308 308 308 309 308 307 308 307 307 305 302 299 299 300 299 297 297 297 298
317 315 314 313 314 314 312 311 311 311 310 309 308 306 305 304 305 304 305 305 305 305 304 304 304 304 305 306 306 306 305 305 305 303 299 298 298 299 298 294 292 293 292
313 312 311 310 310 309 309 309 307 307 305 304 303 303 303 303 302 303 303 303 303 302 301 301 301 300 298 301 303 303 302 301 302 301 298 296 295 294 294 293 290 289 289
309 308 306 305 305 305 304 304 304 303 302 302 301 302 302 300 299 300 301 301 300 300 299 299 299 297 299 298 300 299 300 300 298 298 297 294 295 294 293 291 287 286 286
304 304 303 303 302 302 301 301 300 300 300 300 300 301 301 301 300 298 298 299 298 297 297 297 298 298 298 298 297 296 296 295 295 295 295 296 296 296 293 290 288 288 289
302 302 301 302 300 300 300 299 299 299 298 298 297 299 299 300 299 298 296 298 297 296 296 297 297 297 297 297 297 296 296 294 292 292 292 293 295 296 294 293 291 287 285
302 301 301 301 299 299 298 298 298 297 295 296 296 297 298 298 298 298 297 297 296 296 296 296 296 296 295 294 294 292 294 293 291 293 292 293 294 295 294 289 287 286 284
301 301 301 301 300 299 299 298 297 298 295 297 296 297 297 297 296 298 298 297 296 295 295 295 292 294 294 294 295 293 292 292 290 289 287 288 289 292 291 288 289 287 286
301 301 301 300 300 300 298 297 296 296 295 294 295 296 296 297 297 296 297 297 297 296 295 294 293 291 292 294 295 292 291 290 290 288 286 286 286 286 285 286 287 288 286
300 300 299 300 298 298 297 295 297 297 297 295 295 295 296 296 294 295 296 297 296 295 294 294 292 290 291 292 293 293 292 290 289 287 285 285 285 285 285 286 286 287 287
300 299 299 299 298 298 298 296 296 297 297 295 293 294 295 295 296 295 296 296 296 295 293 294 291 290 290 291 292 292 292 291 288 286 285 285 286 286 285 285 286 286 285
297 297 298 298 297 297 297 297 297 296 296 295 293 293 295 295 295 295 294 295 295 295 294 293 291 290 289 289 289 291 290 290 288 287 287 286 286 285 285 286 286 286 286
294 293 293 293 294 294 294 295 296 297 296 295 294 295 294 293 294 294 294 292 293 292 292 289 288 287 286 287 288 288 289 288 287 287 286 286 285 285 285 285 284 284 284
293 293 292 293 292 291 291 291 294 294 294 294 294 293 292 294 293 293 293 293 294 293 289 288 287 286 284 285 287 286 287 287 287 287 287 286 285 285 284 284 284 283 283
291 292 292 292 293 294 292 289 288 291 294 294 294 295 294 293 294 294 294 294 295 294 290 287 286 285 284 284 286 287 287 287 287 287 287 286 286 285 284 283 283 283 283
290 290 290 290 290 291 291 291 291 291 291 292 293 294 295 295 295 295 295 294 291 292 289 288 287 286 285 285 285 287 288 287 286 286 286 286 285 285 284 283 283 282 283
288 289 289 289 289 289 289 289 289 290 290 291 292 291 292 294 294 294 294 290 289 288 288 288 288 287 286 286 288 289 288 287 286 285 286 285 285 285 284 284 284 283 283
286 286 288 287 287 287 287 287 287 287 287 288 287 287 288 289 287 287 288 287 286 287 287 287 287 287 286 286 286 286 286 286 286 285 285 285 285 285 284 284 284 283 283
283 284 284 284 284 285 286 286 286 285 285 285 286 287 289 286 285 285 285 286 286 286 286 287 288 288 287 286 286 285 285 285 286 285 285 285 285 284 284 284 284 284 284
283 282 282 282 282 282 284 284 285 285 285 285 285 285 288 286 285 285 285 285 286 286 286 286 286 287 287 286 286 285 285 285 285 285 285 285 284 284 284 284 283 283 283
283 282 281 281 281 282 281 282 282 282 283 283 283 283 284 285 285 285 285 286 286 286 286 286 286 286 287 286 286 285 285 285 286 286 285 284 283 283 283 283 283 282 282
283 282 281 281 280 281 280 280 281 280 281 280 281 281 282 281 281 281 282 283 283 284 285 285 285 285 285 285 286 285 285 285 286 285 285 285 284 284 283 282 282 283 283
283 282 281 280 280 280 279 280 280 280 280 280 279 280 280 280 280 280 280 281 281 282 282 282 283 282 282 281 282 282 283 285 285 285 285 285 284 284 284 283 283 282 282
282 281 280 280 280 279 278 278 278 279 279 279 279 280 280 279 279 279 279 279 280 280 279 280 280 279 279 280 280 280 281 282 283 284 283 285 284 284 284 283 283 283 282

GFSGL_sfc_thetae_117.txt.gz
Theta_e
325 324 324 324 324 324 323 325 325 325 326 326 326 325 325 324 325 324 322 322 321 317 317 317 315 316 315 315 316 314 312 312 308 310 311 310 309 309 307 308 307 307 308
325 324 324 323 322 322 323 324 325 325 325 325 323 321 320 321 321 319 317 316 316 314 314 314 313 311 312 313 313 312 309 310 307 304 307 305 305 306 306 303 302 302 304
323 323 321 321 322 320 319 320 321 321 320 319 319 317 316 315 315 315 313 313 312 312 311 311 311 310 310 310 309 307 307 306 306 304 302 301 301 301 299 298 297 298 299
318 318 318 318 317 316 316 316 316 316 316 315 314 311 310 309 309 308 308 308 308 308 308 308 307 306 306 307 306 306 304 304 304 303 302 300 299 300 299 295 293 294 293
315 315 314 314 314 312 311 312 312 313 312 309 307 306 305 305 304 305 305 305 305 303 303 303 303 299 299 300 302 303 302 300 300 299 297 298 296 295 294 294 291 290 290
312 310 310 310 310 309 308 307 307 305 304 304 303 303 303 301 302 304 304 303 302 302 300 300 300 297 298 298 300 299 299 298 297 297 296 295 295 295 294 291 288 287 287
307 306 306 307 306 306 306 305 305 304 303 302 302 302 301 300 301 301 302 301 300 299 298 298 299 298 297 299 298 297 296 295 295 294 293 295 295 296 293 289 288 288 288
305 305 306 305 304 304 303 302 301 301 301 300 300 302 301 300 300 299 299 299 298 298 298 298 298 298 298 297 297 296 296 295 294 294 293 292 292 294 294 292 291 288 285
303 303 303 302 301 301 300 300 300 299 299 298 299 299 300 299 299 298 298 298 297 296 297 297 297 297 296 295 295 291 293 294 292 293 292 292 294 296 296 290 286 286 284
303 302 303 303 302 301 301 300 299 298 296 298 297 299 299 298 299 298 298 298 296 296 295 296 294 295 295 295 294 293 289 291 289 289 288 288 289 289 290 287 287 286 285
303 302 302 302 301 301 300 298 298 297 296 296 296 297 297 298 297 298 298 298 297 296 294 294 294 294 293 293 295 293 290 290 289 287 286 286 286 286 285 285 286 287 285
302 301 301 301 300 299 298 297 297 296 296 295 296 296 297 297 297 297 298 298 298 295 294 294 293 291 292 292 292 294 293 292 288 286 285 285 285 285 285 285 285 286 286
301 301 300 300 299 299 298 297 297 297 297 296 295 295 295 296 296 297 297 298 297 295 295 294 294 291 291 291 292 293 293 290 287 285 284 284 284 286 285 285 285 285 285
295 296 296 298 299 299 298 298 298 297 297 297 294 293 296 295 295 296 295 296 296 296 295 293 293 292 292 290 289 289 288 288 287 286 285 285 284 283 282 283 283 285 284
294 293 293 293 294 293 293 294 295 297 296 296 296 295 295 294 294 297 295 294 294 294 293 289 288 286 286 286 286 287 287 287 285 285 285 284 284 283 282 283 281 283 281
294 294 293 293 293 291 291 292 294 295 295 295 295 294 293 294 295 295 295 295 295 294 290 287 287 287 285 285 285 285 285 286 285 285 284 284 283 282 281 282 281 279 279
291 291 292 293 293 293 293 290 288 291 295 295 295 295 295 293 294 294 294 294 294 294 288 287 287 286 285 285 285 285 286 285 284 285 284 283 282 284 283 280 281 279 279
290 290 290 290 290 290 290 289 290 290 290 290 294 295 295 295 295 294 294 294 290 292 289 288 287 287 286 285 285 285 286 286 284 284 283 282 281 281 282 282 280 278 278
289 289 289 289 289 288 288 287 288 288 289 289 291 292 293 294 295 295 295 291 289 288 289 288 288 287 286 286 286 286 286 287 285 284 283 282 282 282 281 281 280 283 282
287 285 286 287 286 286 286 286 286 286 286 287 287 287 288 288 286 287 288 287 288 288 287 287 287 287 287 286 286 286 286 286 286 285 284 284 284 283 281 280 281 280 280
285 284 284 284 284 284 284 285 285 285 285 285 285 286 289 286 285 285 285 286 286 286 286 286 286 287 287 286 286 285 285 285 285 285 285 284 284 283 283 282 281 281 280
284 284 283 282 282 282 283 283 283 284 284 285 285 285 288 286 285 285 285 285 285 285 285 285 285 286 286 285 285 285 285 285 285 285 285 285 285 284 284 284 282 281 280
284 283 282 282 282 282 282 282 282 282 282 282 283 283 284 284 284 284 284 285 285 285 285 285 285 285 286 286 285 285 285 285 285 285 285 285 284 284 284 283 283 282 281
284 283 282 281 281 281 281 281 281 281 281 281 281 281 281 281 281 281 281 282 282 283 284 284 284 283 283 284 285 285 285 285 285 285 285 285 284 284 283 283 282 282 282
284 283 282 281 281 280 280 280 280 280 280 280 280 280 280 280 280 280 280 280 281 281 281 281 281 280 279 281 281 281 282 283 284 283 285 284 284 283 283 283 282 282 281
284 283 281 281 280 280 280 279 279 279 279 279 279 280 280 280 280 279 279 279 279 280 280 280 279 277 277 277 277 278 281 281 282 283 282 281 282 283 283 283 282 282 281